<?xml version='1.0' encoding='UTF-8'?><gpx version="1.1" creator="JPX - https://github.com/jenetics/jpx" xmlns="http://www.topografix.com/GPX/1/1"><trk><trkseg><trkpt lat="45.93987169969651" lon="10.26977688555304"><ele>263.0</ele><time>2026-04-25T12:57:25.999Z</time></trkpt><trkpt lat="45.93985058882167" lon="10.269648636175985"><ele>263.0</ele><time>2026-04-25T12:57:29Z</time></trkpt><trkpt lat="45.93974832563826" lon="10.269566974002121"><ele>263.0</ele><time>2026-04-25T12:57:31Z</time></trkpt><trkpt lat="45.93965544399277" lon="10.2695718449256"><ele>263.0</ele><time>2026-04-25T12:57:32Z</time></trkpt><trkpt lat="45.93952282813532" lon="10.26957477320318"><ele>263.0</ele><time>2026-04-25T12:57:33Z</time></trkpt><trkpt lat="45.939356062146295" lon="10.269543463593907"><ele>263.8</ele><time>2026-04-25T12:57:34Z</time></trkpt><trkpt lat="45.93921598852443" lon="10.269531271051253"><ele>264.6</ele><time>2026-04-25T12:57:35Z</time></trkpt><trkpt lat="45.9391167666679" lon="10.2695529503659"><ele>265.4</ele><time>2026-04-25T12:57:36Z</time></trkpt><trkpt lat="45.93905502164665" lon="10.26958776508758"><ele>266.2</ele><time>2026-04-25T12:57:37Z</time></trkpt><trkpt lat="45.938978218504964" lon="10.269578519299246"><ele>267.0</ele><time>2026-04-25T12:57:39Z</time></trkpt><trkpt lat="45.93891235514224" lon="10.269442694519336"><ele>267.0</ele><time>2026-04-25T12:57:40Z</time></trkpt><trkpt lat="45.938809929406034" lon="10.269405559007216"><ele>267.0</ele><time>2026-04-25T12:57:42Z</time></trkpt><trkpt lat="45.9386129796488" lon="10.269416554139967"><ele>267.0</ele><time>2026-04-25T12:57:44Z</time></trkpt><trkpt lat="45.93844116208113" lon="10.269447395284228"><ele>266.0</ele><time>2026-04-25T12:57:45Z</time></trkpt><trkpt lat="45.93826141442564" lon="10.269487703516447"><ele>265.0</ele><time>2026-04-25T12:57:46Z</time></trkpt><trkpt lat="45.938055610104726" lon="10.269528756916507"><ele>264.0</ele><time>2026-04-25T12:57:47Z</time></trkpt><trkpt lat="45.93791724297607" lon="10.269544251456127"><ele>264.0</ele><time>2026-04-25T12:57:48Z</time></trkpt><trkpt lat="45.93776838424358" lon="10.269566738316712"><ele>264.0</ele><time>2026-04-25T12:57:49Z</time></trkpt><trkpt lat="45.93763476662989" lon="10.269650673182948"><ele>264.0</ele><time>2026-04-25T12:57:50Z</time></trkpt><trkpt lat="45.93754887179772" lon="10.269767524211568"><ele>264.0</ele><time>2026-04-25T12:57:51Z</time></trkpt><trkpt lat="45.937616298752715" lon="10.269871262970982"><ele>263.25</ele><time>2026-04-25T12:57:52Z</time></trkpt><trkpt lat="45.93772833864845" lon="10.269960081962234"><ele>262.5</ele><time>2026-04-25T12:57:53Z</time></trkpt><trkpt lat="45.937787045849014" lon="10.270069835647607"><ele>261.75</ele><time>2026-04-25T12:57:54Z</time></trkpt><trkpt lat="45.93786222042031" lon="10.270265920473557"><ele>261.0</ele><time>2026-04-25T12:57:55Z</time></trkpt><trkpt lat="45.9379346728161" lon="10.270370991541991"><ele>261.0</ele><time>2026-04-25T12:57:56Z</time></trkpt><trkpt lat="45.93797599139995" lon="10.270483012413118"><ele>261.0</ele><time>2026-04-25T12:57:57Z</time></trkpt><trkpt lat="45.93803330623309" lon="10.270572467958099"><ele>261.0</ele><time>2026-04-25T12:57:58Z</time></trkpt><trkpt lat="45.93807833423097" lon="10.270659755484287"><ele>261.0</ele><time>2026-04-25T12:57:59Z</time></trkpt><trkpt lat="45.93816397180462" lon="10.270802687505197"><ele>261.0</ele><time>2026-04-25T12:58:01Z</time></trkpt><trkpt lat="45.938237001371114" lon="10.270953890659618"><ele>261.3333333333333</ele><time>2026-04-25T12:58:03Z</time></trkpt><trkpt lat="45.93834123880072" lon="10.271116325594855"><ele>261.66666666666663</ele><time>2026-04-25T12:58:04Z</time></trkpt><trkpt lat="45.93843999251103" lon="10.271287467483354"><ele>262.0</ele><time>2026-04-25T12:58:05Z</time></trkpt><trkpt lat="45.93853721582724" lon="10.271451293270706"><ele>263.3333333333333</ele><time>2026-04-25T12:58:06Z</time></trkpt><trkpt lat="45.93862858223261" lon="10.271610076156847"><ele>264.6666666666667</ele><time>2026-04-25T12:58:07Z</time></trkpt><trkpt lat="45.938753296562766" lon="10.271826999511747"><ele>266.0</ele><time>2026-04-25T12:58:08Z</time></trkpt><trkpt lat="45.938880612679625" lon="10.272023128755839"><ele>266.0</ele><time>2026-04-25T12:58:09Z</time></trkpt><trkpt lat="45.93900046652624" lon="10.272236518982176"><ele>266.0</ele><time>2026-04-25T12:58:10Z</time></trkpt><trkpt lat="45.939092437020534" lon="10.27239231580754"><ele>266.0</ele><time>2026-04-25T12:58:11Z</time></trkpt><trkpt lat="45.939159375522934" lon="10.272512865807562"><ele>266.0</ele><time>2026-04-25T12:58:12Z</time></trkpt><trkpt lat="45.93923614815177" lon="10.272553130650117"><ele>266.25</ele><time>2026-04-25T12:58:13Z</time></trkpt><trkpt lat="45.939281181677565" lon="10.272737366137028"><ele>266.5</ele><time>2026-04-25T12:58:14Z</time></trkpt><trkpt lat="45.939342973025276" lon="10.272917513389954"><ele>266.75</ele><time>2026-04-25T12:58:15Z</time></trkpt><trkpt lat="45.9394131869149" lon="10.273111005922699"><ele>267.0</ele><time>2026-04-25T12:58:16Z</time></trkpt><trkpt lat="45.939493955579934" lon="10.273323825835313"><ele>267.0</ele><time>2026-04-25T12:58:17Z</time></trkpt><trkpt lat="45.9395873492982" lon="10.273548516902373"><ele>267.0</ele><time>2026-04-25T12:58:18Z</time></trkpt><trkpt lat="45.93970436699274" lon="10.27379055875726"><ele>267.0</ele><time>2026-04-25T12:58:19Z</time></trkpt><trkpt lat="45.93985693863977" lon="10.274012502859788"><ele>267.0</ele><time>2026-04-25T12:58:20Z</time></trkpt><trkpt lat="45.94001008397192" lon="10.274266369081195"><ele>267.0</ele><time>2026-04-25T12:58:21Z</time></trkpt><trkpt lat="45.94012789213863" lon="10.274509261663551"><ele>267.0</ele><time>2026-04-25T12:58:22Z</time></trkpt><trkpt lat="45.9402373891177" lon="10.274708631919916"><ele>267.0</ele><time>2026-04-25T12:58:23Z</time></trkpt><trkpt lat="45.940337383191064" lon="10.274887540861018"><ele>267.0</ele><time>2026-04-25T12:58:24Z</time></trkpt><trkpt lat="45.94043299660471" lon="10.275077460139524"><ele>267.0</ele><time>2026-04-25T12:58:25Z</time></trkpt><trkpt lat="45.94052240291348" lon="10.275282450088875"><ele>267.0</ele><time>2026-04-25T12:58:26Z</time></trkpt><trkpt lat="45.94058797483278" lon="10.275467691137713"><ele>267.0</ele><time>2026-04-25T12:58:27Z</time></trkpt><trkpt lat="45.94056981365724" lon="10.27566841760336"><ele>267.0</ele><time>2026-04-25T12:58:28Z</time></trkpt><trkpt lat="45.94056180429187" lon="10.275878671731185"><ele>267.0</ele><time>2026-04-25T12:58:29Z</time></trkpt><trkpt lat="45.94053605200617" lon="10.2760685767907"><ele>267.25</ele><time>2026-04-25T12:58:30Z</time></trkpt><trkpt lat="45.94052369422616" lon="10.276260784312392"><ele>267.5</ele><time>2026-04-25T12:58:31Z</time></trkpt><trkpt lat="45.9405506180938" lon="10.276412643951701"><ele>267.75</ele><time>2026-04-25T12:58:32Z</time></trkpt><trkpt lat="45.94061777812501" lon="10.27655092645053"><ele>268.0</ele><time>2026-04-25T12:58:33Z</time></trkpt><trkpt lat="45.94074197154817" lon="10.27670779566956"><ele>268.3333333333333</ele><time>2026-04-25T12:58:34Z</time></trkpt><trkpt lat="45.94087835714668" lon="10.276898465690534"><ele>268.6666666666667</ele><time>2026-04-25T12:58:35Z</time></trkpt><trkpt lat="45.940987575581346" lon="10.277155634837817"><ele>269.0</ele><time>2026-04-25T12:58:36Z</time></trkpt><trkpt lat="45.941102723633804" lon="10.277423628037976"><ele>269.5</ele><time>2026-04-25T12:58:37Z</time></trkpt><trkpt lat="45.94122120337374" lon="10.277697222663926"><ele>270.0</ele><time>2026-04-25T12:58:38Z</time></trkpt><trkpt lat="45.94133957224376" lon="10.277983081991259"><ele>270.3333333333333</ele><time>2026-04-25T12:58:39Z</time></trkpt><trkpt lat="45.94145721830348" lon="10.278225009106349"><ele>270.66666666666663</ele><time>2026-04-25T12:58:40Z</time></trkpt><trkpt lat="45.94155859071565" lon="10.278419650277959"><ele>271.0</ele><time>2026-04-25T12:58:41Z</time></trkpt><trkpt lat="45.94164763720397" lon="10.278599789748231"><ele>271.0</ele><time>2026-04-25T12:58:42Z</time></trkpt><trkpt lat="45.94171408890406" lon="10.278758577831917"><ele>271.0</ele><time>2026-04-25T12:58:43Z</time></trkpt><trkpt lat="45.94176731026209" lon="10.278905740207938"><ele>271.0</ele><time>2026-04-25T12:58:44Z</time></trkpt><trkpt lat="45.941834244561676" lon="10.279002092143331"><ele>271.0</ele><time>2026-04-25T12:58:45Z</time></trkpt><trkpt lat="45.9418619295911" lon="10.279087581056887"><ele>271.0</ele><time>2026-04-25T12:58:46Z</time></trkpt><trkpt lat="45.941831837240805" lon="10.279268315662549"><ele>271.25</ele><time>2026-04-25T12:58:48Z</time></trkpt><trkpt lat="45.94180056822949" lon="10.279432211047167"><ele>271.5</ele><time>2026-04-25T12:58:49Z</time></trkpt><trkpt lat="45.94176233546009" lon="10.279545840812508"><ele>271.75</ele><time>2026-04-25T12:58:50Z</time></trkpt><trkpt lat="45.94160811578737" lon="10.279644759010514"><ele>272.0</ele><time>2026-04-25T12:58:52Z</time></trkpt><trkpt lat="45.94152412821827" lon="10.27972500084895"><ele>272.33333333333337</ele><time>2026-04-25T12:58:53Z</time></trkpt><trkpt lat="45.9413510812744" lon="10.27988434240741"><ele>272.6666666666667</ele><time>2026-04-25T12:58:54Z</time></trkpt><trkpt lat="45.941157183926315" lon="10.280062247293564"><ele>273.0</ele><time>2026-04-25T12:58:55Z</time></trkpt><trkpt lat="45.94097725784811" lon="10.280220148748485"><ele>273.6666666666667</ele><time>2026-04-25T12:58:56Z</time></trkpt><trkpt lat="45.94078660698229" lon="10.280439556094885"><ele>274.33333333333337</ele><time>2026-04-25T12:58:57Z</time></trkpt><trkpt lat="45.94067239212684" lon="10.28061141610132"><ele>275.0</ele><time>2026-04-25T12:58:58Z</time></trkpt><trkpt lat="45.94063362223831" lon="10.280856071470048"><ele>275.0</ele><time>2026-04-25T12:58:59Z</time></trkpt><trkpt lat="45.940594694266636" lon="10.280938119783423"><ele>275.0</ele><time>2026-04-25T12:59:01Z</time></trkpt><trkpt lat="45.940609359861135" lon="10.280542040971078"><ele>275.0</ele><time>2026-04-25T12:59:02Z</time></trkpt><trkpt lat="45.9405660794946" lon="10.280444154449363"><ele>275.0</ele><time>2026-04-25T12:59:03Z</time></trkpt><trkpt lat="45.94052930388795" lon="10.28036589557773"><ele>275.0</ele><time>2026-04-25T12:59:04Z</time></trkpt><trkpt lat="45.940431867145215" lon="10.280160055515738"><ele>275.0</ele><time>2026-04-25T12:59:05Z</time></trkpt><trkpt lat="45.94015362860992" lon="10.279779293830776"><ele>277.5</ele><time>2026-04-25T12:59:06Z</time></trkpt><trkpt lat="45.939996510973074" lon="10.279649296909401"><ele>280.0</ele><time>2026-04-25T12:59:07Z</time></trkpt><trkpt lat="45.939650580499155" lon="10.279876942698346"><ele>280.0</ele><time>2026-04-25T12:59:08Z</time></trkpt><trkpt lat="45.93948028892615" lon="10.279676177815452"><ele>280.0</ele><time>2026-04-25T12:59:09Z</time></trkpt><trkpt lat="45.93935070602023" lon="10.279505551455124"><ele>280.0</ele><time>2026-04-25T12:59:10Z</time></trkpt><trkpt lat="45.939201095024885" lon="10.279046317146895"><ele>276.5</ele><time>2026-04-25T12:59:11Z</time></trkpt><trkpt lat="45.93941663288901" lon="10.278644750325125"><ele>273.0</ele><time>2026-04-25T12:59:12Z</time></trkpt><trkpt lat="45.93934093115033" lon="10.278337236864825"><ele>275.5</ele><time>2026-04-25T12:59:13Z</time></trkpt><trkpt lat="45.93913245378366" lon="10.278051581991027"><ele>278.0</ele><time>2026-04-25T12:59:14Z</time></trkpt><trkpt lat="45.938977866546196" lon="10.277941645799574"><ele>278.0</ele><time>2026-04-25T12:59:15Z</time></trkpt><trkpt lat="45.938882751789365" lon="10.277838327282911"><ele>278.0</ele><time>2026-04-25T12:59:16Z</time></trkpt><trkpt lat="45.93877464601733" lon="10.277687844269495"><ele>278.0</ele><time>2026-04-25T12:59:17Z</time></trkpt><trkpt lat="45.93857908562571" lon="10.277458660274322"><ele>280.0</ele><time>2026-04-25T12:59:18Z</time></trkpt><trkpt lat="45.93837493243633" lon="10.277317454455016"><ele>282.0</ele><time>2026-04-25T12:59:19Z</time></trkpt><trkpt lat="45.93815377079612" lon="10.277226046369497"><ele>282.0</ele><time>2026-04-25T12:59:20Z</time></trkpt><trkpt lat="45.93798007918645" lon="10.277157542052993"><ele>282.0</ele><time>2026-04-25T12:59:21Z</time></trkpt><trkpt lat="45.93788018692208" lon="10.277042275879031"><ele>282.0</ele><time>2026-04-25T12:59:22Z</time></trkpt><trkpt lat="45.93781329682296" lon="10.276876809538726"><ele>282.0</ele><time>2026-04-25T12:59:23Z</time></trkpt><trkpt lat="45.93775438273658" lon="10.276647364789952"><ele>278.5</ele><time>2026-04-25T12:59:24Z</time></trkpt><trkpt lat="45.93763963912506" lon="10.276347336631394"><ele>275.0</ele><time>2026-04-25T12:59:25Z</time></trkpt><trkpt lat="45.9375026522509" lon="10.276039895405855"><ele>282.6666666666667</ele><time>2026-04-25T12:59:26Z</time></trkpt><trkpt lat="45.93743719636646" lon="10.275755833206015"><ele>290.3333333333333</ele><time>2026-04-25T12:59:27Z</time></trkpt><trkpt lat="45.93739216919391" lon="10.275497265254842"><ele>298.0</ele><time>2026-04-25T12:59:28Z</time></trkpt><trkpt lat="45.9373621511742" lon="10.275324887102535"><ele>298.0</ele><time>2026-04-25T12:59:29Z</time></trkpt><trkpt lat="45.93732734147202" lon="10.275143042480675"><ele>298.0</ele><time>2026-04-25T12:59:30Z</time></trkpt><trkpt lat="45.937306745250886" lon="10.275023584147444"><ele>298.0</ele><time>2026-04-25T12:59:31Z</time></trkpt><trkpt lat="45.937266731828025" lon="10.274880173981224"><ele>298.0</ele><time>2026-04-25T12:59:32Z</time></trkpt><trkpt lat="45.93720183092789" lon="10.27472499280977"><ele>296.0</ele><time>2026-04-25T12:59:33Z</time></trkpt><trkpt lat="45.93713766464798" lon="10.27458677673553"><ele>294.0</ele><time>2026-04-25T12:59:34Z</time></trkpt><trkpt lat="45.93708300415431" lon="10.274498022193146"><ele>292.0</ele><time>2026-04-25T12:59:35Z</time></trkpt><trkpt lat="45.93698397839665" lon="10.274435623421109"><ele>290.0</ele><time>2026-04-25T12:59:37Z</time></trkpt><trkpt lat="45.93692354172636" lon="10.274371384652747"><ele>288.0</ele><time>2026-04-25T12:59:38Z</time></trkpt><trkpt lat="45.936883918451095" lon="10.274603975204036"><ele>288.0</ele><time>2026-04-25T12:59:40Z</time></trkpt><trkpt lat="45.93682625125597" lon="10.274657434798184"><ele>288.0</ele><time>2026-04-25T12:59:45Z</time></trkpt><trkpt lat="45.93679503629566" lon="10.274738842410072"><ele>288.0</ele><time>2026-04-25T12:59:47Z</time></trkpt><trkpt lat="45.936719018956815" lon="10.274703490239476"><ele>288.0</ele><time>2026-04-25T12:59:49Z</time></trkpt><trkpt lat="45.93663780137278" lon="10.274776672927693"><ele>288.0</ele><time>2026-04-25T12:59:51Z</time></trkpt><trkpt lat="45.936575549203184" lon="10.274822516972142"><ele>288.0</ele><time>2026-04-25T12:59:52Z</time></trkpt><trkpt lat="45.936480368777175" lon="10.27489031361638"><ele>298.0</ele><time>2026-04-25T12:59:56Z</time></trkpt><trkpt lat="45.936427074393805" lon="10.274976375540598"><ele>308.0</ele><time>2026-04-25T12:59:57Z</time></trkpt><trkpt lat="45.93635274385246" lon="10.275094721093986"><ele>318.0</ele><time>2026-04-25T12:59:58Z</time></trkpt><trkpt lat="45.936266275250844" lon="10.275296139843496"><ele>328.0</ele><time>2026-04-25T12:59:59Z</time></trkpt><trkpt lat="45.93618165568184" lon="10.275438646629206"><ele>328.0</ele><time>2026-04-25T13:00:00Z</time></trkpt><trkpt lat="45.93613830878055" lon="10.275569821766712"><ele>328.0</ele><time>2026-04-25T13:00:01Z</time></trkpt><trkpt lat="45.936131561737916" lon="10.275715157996396"><ele>328.0</ele><time>2026-04-25T13:00:02Z</time></trkpt><trkpt lat="45.936095667619" lon="10.275949987031682"><ele>328.0</ele><time>2026-04-25T13:00:04Z</time></trkpt><trkpt lat="45.93607754704835" lon="10.27618642249377"><ele>331.25</ele><time>2026-04-25T13:00:05Z</time></trkpt><trkpt lat="45.936064673947094" lon="10.276349330659382"><ele>334.5</ele><time>2026-04-25T13:00:06Z</time></trkpt><trkpt lat="45.93599183247928" lon="10.276425765603467"><ele>337.75</ele><time>2026-04-25T13:00:07Z</time></trkpt><trkpt lat="45.935914460610014" lon="10.27657125302703"><ele>341.0</ele><time>2026-04-25T13:00:08Z</time></trkpt><trkpt lat="45.93583081114813" lon="10.27671699003127"><ele>351.6666666666667</ele><time>2026-04-25T13:00:09Z</time></trkpt><trkpt lat="45.935726904400575" lon="10.276891523099076"><ele>362.3333333333333</ele><time>2026-04-25T13:00:10Z</time></trkpt><trkpt lat="45.93559317972693" lon="10.27706255996546"><ele>373.0</ele><time>2026-04-25T13:00:11Z</time></trkpt><trkpt lat="45.935480810976024" lon="10.277127085137138"><ele>373.0</ele><time>2026-04-25T13:00:12Z</time></trkpt><trkpt lat="45.93533288633841" lon="10.277126349900124"><ele>373.0</ele><time>2026-04-25T13:00:13Z</time></trkpt><trkpt lat="45.93522715775711" lon="10.277107757505037"><ele>373.0</ele><time>2026-04-25T13:00:14Z</time></trkpt><trkpt lat="45.93507135996168" lon="10.27721903543658"><ele>373.0</ele><time>2026-04-25T13:00:15Z</time></trkpt><trkpt lat="45.9349291548613" lon="10.277131943632128"><ele>374.79999999999995</ele><time>2026-04-25T13:00:16Z</time></trkpt><trkpt lat="45.934840084967085" lon="10.277068198036062"><ele>376.6</ele><time>2026-04-25T13:00:17Z</time></trkpt><trkpt lat="45.93479185323365" lon="10.276903832781315"><ele>378.4</ele><time>2026-04-25T13:00:18Z</time></trkpt><trkpt lat="45.93471801890974" lon="10.276796656026852"><ele>380.20000000000005</ele><time>2026-04-25T13:00:19Z</time></trkpt><trkpt lat="45.93464198044016" lon="10.276699324280223"><ele>382.0</ele><time>2026-04-25T13:00:20Z</time></trkpt><trkpt lat="45.934569781102965" lon="10.276606653406029"><ele>382.0</ele><time>2026-04-25T13:00:21Z</time></trkpt><trkpt lat="45.934489272101885" lon="10.276514969980294"><ele>382.0</ele><time>2026-04-25T13:00:22Z</time></trkpt><trkpt lat="45.93440987622918" lon="10.276386340342638"><ele>382.0</ele><time>2026-04-25T13:00:23Z</time></trkpt><trkpt lat="45.93431043477651" lon="10.276264628219359"><ele>382.0</ele><time>2026-04-25T13:00:24Z</time></trkpt><trkpt lat="45.93425090969363" lon="10.276153738675513"><ele>378.3333333333333</ele><time>2026-04-25T13:00:25Z</time></trkpt><trkpt lat="45.934159639628625" lon="10.276077920124996"><ele>374.6666666666667</ele><time>2026-04-25T13:00:27Z</time></trkpt><trkpt lat="45.93399958637495" lon="10.276240869613117"><ele>371.0</ele><time>2026-04-25T13:00:30Z</time></trkpt><trkpt lat="45.93385357144353" lon="10.276293320385697"><ele>371.0</ele><time>2026-04-25T13:00:31Z</time></trkpt><trkpt lat="45.93374828492902" lon="10.276194657934944"><ele>371.0</ele><time>2026-04-25T13:00:32Z</time></trkpt><trkpt lat="45.93363870986066" lon="10.276112821163895"><ele>371.0</ele><time>2026-04-25T13:00:34Z</time></trkpt><trkpt lat="45.9335204058437" lon="10.27617190281707"><ele>371.0</ele><time>2026-04-25T13:00:36Z</time></trkpt><trkpt lat="45.9334304599012" lon="10.276206068733595"><ele>368.75</ele><time>2026-04-25T13:00:37Z</time></trkpt><trkpt lat="45.93331012061029" lon="10.276249826109998"><ele>366.5</ele><time>2026-04-25T13:00:38Z</time></trkpt><trkpt lat="45.93322869757727" lon="10.276391495427346"><ele>364.25</ele><time>2026-04-25T13:00:39Z</time></trkpt><trkpt lat="45.933114047016765" lon="10.276492281653796"><ele>362.0</ele><time>2026-04-25T13:00:40Z</time></trkpt><trkpt lat="45.93301989050764" lon="10.276600008505834"><ele>362.0</ele><time>2026-04-25T13:00:41Z</time></trkpt><trkpt lat="45.93288887922272" lon="10.27672116481068"><ele>362.0</ele><time>2026-04-25T13:00:42Z</time></trkpt><trkpt lat="45.93272266537983" lon="10.276532557183913"><ele>362.0</ele><time>2026-04-25T13:00:43Z</time></trkpt><trkpt lat="45.932676543653976" lon="10.276620565292614"><ele>362.0</ele><time>2026-04-25T13:00:44Z</time></trkpt><trkpt lat="45.93263821444863" lon="10.276735501130831"><ele>362.0</ele><time>2026-04-25T13:00:45Z</time></trkpt><trkpt lat="45.93260824641254" lon="10.276887222371547"><ele>362.0</ele><time>2026-04-25T13:00:46Z</time></trkpt><trkpt lat="45.932776209976105" lon="10.277149667624894"><ele>362.0</ele><time>2026-04-25T13:00:47Z</time></trkpt><trkpt lat="45.93272619707862" lon="10.277394823524583"><ele>361.5</ele><time>2026-04-25T13:00:48Z</time></trkpt><trkpt lat="45.93262000047761" lon="10.277906234915017"><ele>361.0</ele><time>2026-04-25T13:00:49Z</time></trkpt><trkpt lat="45.93254922182908" lon="10.278187036591683"><ele>361.0</ele><time>2026-04-25T13:00:50Z</time></trkpt><trkpt lat="45.93249024979865" lon="10.278456038311061"><ele>361.0</ele><time>2026-04-25T13:00:51Z</time></trkpt><trkpt lat="45.93249318272246" lon="10.278648602591222"><ele>361.0</ele><time>2026-04-25T13:00:52Z</time></trkpt><trkpt lat="45.93244423218211" lon="10.27874787636209"><ele>361.0</ele><time>2026-04-25T13:00:53Z</time></trkpt><trkpt lat="45.93236361886509" lon="10.27886456330469"><ele>361.0</ele><time>2026-04-25T13:00:53.999Z</time></trkpt><trkpt lat="45.93229696434194" lon="10.278914905933679"><ele>361.0</ele><time>2026-04-25T13:00:54.999Z</time></trkpt><trkpt lat="45.932196825597906" lon="10.278977461314673"><ele>361.0</ele><time>2026-04-25T13:00:55.999Z</time></trkpt><trkpt lat="45.93202140059828" lon="10.278847051481996"><ele>361.0</ele><time>2026-04-25T13:00:56.999Z</time></trkpt><trkpt lat="45.93187623552791" lon="10.278875088347172"><ele>361.0</ele><time>2026-04-25T13:00:57.999Z</time></trkpt><trkpt lat="45.93170326969874" lon="10.278947727274993"><ele>361.0</ele><time>2026-04-25T13:00:58.999Z</time></trkpt><trkpt lat="45.93149698324872" lon="10.278984189495892"><ele>361.0</ele><time>2026-04-25T13:00:59.999Z</time></trkpt><trkpt lat="45.9312961777503" lon="10.279067091295593"><ele>361.0</ele><time>2026-04-25T13:01:00.999Z</time></trkpt><trkpt lat="45.93110668683726" lon="10.27917104805398"><ele>361.0</ele><time>2026-04-25T13:01:01.999Z</time></trkpt><trkpt lat="45.930894823673036" lon="10.279258619563032"><ele>361.0</ele><time>2026-04-25T13:01:02.999Z</time></trkpt><trkpt lat="45.93066038251677" lon="10.279364589182725"><ele>360.3333333333333</ele><time>2026-04-25T13:01:03.999Z</time></trkpt><trkpt lat="45.93044427438241" lon="10.279459652516762"><ele>359.6666666666667</ele><time>2026-04-25T13:01:05Z</time></trkpt><trkpt lat="45.930230070595314" lon="10.27953075181504"><ele>359.0</ele><time>2026-04-25T13:01:06Z</time></trkpt><trkpt lat="45.93001815460043" lon="10.279627023198701"><ele>358.0</ele><time>2026-04-25T13:01:07Z</time></trkpt><trkpt lat="45.92980542839123" lon="10.279720826074902"><ele>357.0</ele><time>2026-04-25T13:01:08Z</time></trkpt><trkpt lat="45.92959371632942" lon="10.279815730057408"><ele>356.0</ele><time>2026-04-25T13:01:09Z</time></trkpt><trkpt lat="45.92938476415219" lon="10.279908590813656"><ele>356.6666666666667</ele><time>2026-04-25T13:01:10Z</time></trkpt><trkpt lat="45.92917782024385" lon="10.27999623223648"><ele>357.3333333333333</ele><time>2026-04-25T13:01:11Z</time></trkpt><trkpt lat="45.92897686986618" lon="10.280085414578902"><ele>358.0</ele><time>2026-04-25T13:01:12Z</time></trkpt><trkpt lat="45.92879250638414" lon="10.28016188117888"><ele>358.0</ele><time>2026-04-25T13:01:13Z</time></trkpt><trkpt lat="45.928646851929216" lon="10.280242904982185"><ele>358.0</ele><time>2026-04-25T13:01:14Z</time></trkpt><trkpt lat="45.92850697858132" lon="10.28030927039695"><ele>358.0</ele><time>2026-04-25T13:01:15Z</time></trkpt><trkpt lat="45.92834530512268" lon="10.28035751729707"><ele>358.66666666666663</ele><time>2026-04-25T13:01:16Z</time></trkpt><trkpt lat="45.92818918867501" lon="10.280433786448421"><ele>359.3333333333333</ele><time>2026-04-25T13:01:17Z</time></trkpt><trkpt lat="45.92803005560018" lon="10.280527071373736"><ele>360.0</ele><time>2026-04-25T13:01:18Z</time></trkpt><trkpt lat="45.927869091245476" lon="10.280671089142052"><ele>360.0</ele><time>2026-04-25T13:01:19Z</time></trkpt><trkpt lat="45.92771121430864" lon="10.280856256951669"><ele>360.0</ele><time>2026-04-25T13:01:20Z</time></trkpt><trkpt lat="45.92755291884865" lon="10.281044858816866"><ele>360.0</ele><time>2026-04-25T13:01:21Z</time></trkpt><trkpt lat="45.927407637432744" lon="10.281204229432682"><ele>359.5</ele><time>2026-04-25T13:01:22Z</time></trkpt><trkpt lat="45.927273959865055" lon="10.281314834248834"><ele>359.0</ele><time>2026-04-25T13:01:23Z</time></trkpt><trkpt lat="45.927143230581486" lon="10.281365665892949"><ele>358.5</ele><time>2026-04-25T13:01:24Z</time></trkpt><trkpt lat="45.92702296123121" lon="10.281416082372045"><ele>358.0</ele><time>2026-04-25T13:01:25Z</time></trkpt><trkpt lat="45.92692676522134" lon="10.281469807147467"><ele>358.0</ele><time>2026-04-25T13:01:26Z</time></trkpt><trkpt lat="45.92682890122937" lon="10.281547060003893"><ele>358.0</ele><time>2026-04-25T13:01:27Z</time></trkpt><trkpt lat="45.92675177747798" lon="10.281613375664225"><ele>358.0</ele><time>2026-04-25T13:01:28Z</time></trkpt><trkpt lat="45.92669891475602" lon="10.281682641408914"><ele>358.0</ele><time>2026-04-25T13:01:29Z</time></trkpt><trkpt lat="45.92663781790654" lon="10.281743709318546"><ele>358.0</ele><time>2026-04-25T13:01:30Z</time></trkpt><trkpt lat="45.92659706391518" lon="10.281835439687379"><ele>358.0</ele><time>2026-04-25T13:02:03Z</time></trkpt><trkpt lat="45.926506850805" lon="10.281972020043929"><ele>357.5</ele><time>2026-04-25T13:02:07Z</time></trkpt><trkpt lat="45.926406542268275" lon="10.28206977262881"><ele>357.0</ele><time>2026-04-25T13:02:08Z</time></trkpt><trkpt lat="45.92628488210599" lon="10.282176766127797"><ele>356.5</ele><time>2026-04-25T13:02:09Z</time></trkpt><trkpt lat="45.92613918416052" lon="10.282313615288844"><ele>356.0</ele><time>2026-04-25T13:02:10Z</time></trkpt><trkpt lat="45.92606559926581" lon="10.282395976090841"><ele>356.0</ele><time>2026-04-25T13:02:11Z</time></trkpt><trkpt lat="45.925956202075376" lon="10.282297348713625"><ele>356.0</ele><time>2026-04-25T13:02:13Z</time></trkpt><trkpt lat="45.92581115319925" lon="10.282169713528763"><ele>356.0</ele><time>2026-04-25T13:02:14Z</time></trkpt><trkpt lat="45.92575706920964" lon="10.281947345004674"><ele>355.25</ele><time>2026-04-25T13:02:15Z</time></trkpt><trkpt lat="45.92559834682988" lon="10.282048270320361"><ele>354.5</ele><time>2026-04-25T13:02:16Z</time></trkpt><trkpt lat="45.92549665449036" lon="10.282057744777278"><ele>353.75</ele><time>2026-04-25T13:02:17Z</time></trkpt><trkpt lat="45.92536877629401" lon="10.282073991871194"><ele>353.0</ele><time>2026-04-25T13:02:18Z</time></trkpt><trkpt lat="45.92525924570951" lon="10.282076560805818"><ele>353.0</ele><time>2026-04-25T13:02:19Z</time></trkpt><trkpt lat="45.92517056854642" lon="10.282129218145988"><ele>353.0</ele><time>2026-04-25T13:02:20Z</time></trkpt><trkpt lat="45.92510871872113" lon="10.28226538257561"><ele>353.0</ele><time>2026-04-25T13:02:21Z</time></trkpt><trkpt lat="45.9249631813405" lon="10.282388707200184"><ele>353.0</ele><time>2026-04-25T13:02:22Z</time></trkpt><trkpt lat="45.92490648489308" lon="10.282635880736686"><ele>357.4</ele><time>2026-04-25T13:02:23Z</time></trkpt><trkpt lat="45.92489229703142" lon="10.28275632456207"><ele>361.79999999999995</ele><time>2026-04-25T13:02:24Z</time></trkpt><trkpt lat="45.924879596738094" lon="10.28285727346585"><ele>366.2</ele><time>2026-04-25T13:02:25Z</time></trkpt><trkpt lat="45.92489484783156" lon="10.282966179504042"><ele>370.6</ele><time>2026-04-25T13:02:26Z</time></trkpt><trkpt lat="45.92497917100555" lon="10.283109120994686"><ele>375.0</ele><time>2026-04-25T13:02:27Z</time></trkpt><trkpt lat="45.92510197861037" lon="10.28324772483003"><ele>376.25</ele><time>2026-04-25T13:02:28Z</time></trkpt><trkpt lat="45.92517311259843" lon="10.28336108207734"><ele>377.5</ele><time>2026-04-25T13:02:29Z</time></trkpt><trkpt lat="45.92518843985011" lon="10.283527486757022"><ele>378.75</ele><time>2026-04-25T13:02:30Z</time></trkpt><trkpt lat="45.92521512837267" lon="10.283751838546237"><ele>380.0</ele><time>2026-04-25T13:02:31Z</time></trkpt><trkpt lat="45.92521396960924" lon="10.283978840524309"><ele>382.5</ele><time>2026-04-25T13:02:32Z</time></trkpt><trkpt lat="45.925195385052085" lon="10.284146981054398"><ele>385.0</ele><time>2026-04-25T13:02:33Z</time></trkpt><trkpt lat="45.92518185074888" lon="10.284259850154683"><ele>387.5</ele><time>2026-04-25T13:02:34Z</time></trkpt><trkpt lat="45.925055887433246" lon="10.284350292228712"><ele>390.0</ele><time>2026-04-25T13:02:35Z</time></trkpt><trkpt lat="45.92495650531956" lon="10.284512266436346"><ele>391.66666666666663</ele><time>2026-04-25T13:02:36Z</time></trkpt><trkpt lat="45.924886806148166" lon="10.28467081583788"><ele>393.3333333333333</ele><time>2026-04-25T13:02:37Z</time></trkpt><trkpt lat="45.92478913134752" lon="10.284856884773179"><ele>395.0</ele><time>2026-04-25T13:02:38Z</time></trkpt><trkpt lat="45.92466022084181" lon="10.285061760881312"><ele>397.3333333333333</ele><time>2026-04-25T13:02:39Z</time></trkpt><trkpt lat="45.924583714791595" lon="10.285251118568894"><ele>399.66666666666663</ele><time>2026-04-25T13:02:40Z</time></trkpt><trkpt lat="45.924534865618725" lon="10.28543233922837"><ele>402.0</ele><time>2026-04-25T13:02:41Z</time></trkpt><trkpt lat="45.92448411118518" lon="10.285707767884142"><ele>404.5</ele><time>2026-04-25T13:02:42Z</time></trkpt><trkpt lat="45.924460283864555" lon="10.285957432804866"><ele>407.0</ele><time>2026-04-25T13:02:43Z</time></trkpt><trkpt lat="45.924429814997346" lon="10.286109572739832"><ele>409.5</ele><time>2026-04-25T13:02:44Z</time></trkpt><trkpt lat="45.9244728894528" lon="10.286247866242729"><ele>412.0</ele><time>2026-04-25T13:02:45Z</time></trkpt><trkpt lat="45.92454337623698" lon="10.286448649026088"><ele>416.0</ele><time>2026-04-25T13:02:46Z</time></trkpt><trkpt lat="45.92461151155841" lon="10.286648632813325"><ele>420.0</ele><time>2026-04-25T13:02:47Z</time></trkpt><trkpt lat="45.924682234631064" lon="10.286884443849136"><ele>424.0</ele><time>2026-04-25T13:02:48Z</time></trkpt><trkpt lat="45.92475535511336" lon="10.287080252176883"><ele>424.0</ele><time>2026-04-25T13:02:49Z</time></trkpt><trkpt lat="45.924830758510474" lon="10.287185102937372"><ele>424.0</ele><time>2026-04-25T13:02:50Z</time></trkpt><trkpt lat="45.92492187143787" lon="10.287235347497932"><ele>424.0</ele><time>2026-04-25T13:02:51Z</time></trkpt><trkpt lat="45.925018965723154" lon="10.287231059791731"><ele>424.0</ele><time>2026-04-25T13:02:52Z</time></trkpt><trkpt lat="45.92514584285742" lon="10.287169301880827"><ele>424.0</ele><time>2026-04-25T13:02:53Z</time></trkpt><trkpt lat="45.925267830402454" lon="10.287154535853956"><ele>424.4</ele><time>2026-04-25T13:02:54Z</time></trkpt><trkpt lat="45.92537052504985" lon="10.287182639092112"><ele>424.79999999999995</ele><time>2026-04-25T13:02:55Z</time></trkpt><trkpt lat="45.925433424770375" lon="10.287271400340565"><ele>425.20000000000005</ele><time>2026-04-25T13:02:56Z</time></trkpt><trkpt lat="45.925483742093746" lon="10.287413762852129"><ele>425.6</ele><time>2026-04-25T13:02:57Z</time></trkpt><trkpt lat="45.92556790841261" lon="10.287570401431068"><ele>426.0</ele><time>2026-04-25T13:02:58Z</time></trkpt><trkpt lat="45.92563056900388" lon="10.287747812984064"><ele>428.66666666666663</ele><time>2026-04-25T13:02:59Z</time></trkpt><trkpt lat="45.925700604780324" lon="10.287926749497657"><ele>431.3333333333333</ele><time>2026-04-25T13:02:59.999Z</time></trkpt><trkpt lat="45.92573525352432" lon="10.288174083512656"><ele>434.0</ele><time>2026-04-25T13:03:00.999Z</time></trkpt><trkpt lat="45.92580107087865" lon="10.288442576823046"><ele>434.66666666666663</ele><time>2026-04-25T13:03:01.999Z</time></trkpt><trkpt lat="45.92582047200636" lon="10.288660106054666"><ele>435.33333333333337</ele><time>2026-04-25T13:03:02.999Z</time></trkpt><trkpt lat="45.92587612310417" lon="10.288867629498904"><ele>436.0</ele><time>2026-04-25T13:03:03.999Z</time></trkpt><trkpt lat="45.92593278115125" lon="10.289122905223781"><ele>436.0</ele><time>2026-04-25T13:03:04.999Z</time></trkpt><trkpt lat="45.92598849128591" lon="10.289324482090866"><ele>436.0</ele><time>2026-04-25T13:03:05.999Z</time></trkpt><trkpt lat="45.926001557524124" lon="10.289488818112275"><ele>436.0</ele><time>2026-04-25T13:03:06.999Z</time></trkpt><trkpt lat="45.925969444678316" lon="10.289639385264381"><ele>436.0</ele><time>2026-04-25T13:03:07.999Z</time></trkpt><trkpt lat="45.92596684071155" lon="10.289836640443843"><ele>440.5</ele><time>2026-04-25T13:03:08.999Z</time></trkpt><trkpt lat="45.92591106337172" lon="10.290012897463736"><ele>445.0</ele><time>2026-04-25T13:03:09.999Z</time></trkpt><trkpt lat="45.92591554583499" lon="10.290171940471895"><ele>449.5</ele><time>2026-04-25T13:03:10.999Z</time></trkpt><trkpt lat="45.92595621923061" lon="10.290280386812226"><ele>454.0</ele><time>2026-04-25T13:03:11.999Z</time></trkpt><trkpt lat="45.926057926122226" lon="10.290559456183292"><ele>458.33333333333337</ele><time>2026-04-25T13:03:13.999Z</time></trkpt><trkpt lat="45.926147039932374" lon="10.29080874662027"><ele>462.66666666666663</ele><time>2026-04-25T13:03:14.999Z</time></trkpt><trkpt lat="45.92623402826564" lon="10.291070446009911"><ele>467.0</ele><time>2026-04-25T13:03:15.999Z</time></trkpt><trkpt lat="45.92630363322966" lon="10.291366505005705"><ele>469.3333333333333</ele><time>2026-04-25T13:03:16.999Z</time></trkpt><trkpt lat="45.92638658506718" lon="10.291596660139035"><ele>471.66666666666663</ele><time>2026-04-25T13:03:17.999Z</time></trkpt><trkpt lat="45.926409565858364" lon="10.291819211372346"><ele>474.0</ele><time>2026-04-25T13:03:18.999Z</time></trkpt><trkpt lat="45.926426761655456" lon="10.291988500144225"><ele>474.0</ele><time>2026-04-25T13:03:19.999Z</time></trkpt><trkpt lat="45.92643382756249" lon="10.292167430914583"><ele>474.0</ele><time>2026-04-25T13:03:20.999Z</time></trkpt><trkpt lat="45.92643726273868" lon="10.29234838908899"><ele>474.0</ele><time>2026-04-25T13:03:21.999Z</time></trkpt><trkpt lat="45.926444182951734" lon="10.292530915857323"><ele>474.0</ele><time>2026-04-25T13:03:22.999Z</time></trkpt><trkpt lat="45.92647322514281" lon="10.292799068393055"><ele>477.0</ele><time>2026-04-25T13:03:23.999Z</time></trkpt><trkpt lat="45.92651985235974" lon="10.293025751297252"><ele>480.0</ele><time>2026-04-25T13:03:24.999Z</time></trkpt><trkpt lat="45.92658810316482" lon="10.293286211769118"><ele>483.0</ele><time>2026-04-25T13:03:25.999Z</time></trkpt><trkpt lat="45.92666686747713" lon="10.293574499810894"><ele>482.0</ele><time>2026-04-25T13:03:26.999Z</time></trkpt><trkpt lat="45.926736229903455" lon="10.293844864708714"><ele>481.0</ele><time>2026-04-25T13:03:27.999Z</time></trkpt><trkpt lat="45.926792872834746" lon="10.294056351660474"><ele>480.0</ele><time>2026-04-25T13:03:28.999Z</time></trkpt><trkpt lat="45.926819232307665" lon="10.29421236769989"><ele>481.42857142857144</ele><time>2026-04-25T13:03:29.999Z</time></trkpt><trkpt lat="45.92675545957891" lon="10.294229325100899"><ele>482.85714285714283</ele><time>2026-04-25T13:03:32.999Z</time></trkpt><trkpt lat="45.926701301981254" lon="10.294288069290614"><ele>484.2857142857143</ele><time>2026-04-25T13:03:39.999Z</time></trkpt><trkpt lat="45.92668599738907" lon="10.294379111891386"><ele>485.7142857142857</ele><time>2026-04-25T13:03:46.999Z</time></trkpt><trkpt lat="45.92665818338291" lon="10.294463827173184"><ele>487.1428571428571</ele><time>2026-04-25T13:03:49.999Z</time></trkpt><trkpt lat="45.92661543752096" lon="10.294547134066747"><ele>488.57142857142856</ele><time>2026-04-25T13:03:52.999Z</time></trkpt><trkpt lat="45.926613697792604" lon="10.29464401854168"><ele>490.0</ele><time>2026-04-25T13:03:56.999Z</time></trkpt><trkpt lat="45.92659717395334" lon="10.294751758801185"><ele>495.6</ele><time>2026-04-25T13:04:00.999Z</time></trkpt><trkpt lat="45.92653263585692" lon="10.29477092892277"><ele>501.2</ele><time>2026-04-25T13:04:06Z</time></trkpt><trkpt lat="45.92641902229507" lon="10.294725342553814"><ele>506.79999999999995</ele><time>2026-04-25T13:04:09Z</time></trkpt><trkpt lat="45.92631820577917" lon="10.294752884585757"><ele>512.4</ele><time>2026-04-25T13:04:11Z</time></trkpt><trkpt lat="45.926192836323494" lon="10.294729392527524"><ele>518.0</ele><time>2026-04-25T13:04:13Z</time></trkpt><trkpt lat="45.92610029633599" lon="10.294697106172933"><ele>518.0</ele><time>2026-04-25T13:04:15Z</time></trkpt><trkpt lat="45.9260236832173" lon="10.29467423279971"><ele>518.0</ele><time>2026-04-25T13:04:17Z</time></trkpt><trkpt lat="45.925932584600574" lon="10.294681329977287"><ele>518.0</ele><time>2026-04-25T13:04:20Z</time></trkpt><trkpt lat="45.925835687460044" lon="10.294659953237133"><ele>518.0</ele><time>2026-04-25T13:04:23Z</time></trkpt><trkpt lat="45.92577825620589" lon="10.294736742894576"><ele>518.0</ele><time>2026-04-25T13:05:06.999Z</time></trkpt><trkpt lat="45.92585185822354" lon="10.29477336706509"><ele>518.0</ele><time>2026-04-25T13:05:09.999Z</time></trkpt><trkpt lat="45.92590940930494" lon="10.294812351443543"><ele>524.0</ele><time>2026-04-25T13:05:12.999Z</time></trkpt><trkpt lat="45.925857030452846" lon="10.294743593632644"><ele>530.0</ele><time>2026-04-25T13:05:54.999Z</time></trkpt><trkpt lat="45.92578334000558" lon="10.294752338754856"><ele>536.0</ele><time>2026-04-25T13:05:57.999Z</time></trkpt><trkpt lat="45.925697814229274" lon="10.29474164519202"><ele>542.0</ele><time>2026-04-25T13:06:02Z</time></trkpt><trkpt lat="45.92561828857966" lon="10.294807828119735"><ele>548.0</ele><time>2026-04-25T13:06:05Z</time></trkpt><trkpt lat="45.92556683803701" lon="10.294884476088187"><ele>554.0</ele><time>2026-04-25T13:06:07Z</time></trkpt><trkpt lat="45.92546991124086" lon="10.29497511336534"><ele>557.0</ele><time>2026-04-25T13:06:09Z</time></trkpt><trkpt lat="45.92543327457187" lon="10.295091570480842"><ele>560.0</ele><time>2026-04-25T13:06:11Z</time></trkpt><trkpt lat="45.92537413949083" lon="10.295126438835567"><ele>563.0</ele><time>2026-04-25T13:06:12Z</time></trkpt><trkpt lat="45.92530027300006" lon="10.29520739137589"><ele>566.0</ele><time>2026-04-25T13:06:13Z</time></trkpt><trkpt lat="45.92523992077607" lon="10.295286076475636"><ele>569.0</ele><time>2026-04-25T13:06:15Z</time></trkpt><trkpt lat="45.925168896004536" lon="10.295312258973372"><ele>572.0</ele><time>2026-04-25T13:06:18Z</time></trkpt><trkpt lat="45.9250807578932" lon="10.295319930478984"><ele>575.8000000000001</ele><time>2026-04-25T13:06:19Z</time></trkpt><trkpt lat="45.925006242190676" lon="10.295470438213215"><ele>579.6</ele><time>2026-04-25T13:06:20Z</time></trkpt><trkpt lat="45.92497394719539" lon="10.295573807322238"><ele>583.4000000000001</ele><time>2026-04-25T13:06:21Z</time></trkpt><trkpt lat="45.92492889831841" lon="10.295739343106042"><ele>587.2</ele><time>2026-04-25T13:06:22.001Z</time></trkpt><trkpt lat="45.92492803204556" lon="10.295840250417793"><ele>591.0</ele><time>2026-04-25T13:06:23.001Z</time></trkpt><trkpt lat="45.92493023791982" lon="10.295991860193487"><ele>592.4</ele><time>2026-04-25T13:06:24.001Z</time></trkpt><trkpt lat="45.92493423571037" lon="10.296167040108301"><ele>593.8</ele><time>2026-04-25T13:06:25.001Z</time></trkpt><trkpt lat="45.92489363748373" lon="10.296328614343423"><ele>595.1999999999999</ele><time>2026-04-25T13:06:26.001Z</time></trkpt><trkpt lat="45.92482864672556" lon="10.296478483062826"><ele>596.6</ele><time>2026-04-25T13:06:27.001Z</time></trkpt><trkpt lat="45.924775609739726" lon="10.296543483961566"><ele>598.0</ele><time>2026-04-25T13:06:28.001Z</time></trkpt><trkpt lat="45.92473788836624" lon="10.29662482954188"><ele>600.75</ele><time>2026-04-25T13:06:29.001Z</time></trkpt><trkpt lat="45.924690681693335" lon="10.296800923560129"><ele>603.5</ele><time>2026-04-25T13:06:30.001Z</time></trkpt><trkpt lat="45.92465463720467" lon="10.296951584697272"><ele>606.25</ele><time>2026-04-25T13:06:31.001Z</time></trkpt><trkpt lat="45.92457438297277" lon="10.297079256257005"><ele>609.0</ele><time>2026-04-25T13:06:33.001Z</time></trkpt><trkpt lat="45.92446736387805" lon="10.297199603944177"><ele>612.4</ele><time>2026-04-25T13:06:34.001Z</time></trkpt><trkpt lat="45.92438973144081" lon="10.29730351701758"><ele>615.8</ele><time>2026-04-25T13:06:35.001Z</time></trkpt><trkpt lat="45.92434127941522" lon="10.297417475310898"><ele>619.2</ele><time>2026-04-25T13:06:36.001Z</time></trkpt><trkpt lat="45.924292845404715" lon="10.297517990452643"><ele>622.6</ele><time>2026-04-25T13:06:37.001Z</time></trkpt><trkpt lat="45.92418877550619" lon="10.297559611771817"><ele>626.0</ele><time>2026-04-25T13:06:39.001Z</time></trkpt><trkpt lat="45.924125574855" lon="10.297578927217568"><ele>629.3333333333333</ele><time>2026-04-25T13:06:41.001Z</time></trkpt><trkpt lat="45.92405543290382" lon="10.297555241824087"><ele>632.6666666666666</ele><time>2026-04-25T13:06:43.001Z</time></trkpt><trkpt lat="45.923991059114044" lon="10.297548932400337"><ele>636.0</ele><time>2026-04-25T13:06:44.001Z</time></trkpt><trkpt lat="45.92391412442952" lon="10.297592251422627"><ele>639.3333333333334</ele><time>2026-04-25T13:06:45.001Z</time></trkpt><trkpt lat="45.923812627802654" lon="10.297581132253779"><ele>642.6666666666667</ele><time>2026-04-25T13:06:47.001Z</time></trkpt><trkpt lat="45.92369577239976" lon="10.297539841199828"><ele>646.0</ele><time>2026-04-25T13:06:49.001Z</time></trkpt><trkpt lat="45.92360844313906" lon="10.297592825018624"><ele>646.0</ele><time>2026-04-25T13:06:56.001Z</time></trkpt><trkpt lat="45.92354207011435" lon="10.297569703671472"><ele>646.0</ele><time>2026-04-25T13:06:57.001Z</time></trkpt><trkpt lat="45.92343663333846" lon="10.297531374407043"><ele>646.0</ele><time>2026-04-25T13:06:59.001Z</time></trkpt><trkpt lat="45.9233495328307" lon="10.297544427506969"><ele>646.0</ele><time>2026-04-25T13:07:01.001Z</time></trkpt><trkpt lat="45.92328343344476" lon="10.297614457471639"><ele>646.0</ele><time>2026-04-25T13:07:04.001Z</time></trkpt><trkpt lat="45.92322111977052" lon="10.297667683824352"><ele>646.0</ele><time>2026-04-25T13:07:06.001Z</time></trkpt><trkpt lat="45.92315395881119" lon="10.297665229329366"><ele>650.0</ele><time>2026-04-25T13:07:09.001Z</time></trkpt><trkpt lat="45.92309613471916" lon="10.297600233817947"><ele>654.0</ele><time>2026-04-25T13:07:12Z</time></trkpt><trkpt lat="45.92301957990442" lon="10.297644693439562"><ele>658.0</ele><time>2026-04-25T13:07:35Z</time></trkpt><trkpt lat="45.92294871386959" lon="10.29773529957217"><ele>662.0</ele><time>2026-04-25T13:07:38Z</time></trkpt><trkpt lat="45.92288340699606" lon="10.297734227470645"><ele>666.0</ele><time>2026-04-25T13:07:40Z</time></trkpt><trkpt lat="45.922810322381736" lon="10.297806721670671"><ele>670.0</ele><time>2026-04-25T13:08:06Z</time></trkpt><trkpt lat="45.92278732241195" lon="10.297915914700171"><ele>670.0</ele><time>2026-04-25T13:08:07Z</time></trkpt><trkpt lat="45.92276372599753" lon="10.298058527450536"><ele>670.0</ele><time>2026-04-25T13:08:08Z</time></trkpt><trkpt lat="45.92272420253019" lon="10.298206677286293"><ele>670.0</ele><time>2026-04-25T13:08:10Z</time></trkpt><trkpt lat="45.92269539393206" lon="10.298329654963101"><ele>670.0</ele><time>2026-04-25T13:08:11Z</time></trkpt><trkpt lat="45.92268948888656" lon="10.298489499954156"><ele>670.0</ele><time>2026-04-25T13:08:12Z</time></trkpt><trkpt lat="45.9226326979885" lon="10.298629171219734"><ele>671.6666666666667</ele><time>2026-04-25T13:08:13Z</time></trkpt><trkpt lat="45.922591784674964" lon="10.29874123180175"><ele>673.3333333333334</ele><time>2026-04-25T13:08:14Z</time></trkpt><trkpt lat="45.92253028005128" lon="10.29882109941873"><ele>675.0</ele><time>2026-04-25T13:08:15Z</time></trkpt><trkpt lat="45.922483717550946" lon="10.298891342160893"><ele>676.6666666666666</ele><time>2026-04-25T13:08:22Z</time></trkpt><trkpt lat="45.92241610995044" lon="10.298887551800176"><ele>678.3333333333333</ele><time>2026-04-25T13:08:25Z</time></trkpt><trkpt lat="45.92235104290079" lon="10.298870912534106"><ele>680.0</ele><time>2026-04-25T13:08:27Z</time></trkpt><trkpt lat="45.92224621909023" lon="10.298874132442673"><ele>683.6</ele><time>2026-04-25T13:08:29Z</time></trkpt><trkpt lat="45.922155816671136" lon="10.298894699805855"><ele>687.2</ele><time>2026-04-25T13:08:31Z</time></trkpt><trkpt lat="45.92207462561232" lon="10.298937365115668"><ele>690.8</ele><time>2026-04-25T13:08:33Z</time></trkpt><trkpt lat="45.92197189586825" lon="10.298910306322878"><ele>694.4</ele><time>2026-04-25T13:08:35Z</time></trkpt><trkpt lat="45.92189439888435" lon="10.298848194354465"><ele>698.0</ele><time>2026-04-25T13:08:37Z</time></trkpt><trkpt lat="45.9218519428644" lon="10.298960934166507"><ele>699.0</ele><time>2026-04-25T13:08:43Z</time></trkpt><trkpt lat="45.92185180662168" lon="10.299086067030625"><ele>700.0</ele><time>2026-04-25T13:09:12.001Z</time></trkpt><trkpt lat="45.921966734163156" lon="10.299158351413624"><ele>701.0</ele><time>2026-04-25T13:09:14.001Z</time></trkpt><trkpt lat="45.92203147367438" lon="10.29919803241362"><ele>702.0</ele><time>2026-04-25T13:09:15.001Z</time></trkpt><trkpt lat="45.92213732390844" lon="10.299188654962553"><ele>703.0</ele><time>2026-04-25T13:09:17Z</time></trkpt><trkpt lat="45.92221931814588" lon="10.299170467260302"><ele>703.0</ele><time>2026-04-25T13:09:18Z</time></trkpt><trkpt lat="45.92231135849238" lon="10.299150185037014"><ele>703.0</ele><time>2026-04-25T13:09:19Z</time></trkpt><trkpt lat="45.92242232372175" lon="10.299047773017728"><ele>703.0</ele><time>2026-04-25T13:09:21Z</time></trkpt><trkpt lat="45.922413353740254" lon="10.299166130582954"><ele>703.0</ele><time>2026-04-25T13:09:27Z</time></trkpt><trkpt lat="45.92236619761708" lon="10.299236298268141"><ele>703.0</ele><time>2026-04-25T13:09:28Z</time></trkpt><trkpt lat="45.922293696990415" lon="10.299326936716845"><ele>703.0</ele><time>2026-04-25T13:09:29Z</time></trkpt><trkpt lat="45.922231391385296" lon="10.299419666772483"><ele>703.0</ele><time>2026-04-25T13:09:30Z</time></trkpt><trkpt lat="45.922164843648" lon="10.299475370781508"><ele>703.0</ele><time>2026-04-25T13:09:31Z</time></trkpt><trkpt lat="45.922046851845955" lon="10.299548870649271"><ele>703.0</ele><time>2026-04-25T13:09:33Z</time></trkpt><trkpt lat="45.92198584464486" lon="10.299623110433828"><ele>703.0</ele><time>2026-04-25T13:09:34Z</time></trkpt><trkpt lat="45.9219557859096" lon="10.299720147501906"><ele>703.0</ele><time>2026-04-25T13:09:35Z</time></trkpt><trkpt lat="45.92188686018739" lon="10.299850081742443"><ele>703.75</ele><time>2026-04-25T13:09:36Z</time></trkpt><trkpt lat="45.92180462929011" lon="10.29996278725453"><ele>704.5</ele><time>2026-04-25T13:09:37Z</time></trkpt><trkpt lat="45.92175265044333" lon="10.300167510196662"><ele>705.25</ele><time>2026-04-25T13:09:38Z</time></trkpt><trkpt lat="45.92173860720522" lon="10.300333845756995"><ele>706.0</ele><time>2026-04-25T13:09:39Z</time></trkpt><trkpt lat="45.92168202395271" lon="10.300425435496221"><ele>706.25</ele><time>2026-04-25T13:09:40Z</time></trkpt><trkpt lat="45.92158532075646" lon="10.300509887538478"><ele>706.5</ele><time>2026-04-25T13:09:41Z</time></trkpt><trkpt lat="45.92148125583122" lon="10.30059651765283"><ele>706.75</ele><time>2026-04-25T13:09:42Z</time></trkpt><trkpt lat="45.92137497331606" lon="10.300683170236336"><ele>707.0</ele><time>2026-04-25T13:09:43Z</time></trkpt><trkpt lat="45.921274654002296" lon="10.300779306698445"><ele>707.0</ele><time>2026-04-25T13:09:44Z</time></trkpt><trkpt lat="45.921174761490114" lon="10.300878471098276"><ele>707.0</ele><time>2026-04-25T13:09:45Z</time></trkpt><trkpt lat="45.92108418068076" lon="10.300982257512532"><ele>707.0</ele><time>2026-04-25T13:09:46Z</time></trkpt><trkpt lat="45.92100917751235" lon="10.301056097719435"><ele>707.0</ele><time>2026-04-25T13:09:47Z</time></trkpt><trkpt lat="45.92095252685609" lon="10.301117075336489"><ele>707.0</ele><time>2026-04-25T13:09:48Z</time></trkpt><trkpt lat="45.920864307189824" lon="10.301221047607493"><ele>708.1666666666666</ele><time>2026-04-25T13:09:50Z</time></trkpt><trkpt lat="45.92077720450001" lon="10.301325763067897"><ele>709.3333333333333</ele><time>2026-04-25T13:09:52Z</time></trkpt><trkpt lat="45.9207015363832" lon="10.301341888127652"><ele>710.5</ele><time>2026-04-25T13:09:53Z</time></trkpt><trkpt lat="45.92061916905123" lon="10.301367070827188"><ele>711.6666666666666</ele><time>2026-04-25T13:09:54Z</time></trkpt><trkpt lat="45.920553746691205" lon="10.301373276515367"><ele>712.8333333333334</ele><time>2026-04-25T13:09:55Z</time></trkpt><trkpt lat="45.92045007197171" lon="10.301394401246366"><ele>714.0</ele><time>2026-04-25T13:09:57Z</time></trkpt><trkpt lat="45.920374110542305" lon="10.301435555972335"><ele>714.0</ele><time>2026-04-25T13:09:59Z</time></trkpt><trkpt lat="45.920304040095026" lon="10.301421264464688"><ele>714.0</ele><time>2026-04-25T13:10:01Z</time></trkpt><trkpt lat="45.92021441499531" lon="10.301431059860704"><ele>714.0</ele><time>2026-04-25T13:10:04Z</time></trkpt><trkpt lat="45.92014095051431" lon="10.301414326594426"><ele>714.0</ele><time>2026-04-25T13:10:10Z</time></trkpt><trkpt lat="45.92007783191966" lon="10.301408578354465"><ele>714.0</ele><time>2026-04-25T13:10:11Z</time></trkpt><trkpt lat="45.91998208582697" lon="10.301422909194834"><ele>714.0</ele><time>2026-04-25T13:10:12Z</time></trkpt><trkpt lat="45.91986295011332" lon="10.301436925580017"><ele>718.5</ele><time>2026-04-25T13:10:13Z</time></trkpt><trkpt lat="45.91976025093964" lon="10.301460747515193"><ele>723.0</ele><time>2026-04-25T13:10:14Z</time></trkpt><trkpt lat="45.91966959866982" lon="10.301461893870696"><ele>727.5</ele><time>2026-04-25T13:10:15Z</time></trkpt><trkpt lat="45.91959998605282" lon="10.30144702051307"><ele>732.0</ele><time>2026-04-25T13:10:16Z</time></trkpt><trkpt lat="45.91949604769578" lon="10.301410242632317"><ele>736.5</ele><time>2026-04-25T13:10:18Z</time></trkpt><trkpt lat="45.91943525948095" lon="10.301373157922963"><ele>741.0</ele><time>2026-04-25T13:10:19Z</time></trkpt><trkpt lat="45.91934058558462" lon="10.301375032933604"><ele>742.8</ele><time>2026-04-25T13:10:20Z</time></trkpt><trkpt lat="45.91926787117533" lon="10.301395144413952"><ele>744.5999999999999</ele><time>2026-04-25T13:10:21Z</time></trkpt><trkpt lat="45.91921122199014" lon="10.301435861793792"><ele>746.4</ele><time>2026-04-25T13:10:22Z</time></trkpt><trkpt lat="45.91912051746504" lon="10.301552505829598"><ele>748.2</ele><time>2026-04-25T13:10:24Z</time></trkpt><trkpt lat="45.919030695146176" lon="10.301638376644114"><ele>750.0</ele><time>2026-04-25T13:10:26Z</time></trkpt><trkpt lat="45.91894986409839" lon="10.301598081914037"><ele>753.4</ele><time>2026-04-25T13:10:29Z</time></trkpt><trkpt lat="45.91886078769212" lon="10.301598462491665"><ele>756.8</ele><time>2026-04-25T13:10:32Z</time></trkpt><trkpt lat="45.918794403400156" lon="10.301619524931445"><ele>760.2</ele><time>2026-04-25T13:10:34Z</time></trkpt><trkpt lat="45.918697503399066" lon="10.30160626757808"><ele>763.6</ele><time>2026-04-25T13:10:37Z</time></trkpt><trkpt lat="45.91863045792646" lon="10.301613408261774"><ele>767.0</ele><time>2026-04-25T13:10:39Z</time></trkpt><trkpt lat="45.91831411151901" lon="10.301542003426118"><ele>771.8</ele><time>2026-04-25T13:10:41Z</time></trkpt><trkpt lat="45.91819244005729" lon="10.301500851274586"><ele>776.6</ele><time>2026-04-25T13:10:43Z</time></trkpt><trkpt lat="45.91810178632754" lon="10.30146211758118"><ele>781.4</ele><time>2026-04-25T13:10:45Z</time></trkpt><trkpt lat="45.918025605781544" lon="10.301425055845366"><ele>786.1999999999999</ele><time>2026-04-25T13:10:48Z</time></trkpt><trkpt lat="45.91794888192828" lon="10.301394006495793"><ele>791.0</ele><time>2026-04-25T13:10:52Z</time></trkpt><trkpt lat="45.91786230545632" lon="10.301353087977986"><ele>792.8571428571429</ele><time>2026-04-25T13:10:54Z</time></trkpt><trkpt lat="45.91780429683096" lon="10.301307021207217"><ele>794.7142857142858</ele><time>2026-04-25T13:10:57Z</time></trkpt><trkpt lat="45.91772596556613" lon="10.301312657364807"><ele>796.5714285714286</ele><time>2026-04-25T13:11:00Z</time></trkpt><trkpt lat="45.9176421699592" lon="10.301261478840695"><ele>798.4285714285714</ele><time>2026-04-25T13:11:02Z</time></trkpt><trkpt lat="45.91757229185663" lon="10.301245485383488"><ele>800.2857142857143</ele><time>2026-04-25T13:11:04Z</time></trkpt><trkpt lat="45.9175035101724" lon="10.301203537108385"><ele>802.1428571428571</ele><time>2026-04-25T13:11:07Z</time></trkpt><trkpt lat="45.91744625908241" lon="10.301153758475985"><ele>804.0</ele><time>2026-04-25T13:11:21.001Z</time></trkpt><trkpt lat="45.91736542834231" lon="10.301177767947843"><ele>804.0</ele><time>2026-04-25T13:12:12Z</time></trkpt><trkpt lat="45.91728977738958" lon="10.301158248089292"><ele>804.0</ele><time>2026-04-25T13:12:49Z</time></trkpt><trkpt lat="45.917375722512205" lon="10.301165638065179"><ele>804.0</ele><time>2026-04-25T13:12:53Z</time></trkpt><trkpt lat="45.91747101663086" lon="10.30115205758033"><ele>804.0</ele><time>2026-04-25T13:12:54Z</time></trkpt><trkpt lat="45.917582681112776" lon="10.301189210058594"><ele>804.0</ele><time>2026-04-25T13:12:55Z</time></trkpt><trkpt lat="45.91768770126902" lon="10.301219395405766"><ele>804.0</ele><time>2026-04-25T13:12:56Z</time></trkpt><trkpt lat="45.91778131921402" lon="10.301202752251532"><ele>804.0</ele><time>2026-04-25T13:12:57Z</time></trkpt><trkpt lat="45.91784410970598" lon="10.301179963804689"><ele>804.0</ele><time>2026-04-25T13:12:58Z</time></trkpt><trkpt lat="45.91791981102418" lon="10.301055921253827"><ele>804.0</ele><time>2026-04-25T13:12:59Z</time></trkpt><trkpt lat="45.91799282589563" lon="10.300948092603848"><ele>804.0</ele><time>2026-04-25T13:13:00Z</time></trkpt><trkpt lat="45.918075624175195" lon="10.300911643234526"><ele>804.0</ele><time>2026-04-25T13:13:01Z</time></trkpt><trkpt lat="45.918183852535975" lon="10.300836704461405"><ele>804.0</ele><time>2026-04-25T13:13:02Z</time></trkpt><trkpt lat="45.918300418391254" lon="10.300742321868526"><ele>804.0</ele><time>2026-04-25T13:13:03Z</time></trkpt><trkpt lat="45.918410396099034" lon="10.300628954784854"><ele>804.0</ele><time>2026-04-25T13:13:04Z</time></trkpt><trkpt lat="45.918502986090566" lon="10.30049184778298"><ele>800.8000000000001</ele><time>2026-04-25T13:13:05Z</time></trkpt><trkpt lat="45.91859419238413" lon="10.300375983575794"><ele>797.6</ele><time>2026-04-25T13:13:06Z</time></trkpt><trkpt lat="45.91867166912382" lon="10.300268640545582"><ele>794.4</ele><time>2026-04-25T13:13:07Z</time></trkpt><trkpt lat="45.91874177073647" lon="10.30016796316936"><ele>791.2</ele><time>2026-04-25T13:13:08Z</time></trkpt><trkpt lat="45.91885229708349" lon="10.300130655289129"><ele>788.0</ele><time>2026-04-25T13:13:09Z</time></trkpt><trkpt lat="45.91894728576592" lon="10.300033980997503"><ele>788.0</ele><time>2026-04-25T13:13:10Z</time></trkpt><trkpt lat="45.91902009377164" lon="10.299907473455526"><ele>788.0</ele><time>2026-04-25T13:13:11Z</time></trkpt><trkpt lat="45.91908722102041" lon="10.29975357392326"><ele>788.0</ele><time>2026-04-25T13:13:12Z</time></trkpt><trkpt lat="45.91917009376862" lon="10.299575378647289"><ele>788.0</ele><time>2026-04-25T13:13:13Z</time></trkpt><trkpt lat="45.91925330467915" lon="10.29944372307795"><ele>784.5</ele><time>2026-04-25T13:13:14Z</time></trkpt><trkpt lat="45.919326601002645" lon="10.299302775018752"><ele>781.0</ele><time>2026-04-25T13:13:15Z</time></trkpt><trkpt lat="45.9193930437141" lon="10.299103833875588"><ele>777.5</ele><time>2026-04-25T13:13:16Z</time></trkpt><trkpt lat="45.91942808326738" lon="10.298908865527446"><ele>774.0</ele><time>2026-04-25T13:13:17Z</time></trkpt><trkpt lat="45.91947598049917" lon="10.298724690556316"><ele>774.0</ele><time>2026-04-25T13:13:18Z</time></trkpt><trkpt lat="45.91952848163322" lon="10.298539335654143"><ele>774.0</ele><time>2026-04-25T13:13:19Z</time></trkpt><trkpt lat="45.919576876509915" lon="10.298401627689781"><ele>774.0</ele><time>2026-04-25T13:13:20Z</time></trkpt><trkpt lat="45.91966292601405" lon="10.298323907724818"><ele>774.0</ele><time>2026-04-25T13:13:21Z</time></trkpt><trkpt lat="45.91976610426687" lon="10.29821311524336"><ele>774.0</ele><time>2026-04-25T13:13:22Z</time></trkpt><trkpt lat="45.91983212420201" lon="10.298110438392719"><ele>774.0</ele><time>2026-04-25T13:13:23Z</time></trkpt><trkpt lat="45.919844039373444" lon="10.297941951787571"><ele>774.0</ele><time>2026-04-25T13:13:25Z</time></trkpt><trkpt lat="45.91982479657088" lon="10.297763572159381"><ele>774.0</ele><time>2026-04-25T13:13:26Z</time></trkpt><trkpt lat="45.91979816850824" lon="10.297564839119389"><ele>774.4000000000001</ele><time>2026-04-25T13:13:27Z</time></trkpt><trkpt lat="45.919804840678054" lon="10.297414376483601"><ele>774.8</ele><time>2026-04-25T13:13:28Z</time></trkpt><trkpt lat="45.91978346393376" lon="10.297280734063758"><ele>775.2</ele><time>2026-04-25T13:13:29Z</time></trkpt><trkpt lat="45.919765734824466" lon="10.297152959154166"><ele>775.5999999999999</ele><time>2026-04-25T13:13:30Z</time></trkpt><trkpt lat="45.91977469678125" lon="10.297034719406296"><ele>776.0</ele><time>2026-04-25T13:13:31Z</time></trkpt><trkpt lat="45.919809300336645" lon="10.296918763355519"><ele>774.5999999999999</ele><time>2026-04-25T13:13:32Z</time></trkpt><trkpt lat="45.91986771979878" lon="10.29685761957754"><ele>773.2</ele><time>2026-04-25T13:13:33Z</time></trkpt><trkpt lat="45.91997670141001" lon="10.29684407194477"><ele>771.8</ele><time>2026-04-25T13:13:35Z</time></trkpt><trkpt lat="45.92004161549725" lon="10.297013845259135"><ele>770.4000000000001</ele><time>2026-04-25T13:13:36Z</time></trkpt><trkpt lat="45.92009912571584" lon="10.297067206171954"><ele>769.0</ele><time>2026-04-25T13:13:38Z</time></trkpt><trkpt lat="45.92028760354638" lon="10.297171202073633"><ele>764.5</ele><time>2026-04-25T13:13:39Z</time></trkpt><trkpt lat="45.92041698182561" lon="10.297244271063413"><ele>760.0</ele><time>2026-04-25T13:13:40Z</time></trkpt><trkpt lat="45.9205172239896" lon="10.297283913005689"><ele>755.5</ele><time>2026-04-25T13:13:41Z</time></trkpt><trkpt lat="45.92061967818325" lon="10.297327891875034"><ele>751.0</ele><time>2026-04-25T13:13:42Z</time></trkpt><trkpt lat="45.9207429104708" lon="10.297409548100704"><ele>748.25</ele><time>2026-04-25T13:13:43Z</time></trkpt><trkpt lat="45.92090921944697" lon="10.2973839359057"><ele>745.5</ele><time>2026-04-25T13:13:44Z</time></trkpt><trkpt lat="45.920985560840826" lon="10.297266263382179"><ele>742.75</ele><time>2026-04-25T13:13:45Z</time></trkpt><trkpt lat="45.92092224259604" lon="10.297112021903443"><ele>740.0</ele><time>2026-04-25T13:13:47Z</time></trkpt><trkpt lat="45.920873601720935" lon="10.296950466149987"><ele>737.2</ele><time>2026-04-25T13:13:49Z</time></trkpt><trkpt lat="45.92095494616918" lon="10.296791435651613"><ele>734.4</ele><time>2026-04-25T13:13:51Z</time></trkpt><trkpt lat="45.92100627770167" lon="10.2967222649966"><ele>731.5999999999999</ele><time>2026-04-25T13:13:52Z</time></trkpt><trkpt lat="45.92107241647469" lon="10.29662323029072"><ele>728.8</ele><time>2026-04-25T13:13:53Z</time></trkpt><trkpt lat="45.92115241060979" lon="10.296556549436566"><ele>726.0</ele><time>2026-04-25T13:13:54Z</time></trkpt><trkpt lat="45.921238244815136" lon="10.296508300016683"><ele>726.0</ele><time>2026-04-25T13:13:55Z</time></trkpt><trkpt lat="45.921338317021714" lon="10.29646240606547"><ele>726.0</ele><time>2026-04-25T13:13:56Z</time></trkpt><trkpt lat="45.92140972997613" lon="10.29644908547558"><ele>726.0</ele><time>2026-04-25T13:13:57Z</time></trkpt><trkpt lat="45.92150592130241" lon="10.29657165218609"><ele>726.0</ele><time>2026-04-25T13:13:59Z</time></trkpt><trkpt lat="45.92155289125402" lon="10.296650296340626"><ele>726.0</ele><time>2026-04-25T13:14:00Z</time></trkpt><trkpt lat="45.92166084975634" lon="10.29677856703282"><ele>726.0</ele><time>2026-04-25T13:14:01Z</time></trkpt><trkpt lat="45.921726799930234" lon="10.29695956714528"><ele>726.0</ele><time>2026-04-25T13:14:02Z</time></trkpt><trkpt lat="45.92177754236" lon="10.297112281382516"><ele>726.0</ele><time>2026-04-25T13:14:03Z</time></trkpt><trkpt lat="45.92183383048839" lon="10.297255342630391"><ele>726.0</ele><time>2026-04-25T13:14:04Z</time></trkpt><trkpt lat="45.92181673945061" lon="10.297347940451617"><ele>726.0</ele><time>2026-04-25T13:14:05Z</time></trkpt><trkpt lat="45.92178760602637" lon="10.297522705516949"><ele>716.6666666666666</ele><time>2026-04-25T13:14:06Z</time></trkpt><trkpt lat="45.92185003519252" lon="10.297823874815881"><ele>707.3333333333333</ele><time>2026-04-25T13:14:07Z</time></trkpt><trkpt lat="45.92193077318412" lon="10.298073712184285"><ele>698.0</ele><time>2026-04-25T13:14:08Z</time></trkpt><trkpt lat="45.922000595246196" lon="10.29812431490565"><ele>698.0</ele><time>2026-04-25T13:14:09Z</time></trkpt><trkpt lat="45.922071033342334" lon="10.298232095558436"><ele>698.0</ele><time>2026-04-25T13:14:11Z</time></trkpt><trkpt lat="45.92215604062292" lon="10.298154413613293"><ele>698.0</ele><time>2026-04-25T13:14:12Z</time></trkpt><trkpt lat="45.92222477523525" lon="10.298118005044381"><ele>698.0</ele><time>2026-04-25T13:14:13Z</time></trkpt><trkpt lat="45.922227346361346" lon="10.29787655685206"><ele>698.0</ele><time>2026-04-25T13:14:15Z</time></trkpt><trkpt lat="45.92231640836153" lon="10.29782194172161"><ele>697.5</ele><time>2026-04-25T13:14:16Z</time></trkpt><trkpt lat="45.92241365028486" lon="10.297719531684526"><ele>697.0</ele><time>2026-04-25T13:14:18Z</time></trkpt><trkpt lat="45.92246921941032" lon="10.297676488232831"><ele>696.5</ele><time>2026-04-25T13:14:20Z</time></trkpt><trkpt lat="45.922510141771625" lon="10.297570315240385"><ele>696.0</ele><time>2026-04-25T13:14:22Z</time></trkpt><trkpt lat="45.92255068512425" lon="10.297497273783463"><ele>695.5</ele><time>2026-04-25T13:14:24Z</time></trkpt><trkpt lat="45.92261383899032" lon="10.297366311236026"><ele>695.0</ele><time>2026-04-25T13:14:26Z</time></trkpt><trkpt lat="45.92275272355009" lon="10.297216937647168"><ele>689.1666666666666</ele><time>2026-04-25T13:14:27Z</time></trkpt><trkpt lat="45.92279866103418" lon="10.297143217382805"><ele>683.3333333333333</ele><time>2026-04-25T13:14:28Z</time></trkpt><trkpt lat="45.92286913579547" lon="10.29710297046269"><ele>677.5</ele><time>2026-04-25T13:14:29Z</time></trkpt><trkpt lat="45.92296458760549" lon="10.297008802459876"><ele>671.6666666666666</ele><time>2026-04-25T13:14:31Z</time></trkpt><trkpt lat="45.92302107529173" lon="10.296918156828568"><ele>665.8333333333334</ele><time>2026-04-25T13:14:32Z</time></trkpt><trkpt lat="45.92307324049624" lon="10.296827212132795"><ele>660.0</ele><time>2026-04-25T13:14:33Z</time></trkpt><trkpt lat="45.92312090067602" lon="10.29675174780729"><ele>660.0</ele><time>2026-04-25T13:14:34Z</time></trkpt><trkpt lat="45.92321385794752" lon="10.296614892798166"><ele>660.0</ele><time>2026-04-25T13:14:36Z</time></trkpt><trkpt lat="45.92324842626376" lon="10.296360441895311"><ele>660.0</ele><time>2026-04-25T13:14:38Z</time></trkpt><trkpt lat="45.92328059193261" lon="10.296278621837946"><ele>660.0</ele><time>2026-04-25T13:14:39Z</time></trkpt><trkpt lat="45.923295898759896" lon="10.296187399042559"><ele>660.0</ele><time>2026-04-25T13:14:40Z</time></trkpt><trkpt lat="45.923344278992886" lon="10.296045597939631"><ele>659.5</ele><time>2026-04-25T13:14:42Z</time></trkpt><trkpt lat="45.923395550455716" lon="10.295979873135584"><ele>659.0</ele><time>2026-04-25T13:14:43Z</time></trkpt><trkpt lat="45.923409534680964" lon="10.295889900870819"><ele>658.5</ele><time>2026-04-25T13:14:44Z</time></trkpt><trkpt lat="45.923416414073316" lon="10.295730405452167"><ele>658.0</ele><time>2026-04-25T13:14:46Z</time></trkpt><trkpt lat="45.92340489824636" lon="10.295626988005006"><ele>657.5</ele><time>2026-04-25T13:14:47Z</time></trkpt><trkpt lat="45.92339964581275" lon="10.295525069869546"><ele>657.0</ele><time>2026-04-25T13:14:48Z</time></trkpt><trkpt lat="45.92339979098189" lon="10.295340161998041"><ele>650.8333333333334</ele><time>2026-04-25T13:14:50Z</time></trkpt><trkpt lat="45.923438524103496" lon="10.295238722493215"><ele>644.6666666666666</ele><time>2026-04-25T13:14:51Z</time></trkpt><trkpt lat="45.92345823798222" lon="10.295147415110074"><ele>638.5</ele><time>2026-04-25T13:14:52Z</time></trkpt><trkpt lat="45.923471960409834" lon="10.295035382355477"><ele>632.3333333333333</ele><time>2026-04-25T13:14:53Z</time></trkpt><trkpt lat="45.92348367792751" lon="10.29489166969572"><ele>626.1666666666666</ele><time>2026-04-25T13:14:54Z</time></trkpt><trkpt lat="45.923492856616704" lon="10.294766364452062"><ele>620.0</ele><time>2026-04-25T13:14:55Z</time></trkpt><trkpt lat="45.92350107100991" lon="10.294648838170366"><ele>618.2</ele><time>2026-04-25T13:14:56Z</time></trkpt><trkpt lat="45.92351036941993" lon="10.294514327729054"><ele>616.4</ele><time>2026-04-25T13:14:57Z</time></trkpt><trkpt lat="45.92352189384907" lon="10.29434761593126"><ele>614.6</ele><time>2026-04-25T13:14:58Z</time></trkpt><trkpt lat="45.92353109903222" lon="10.294210197584663"><ele>612.8</ele><time>2026-04-25T13:14:59Z</time></trkpt><trkpt lat="45.92352149290493" lon="10.294054683318777"><ele>611.0</ele><time>2026-04-25T13:15:00Z</time></trkpt><trkpt lat="45.92353126086246" lon="10.29391238871419"><ele>609.6666666666666</ele><time>2026-04-25T13:15:01Z</time></trkpt><trkpt lat="45.92354823642196" lon="10.293775749360286"><ele>608.3333333333333</ele><time>2026-04-25T13:15:02Z</time></trkpt><trkpt lat="45.923554209116794" lon="10.29364934982967"><ele>607.0</ele><time>2026-04-25T13:15:03Z</time></trkpt><trkpt lat="45.923565758712996" lon="10.293530000535368"><ele>605.6666666666666</ele><time>2026-04-25T13:15:04Z</time></trkpt><trkpt lat="45.92359479863985" lon="10.293429440004779"><ele>604.3333333333334</ele><time>2026-04-25T13:15:05Z</time></trkpt><trkpt lat="45.92363752422618" lon="10.29332870024705"><ele>603.0</ele><time>2026-04-25T13:15:06Z</time></trkpt><trkpt lat="45.92368512497684" lon="10.293215286987937"><ele>603.0</ele><time>2026-04-25T13:15:07Z</time></trkpt><trkpt lat="45.9237284958344" lon="10.293109991962405"><ele>603.0</ele><time>2026-04-25T13:15:08Z</time></trkpt><trkpt lat="45.923768941565875" lon="10.293019587151754"><ele>603.0</ele><time>2026-04-25T13:15:09Z</time></trkpt><trkpt lat="45.92380976466238" lon="10.29290521991114"><ele>603.0</ele><time>2026-04-25T13:15:10Z</time></trkpt><trkpt lat="45.92383980247037" lon="10.292793391092463"><ele>603.0</ele><time>2026-04-25T13:15:11Z</time></trkpt><trkpt lat="45.923877957288965" lon="10.29267064239724"><ele>603.0</ele><time>2026-04-25T13:15:12Z</time></trkpt><trkpt lat="45.923894772603056" lon="10.29254831371291"><ele>600.8333333333334</ele><time>2026-04-25T13:15:13Z</time></trkpt><trkpt lat="45.923920602112375" lon="10.292432806053862"><ele>598.6666666666666</ele><time>2026-04-25T13:15:14Z</time></trkpt><trkpt lat="45.923962323216706" lon="10.292316899686645"><ele>596.5</ele><time>2026-04-25T13:15:15Z</time></trkpt><trkpt lat="45.92402783540995" lon="10.292253527602712"><ele>594.3333333333333</ele><time>2026-04-25T13:15:16Z</time></trkpt><trkpt lat="45.924080743702625" lon="10.292176691862721"><ele>592.1666666666666</ele><time>2026-04-25T13:15:17Z</time></trkpt><trkpt lat="45.924142731972005" lon="10.292126805724298"><ele>590.0</ele><time>2026-04-25T13:15:18Z</time></trkpt><trkpt lat="45.924205997048425" lon="10.292093277026444"><ele>583.8</ele><time>2026-04-25T13:15:19Z</time></trkpt><trkpt lat="45.924278913248" lon="10.292060896436986"><ele>577.6</ele><time>2026-04-25T13:15:20Z</time></trkpt><trkpt lat="45.92437159400998" lon="10.292054059468695"><ele>571.4</ele><time>2026-04-25T13:15:22Z</time></trkpt><trkpt lat="45.92440853491302" lon="10.292189884414434"><ele>565.2</ele><time>2026-04-25T13:15:24Z</time></trkpt><trkpt lat="45.92446688669647" lon="10.292287199702171"><ele>559.0</ele><time>2026-04-25T13:15:26Z</time></trkpt><trkpt lat="45.92451663164531" lon="10.29241985889821"><ele>559.0</ele><time>2026-04-25T13:15:28Z</time></trkpt><trkpt lat="45.92455898958691" lon="10.292574108924851"><ele>559.0</ele><time>2026-04-25T13:15:30Z</time></trkpt><trkpt lat="45.924573563343834" lon="10.292723041335128"><ele>559.0</ele><time>2026-04-25T13:15:32Z</time></trkpt><trkpt lat="45.92459363515132" lon="10.292861214908775"><ele>559.0</ele><time>2026-04-25T13:15:34Z</time></trkpt><trkpt lat="45.924614397267504" lon="10.292986148645861"><ele>559.0</ele><time>2026-04-25T13:15:36Z</time></trkpt><trkpt lat="45.92466799287652" lon="10.293045334704653"><ele>559.0</ele><time>2026-04-25T13:15:38Z</time></trkpt><trkpt lat="45.92475093294691" lon="10.293087730837904"><ele>559.0</ele><time>2026-04-25T13:15:40Z</time></trkpt><trkpt lat="45.92480429639583" lon="10.293208884081888"><ele>559.0</ele><time>2026-04-25T13:15:43Z</time></trkpt><trkpt lat="45.92472193445981" lon="10.29338566134328"><ele>559.0</ele><time>2026-04-25T13:15:44Z</time></trkpt><trkpt lat="45.92482768397696" lon="10.293524970005924"><ele>561.6666666666667</ele><time>2026-04-25T13:15:45Z</time></trkpt><trkpt lat="45.924884156605955" lon="10.29366586131642"><ele>564.3333333333334</ele><time>2026-04-25T13:15:46Z</time></trkpt><trkpt lat="45.92500646186006" lon="10.29369038731284"><ele>567.0</ele><time>2026-04-25T13:15:47Z</time></trkpt><trkpt lat="45.924778977199516" lon="10.294090224820621"><ele>569.0</ele><time>2026-04-25T13:15:48Z</time></trkpt><trkpt lat="45.92476875237893" lon="10.29421699936844"><ele>571.0</ele><time>2026-04-25T13:15:49Z</time></trkpt><trkpt lat="45.92474988003432" lon="10.294307809945135"><ele>573.0</ele><time>2026-04-25T13:15:50Z</time></trkpt><trkpt lat="45.924748445195895" lon="10.294419845598709"><ele>575.0</ele><time>2026-04-25T13:15:51Z</time></trkpt><trkpt lat="45.92470416297828" lon="10.294504525802495"><ele>577.0</ele><time>2026-04-25T13:15:52Z</time></trkpt><trkpt lat="45.92471123763077" lon="10.294621390957497"><ele>579.0</ele><time>2026-04-25T13:15:54Z</time></trkpt><trkpt lat="45.92469293876941" lon="10.29474508481661"><ele>582.0</ele><time>2026-04-25T13:15:56Z</time></trkpt><trkpt lat="45.924664884096025" lon="10.29483897344526"><ele>585.0</ele><time>2026-04-25T13:15:57Z</time></trkpt><trkpt lat="45.92465507790267" lon="10.294997176080518"><ele>588.0</ele><time>2026-04-25T13:15:58Z</time></trkpt><trkpt lat="45.92463201324102" lon="10.295125989803754"><ele>591.0</ele><time>2026-04-25T13:15:59Z</time></trkpt><trkpt lat="45.9248059098299" lon="10.295182605642642"><ele>591.0</ele><time>2026-04-25T13:16:09Z</time></trkpt><trkpt lat="45.92491105369219" lon="10.295249534038403"><ele>591.0</ele><time>2026-04-25T13:16:16Z</time></trkpt><trkpt lat="45.92497459078574" lon="10.295233286142128"><ele>591.0</ele><time>2026-04-25T13:16:20Z</time></trkpt><trkpt lat="45.9250422403538" lon="10.295225791058504"><ele>591.0</ele><time>2026-04-25T13:16:24Z</time></trkpt><trkpt lat="45.9251520336726" lon="10.295218789641208"><ele>591.0</ele><time>2026-04-25T13:16:32Z</time></trkpt><trkpt lat="45.925223761904306" lon="10.295183805184047"><ele>591.0</ele><time>2026-04-25T13:16:37Z</time></trkpt><trkpt lat="45.92531026763062" lon="10.295152770779083"><ele>587.8333333333334</ele><time>2026-04-25T13:16:39Z</time></trkpt><trkpt lat="45.925369655691284" lon="10.295121318656706"><ele>584.6666666666666</ele><time>2026-04-25T13:16:40Z</time></trkpt><trkpt lat="45.9254433762788" lon="10.295006808270404"><ele>581.5</ele><time>2026-04-25T13:16:42Z</time></trkpt><trkpt lat="45.925529258409846" lon="10.294974929573556"><ele>578.3333333333333</ele><time>2026-04-25T13:16:44Z</time></trkpt><trkpt lat="45.92559837091435" lon="10.294937037799425"><ele>575.1666666666666</ele><time>2026-04-25T13:16:47Z</time></trkpt><trkpt lat="45.92566364762647" lon="10.294903721591236"><ele>572.0</ele><time>2026-04-25T13:16:49Z</time></trkpt><trkpt lat="45.92576521715969" lon="10.294909119715332"><ele>572.0</ele><time>2026-04-25T13:16:51Z</time></trkpt><trkpt lat="45.925842041961836" lon="10.294912074692178"><ele>572.0</ele><time>2026-04-25T13:16:52Z</time></trkpt><trkpt lat="45.92590350200541" lon="10.294945627478999"><ele>572.0</ele><time>2026-04-25T13:16:53Z</time></trkpt><trkpt lat="45.92596852914911" lon="10.295016937394532"><ele>572.0</ele><time>2026-04-25T13:16:54Z</time></trkpt><trkpt lat="45.92612942171974" lon="10.295093890745319"><ele>572.0</ele><time>2026-04-25T13:16:56Z</time></trkpt><trkpt lat="45.92621667725246" lon="10.295099072545181"><ele>566.3333333333333</ele><time>2026-04-25T13:16:57Z</time></trkpt><trkpt lat="45.926300931710486" lon="10.295102962457031"><ele>560.6666666666666</ele><time>2026-04-25T13:16:58Z</time></trkpt><trkpt lat="45.92636548239002" lon="10.295127996709546"><ele>555.0</ele><time>2026-04-25T13:16:59Z</time></trkpt><trkpt lat="45.92644334345855" lon="10.295166129038924"><ele>549.3333333333334</ele><time>2026-04-25T13:17:00Z</time></trkpt><trkpt lat="45.92651113465172" lon="10.295191725769389"><ele>543.6666666666667</ele><time>2026-04-25T13:17:01Z</time></trkpt><trkpt lat="45.9266205290023" lon="10.295213347843216"><ele>538.0</ele><time>2026-04-25T13:17:03Z</time></trkpt><trkpt lat="45.926728543791825" lon="10.295320469624361"><ele>533.3333333333334</ele><time>2026-04-25T13:17:05Z</time></trkpt><trkpt lat="45.92679072290648" lon="10.295401319439168"><ele>528.6666666666667</ele><time>2026-04-25T13:17:06Z</time></trkpt><trkpt lat="45.926850093001896" lon="10.295506320193049"><ele>524.0</ele><time>2026-04-25T13:17:08Z</time></trkpt><trkpt lat="45.926943840830255" lon="10.295542561075981"><ele>519.3333333333334</ele><time>2026-04-25T13:17:10Z</time></trkpt><trkpt lat="45.92701927350655" lon="10.29557669028652"><ele>514.6666666666666</ele><time>2026-04-25T13:18:10Z</time></trkpt><trkpt lat="45.927068691304335" lon="10.295644705319505"><ele>510.0</ele><time>2026-04-25T13:18:25Z</time></trkpt><trkpt lat="45.92701050457033" lon="10.29550599184094"><ele>508.3333333333333</ele><time>2026-04-25T13:18:43Z</time></trkpt><trkpt lat="45.92695628489235" lon="10.29544262860683"><ele>506.66666666666663</ele><time>2026-04-25T13:18:44Z</time></trkpt><trkpt lat="45.92689624980713" lon="10.295379928052895"><ele>505.0</ele><time>2026-04-25T13:18:45Z</time></trkpt><trkpt lat="45.92683242226677" lon="10.295265104879661"><ele>503.3333333333333</ele><time>2026-04-25T13:18:47Z</time></trkpt><trkpt lat="45.926775660551144" lon="10.295172472874718"><ele>501.66666666666663</ele><time>2026-04-25T13:18:50Z</time></trkpt><trkpt lat="45.92672017766552" lon="10.295127715269317"><ele>500.0</ele><time>2026-04-25T13:19:03Z</time></trkpt><trkpt lat="45.92668187463337" lon="10.295055352474533"><ele>502.57142857142856</ele><time>2026-04-25T13:19:07Z</time></trkpt><trkpt lat="45.92666389495502" lon="10.294946338696679"><ele>505.14285714285717</ele><time>2026-04-25T13:19:11Z</time></trkpt><trkpt lat="45.92666612168637" lon="10.294845318014627"><ele>507.7142857142857</ele><time>2026-04-25T13:19:14Z</time></trkpt><trkpt lat="45.926657847358484" lon="10.29474996839547"><ele>510.2857142857143</ele><time>2026-04-25T13:19:17Z</time></trkpt><trkpt lat="45.926687089499104" lon="10.294665712810183"><ele>512.8571428571429</ele><time>2026-04-25T13:19:21Z</time></trkpt><trkpt lat="45.92669019037495" lon="10.294557428676642"><ele>515.4285714285714</ele><time>2026-04-25T13:19:25Z</time></trkpt><trkpt lat="45.92669630029" lon="10.294438955577508"><ele>518.0</ele><time>2026-04-25T13:19:29Z</time></trkpt><trkpt lat="45.926630947758674" lon="10.29439978464315"><ele>518.0</ele><time>2026-04-25T13:19:32Z</time></trkpt><trkpt lat="45.926632048826264" lon="10.294292150604154"><ele>518.0</ele><time>2026-04-25T13:19:38Z</time></trkpt><trkpt lat="45.92662320207632" lon="10.294569535121473"><ele>518.0</ele><time>2026-04-25T13:19:51Z</time></trkpt><trkpt lat="45.926617133807646" lon="10.294670349093105"><ele>518.0</ele><time>2026-04-25T13:19:55Z</time></trkpt><trkpt lat="45.92666824642217" lon="10.294592147089052"><ele>518.0</ele><time>2026-04-25T13:20:19Z</time></trkpt><trkpt lat="45.92668693087149" lon="10.294503210635064"><ele>518.0</ele><time>2026-04-25T13:20:21Z</time></trkpt><trkpt lat="45.926708982691565" lon="10.294360379201422"><ele>518.0</ele><time>2026-04-25T13:20:25Z</time></trkpt><trkpt lat="45.92678065201161" lon="10.294305280577111"><ele>518.0</ele><time>2026-04-25T13:20:28Z</time></trkpt><trkpt lat="45.92685258576981" lon="10.294321772606349"><ele>518.0</ele><time>2026-04-25T13:20:30Z</time></trkpt><trkpt lat="45.92677627943509" lon="10.294343718943354"><ele>518.0</ele><time>2026-04-25T13:20:38Z</time></trkpt><trkpt lat="45.92670576205282" lon="10.294302908056183"><ele>518.0</ele><time>2026-04-25T13:22:48Z</time></trkpt><trkpt lat="45.92678685924144" lon="10.294326970183645"><ele>512.4</ele><time>2026-04-25T13:22:57Z</time></trkpt><trkpt lat="45.92686760294335" lon="10.294429486690559"><ele>506.79999999999995</ele><time>2026-04-25T13:22:59Z</time></trkpt><trkpt lat="45.92692223193048" lon="10.294493015834702"><ele>501.2</ele><time>2026-04-25T13:23:00Z</time></trkpt><trkpt lat="45.92698710527817" lon="10.294572508471175"><ele>495.6</ele><time>2026-04-25T13:23:01Z</time></trkpt><trkpt lat="45.9270739901677" lon="10.294677678762913"><ele>490.0</ele><time>2026-04-25T13:23:03Z</time></trkpt><trkpt lat="45.92712554432045" lon="10.29475156460087"><ele>491.6666666666667</ele><time>2026-04-25T13:23:04Z</time></trkpt><trkpt lat="45.92717064973655" lon="10.294833263943051"><ele>493.33333333333337</ele><time>2026-04-25T13:23:05Z</time></trkpt><trkpt lat="45.927219417016225" lon="10.29491613775494"><ele>495.0</ele><time>2026-04-25T13:23:06Z</time></trkpt><trkpt lat="45.927275655926834" lon="10.29501682726304"><ele>496.66666666666663</ele><time>2026-04-25T13:23:07Z</time></trkpt><trkpt lat="45.92732576779849" lon="10.295147106478812"><ele>498.3333333333333</ele><time>2026-04-25T13:23:08Z</time></trkpt><trkpt lat="45.92738573757004" lon="10.295242836352896"><ele>500.0</ele><time>2026-04-25T13:23:09Z</time></trkpt><trkpt lat="45.92741747037362" lon="10.295342719315286"><ele>499.99999999999994</ele><time>2026-04-25T13:23:10Z</time></trkpt><trkpt lat="45.92746818993337" lon="10.295462154642786"><ele>500.0</ele><time>2026-04-25T13:23:11Z</time></trkpt><trkpt lat="45.92751493998406" lon="10.29558385705153"><ele>500.0</ele><time>2026-04-25T13:23:12Z</time></trkpt><trkpt lat="45.927540007035425" lon="10.295710533024383"><ele>500.0</ele><time>2026-04-25T13:23:13Z</time></trkpt><trkpt lat="45.92754206570231" lon="10.295818983623445"><ele>499.99999999999994</ele><time>2026-04-25T13:23:14Z</time></trkpt><trkpt lat="45.9275583925372" lon="10.29590643389015"><ele>500.0</ele><time>2026-04-25T13:23:15Z</time></trkpt><trkpt lat="45.92762015717569" lon="10.295976230736738"><ele>499.8</ele><time>2026-04-25T13:23:17Z</time></trkpt><trkpt lat="45.92773211675766" lon="10.295945271005788"><ele>499.6</ele><time>2026-04-25T13:23:19Z</time></trkpt><trkpt lat="45.9278256217441" lon="10.295854777270035"><ele>499.4</ele><time>2026-04-25T13:23:20Z</time></trkpt><trkpt lat="45.927916121686174" lon="10.295771823806447"><ele>499.2</ele><time>2026-04-25T13:23:21Z</time></trkpt><trkpt lat="45.927988243869294" lon="10.29570632917207"><ele>499.0</ele><time>2026-04-25T13:23:22Z</time></trkpt><trkpt lat="45.92805976000126" lon="10.295648578091313"><ele>499.00000000000006</ele><time>2026-04-25T13:23:23Z</time></trkpt><trkpt lat="45.92812902689896" lon="10.295639552320877"><ele>499.0</ele><time>2026-04-25T13:23:24Z</time></trkpt><trkpt lat="45.928206906246515" lon="10.295598094092679"><ele>499.0</ele><time>2026-04-25T13:23:25Z</time></trkpt><trkpt lat="45.92828422102768" lon="10.295524728357583"><ele>499.0</ele><time>2026-04-25T13:23:26Z</time></trkpt><trkpt lat="45.928351127704076" lon="10.295474689400296"><ele>499.00000000000006</ele><time>2026-04-25T13:23:27Z</time></trkpt><trkpt lat="45.928430249325615" lon="10.295397479503082"><ele>499.0</ele><time>2026-04-25T13:23:28Z</time></trkpt><trkpt lat="45.92849476799417" lon="10.295363044744546"><ele>497.79999999999995</ele><time>2026-04-25T13:23:29Z</time></trkpt><trkpt lat="45.928592179908115" lon="10.295313153681123"><ele>496.59999999999997</ele><time>2026-04-25T13:23:30Z</time></trkpt><trkpt lat="45.9286566367639" lon="10.295219836967666"><ele>495.4</ele><time>2026-04-25T13:23:31Z</time></trkpt><trkpt lat="45.928777802533865" lon="10.295203602710455"><ele>494.2</ele><time>2026-04-25T13:23:33Z</time></trkpt><trkpt lat="45.928858526954244" lon="10.295176628710559"><ele>493.0</ele><time>2026-04-25T13:23:34Z</time></trkpt><trkpt lat="45.92893862287148" lon="10.295152599610999"><ele>493.00000000000006</ele><time>2026-04-25T13:23:35Z</time></trkpt><trkpt lat="45.92902729350164" lon="10.295137138180383"><ele>493.0</ele><time>2026-04-25T13:23:36Z</time></trkpt><trkpt lat="45.92911417624514" lon="10.295084219402584"><ele>493.0</ele><time>2026-04-25T13:23:37Z</time></trkpt><trkpt lat="45.92920190317629" lon="10.295053081124689"><ele>493.0</ele><time>2026-04-25T13:23:38Z</time></trkpt><trkpt lat="45.92928471997556" lon="10.295021755303676"><ele>493.00000000000006</ele><time>2026-04-25T13:23:39Z</time></trkpt><trkpt lat="45.9293597258133" lon="10.29498346058881"><ele>493.0</ele><time>2026-04-25T13:23:40Z</time></trkpt><trkpt lat="45.92943330189364" lon="10.294931430925132"><ele>492.6666666666667</ele><time>2026-04-25T13:23:41Z</time></trkpt><trkpt lat="45.929508298230644" lon="10.294902008783826"><ele>492.33333333333337</ele><time>2026-04-25T13:23:42Z</time></trkpt><trkpt lat="45.92958029269346" lon="10.294850020476874"><ele>492.0</ele><time>2026-04-25T13:23:43Z</time></trkpt><trkpt lat="45.929651189987034" lon="10.294806668012068"><ele>491.66666666666663</ele><time>2026-04-25T13:23:44Z</time></trkpt><trkpt lat="45.9297248438904" lon="10.29476877111578"><ele>491.3333333333333</ele><time>2026-04-25T13:23:45Z</time></trkpt><trkpt lat="45.92978126075898" lon="10.29471833361401"><ele>491.0</ele><time>2026-04-25T13:23:46Z</time></trkpt><trkpt lat="45.92990715052194" lon="10.294732936287414"><ele>490.6</ele><time>2026-04-25T13:23:48Z</time></trkpt><trkpt lat="45.930009744422684" lon="10.294747890992829"><ele>490.20000000000005</ele><time>2026-04-25T13:23:50Z</time></trkpt><trkpt lat="45.93011218864706" lon="10.294773339146085"><ele>489.79999999999995</ele><time>2026-04-25T13:23:52Z</time></trkpt><trkpt lat="45.93022518111108" lon="10.294679793430562"><ele>489.4</ele><time>2026-04-25T13:23:54Z</time></trkpt><trkpt lat="45.930306342933825" lon="10.294650687719578"><ele>489.0</ele><time>2026-04-25T13:23:55Z</time></trkpt><trkpt lat="45.93038866671307" lon="10.294580386712893"><ele>489.0</ele><time>2026-04-25T13:23:56Z</time></trkpt><trkpt lat="45.93048758562711" lon="10.294524285179689"><ele>489.0</ele><time>2026-04-25T13:23:57Z</time></trkpt><trkpt lat="45.93059287344333" lon="10.294464453004398"><ele>489.0</ele><time>2026-04-25T13:23:58Z</time></trkpt><trkpt lat="45.930703780164585" lon="10.294400528634462"><ele>489.0</ele><time>2026-04-25T13:23:59Z</time></trkpt><trkpt lat="45.930816724806704" lon="10.294323814749504"><ele>486.5</ele><time>2026-04-25T13:24:00Z</time></trkpt><trkpt lat="45.930925358711605" lon="10.294240761430434"><ele>484.0</ele><time>2026-04-25T13:24:01Z</time></trkpt><trkpt lat="45.93103235808226" lon="10.294165410060963"><ele>481.5</ele><time>2026-04-25T13:24:02Z</time></trkpt><trkpt lat="45.931142968943725" lon="10.294097392571755"><ele>479.0</ele><time>2026-04-25T13:24:03Z</time></trkpt><trkpt lat="45.93124983096985" lon="10.294033436482367"><ele>479.0</ele><time>2026-04-25T13:24:04Z</time></trkpt><trkpt lat="45.93134768437144" lon="10.293980033516055"><ele>479.0</ele><time>2026-04-25T13:24:05Z</time></trkpt><trkpt lat="45.93143782518563" lon="10.293939143553818"><ele>479.0</ele><time>2026-04-25T13:24:06Z</time></trkpt><trkpt lat="45.93152211240196" lon="10.293921109532926"><ele>479.0</ele><time>2026-04-25T13:24:07Z</time></trkpt><trkpt lat="45.93160667113971" lon="10.293898639857835"><ele>479.0</ele><time>2026-04-25T13:24:08Z</time></trkpt><trkpt lat="45.93167762877694" lon="10.2938237889916"><ele>472.79999999999995</ele><time>2026-04-25T13:24:09Z</time></trkpt><trkpt lat="45.93174355929033" lon="10.293737466224128"><ele>466.59999999999997</ele><time>2026-04-25T13:24:10Z</time></trkpt><trkpt lat="45.9318144747689" lon="10.29368287262125"><ele>460.4</ele><time>2026-04-25T13:24:11Z</time></trkpt><trkpt lat="45.931879627227076" lon="10.293700954615057"><ele>454.2</ele><time>2026-04-25T13:24:12Z</time></trkpt><trkpt lat="45.93193765670102" lon="10.293779134084792"><ele>448.0</ele><time>2026-04-25T13:24:13Z</time></trkpt><trkpt lat="45.93194450909256" lon="10.293982808763063"><ele>448.0</ele><time>2026-04-25T13:24:14Z</time></trkpt><trkpt lat="45.93195483481227" lon="10.294177284846473"><ele>448.0</ele><time>2026-04-25T13:24:15Z</time></trkpt><trkpt lat="45.931930919302516" lon="10.294341542862002"><ele>448.0</ele><time>2026-04-25T13:24:16Z</time></trkpt><trkpt lat="45.93192307575853" lon="10.294484364953728"><ele>448.0</ele><time>2026-04-25T13:24:17Z</time></trkpt><trkpt lat="45.931926588083705" lon="10.294635103116118"><ele>448.79999999999995</ele><time>2026-04-25T13:24:18Z</time></trkpt><trkpt lat="45.93196384778685" lon="10.294776286415539"><ele>449.59999999999997</ele><time>2026-04-25T13:24:19Z</time></trkpt><trkpt lat="45.93203565142261" lon="10.294872790010777"><ele>450.40000000000003</ele><time>2026-04-25T13:24:20Z</time></trkpt><trkpt lat="45.932086426831475" lon="10.294965498840806"><ele>451.20000000000005</ele><time>2026-04-25T13:24:21Z</time></trkpt><trkpt lat="45.93212045556984" lon="10.295096984801358"><ele>452.0</ele><time>2026-04-25T13:24:22Z</time></trkpt><trkpt lat="45.93205917257949" lon="10.295231154907896"><ele>452.0</ele><time>2026-04-25T13:24:23Z</time></trkpt><trkpt lat="45.932056621884016" lon="10.29536840436577"><ele>452.00000000000006</ele><time>2026-04-25T13:24:24Z</time></trkpt><trkpt lat="45.932075165016286" lon="10.295510791504707"><ele>452.00000000000006</ele><time>2026-04-25T13:24:25Z</time></trkpt><trkpt lat="45.93208440777209" lon="10.295648029033526"><ele>452.0</ele><time>2026-04-25T13:24:26Z</time></trkpt><trkpt lat="45.93208260819689" lon="10.29578249426786"><ele>452.0</ele><time>2026-04-25T13:24:27Z</time></trkpt><trkpt lat="45.932137489290476" lon="10.295912226755537"><ele>451.99999999999994</ele><time>2026-04-25T13:24:28Z</time></trkpt><trkpt lat="45.932195897538875" lon="10.296048941876608"><ele>452.0</ele><time>2026-04-25T13:24:29Z</time></trkpt><trkpt lat="45.93225502098423" lon="10.296159628872413"><ele>452.0</ele><time>2026-04-25T13:24:30Z</time></trkpt><trkpt lat="45.932303391906274" lon="10.296256571100141"><ele>452.0</ele><time>2026-04-25T13:24:31Z</time></trkpt><trkpt lat="45.932351952380614" lon="10.296327515499687"><ele>451.99999999999994</ele><time>2026-04-25T13:24:32Z</time></trkpt><trkpt lat="45.93239783327234" lon="10.296402290807531"><ele>452.0</ele><time>2026-04-25T13:24:33Z</time></trkpt><trkpt lat="45.93244908624314" lon="10.296457142402813"><ele>453.40000000000003</ele><time>2026-04-25T13:24:34Z</time></trkpt><trkpt lat="45.93243031908727" lon="10.296582634374978"><ele>454.80000000000007</ele><time>2026-04-25T13:24:35Z</time></trkpt><trkpt lat="45.93241071530945" lon="10.296694557857188"><ele>456.2</ele><time>2026-04-25T13:24:36Z</time></trkpt><trkpt lat="45.93232936356381" lon="10.296835739440452"><ele>457.6</ele><time>2026-04-25T13:24:37Z</time></trkpt><trkpt lat="45.93225924032997" lon="10.296970198061713"><ele>459.0</ele><time>2026-04-25T13:24:38Z</time></trkpt><trkpt lat="45.9322208493816" lon="10.297076428305934"><ele>459.0</ele><time>2026-04-25T13:24:39Z</time></trkpt><trkpt lat="45.93220754324646" lon="10.297193891612547"><ele>459.0</ele><time>2026-04-25T13:24:40Z</time></trkpt><trkpt lat="45.932207731343865" lon="10.297291783873158"><ele>459.0</ele><time>2026-04-25T13:24:41Z</time></trkpt><trkpt lat="45.93227402763559" lon="10.297405850945053"><ele>459.0</ele><time>2026-04-25T13:24:43Z</time></trkpt><trkpt lat="45.9323517532665" lon="10.297424162694858"><ele>459.0</ele><time>2026-04-25T13:24:44Z</time></trkpt><trkpt lat="45.93243774759798" lon="10.297460240112146"><ele>459.0</ele><time>2026-04-25T13:24:45Z</time></trkpt><trkpt lat="45.932529603195846" lon="10.297465963483345"><ele>462.8333333333333</ele><time>2026-04-25T13:24:46Z</time></trkpt><trkpt lat="45.93261502913322" lon="10.29746690983415"><ele>466.66666666666663</ele><time>2026-04-25T13:24:47Z</time></trkpt><trkpt lat="45.9326913681796" lon="10.297446986475723"><ele>470.5</ele><time>2026-04-25T13:24:48Z</time></trkpt><trkpt lat="45.93277605413629" lon="10.297425911695761"><ele>474.3333333333333</ele><time>2026-04-25T13:24:49Z</time></trkpt><trkpt lat="45.93284741222908" lon="10.29741989594622"><ele>478.16666666666663</ele><time>2026-04-25T13:24:50Z</time></trkpt><trkpt lat="45.93277201284056" lon="10.297528943939955"><ele>482.0</ele><time>2026-04-25T13:24:56Z</time></trkpt><trkpt lat="45.93271037524182" lon="10.297596577540498"><ele>482.0</ele><time>2026-04-25T13:24:57Z</time></trkpt><trkpt lat="45.93260238054329" lon="10.297666714856751"><ele>482.00000000000006</ele><time>2026-04-25T13:24:58Z</time></trkpt><trkpt lat="45.93254713180572" lon="10.297733134425467"><ele>482.00000000000006</ele><time>2026-04-25T13:24:59Z</time></trkpt><trkpt lat="45.93247051767583" lon="10.29781165649876"><ele>482.0</ele><time>2026-04-25T13:25:00Z</time></trkpt><trkpt lat="45.93239679225898" lon="10.29789046523778"><ele>482.0</ele><time>2026-04-25T13:25:01Z</time></trkpt><trkpt lat="45.932322578341584" lon="10.297985520720037"><ele>482.6</ele><time>2026-04-25T13:25:02Z</time></trkpt><trkpt lat="45.93224956938641" lon="10.298083031522124"><ele>483.20000000000005</ele><time>2026-04-25T13:25:03Z</time></trkpt><trkpt lat="45.93216746370673" lon="10.298182196725504"><ele>483.8</ele><time>2026-04-25T13:25:04Z</time></trkpt><trkpt lat="45.932094832006655" lon="10.298289341007969"><ele>484.4</ele><time>2026-04-25T13:25:05Z</time></trkpt><trkpt lat="45.932006266828985" lon="10.298386489830088"><ele>485.0</ele><time>2026-04-25T13:25:06Z</time></trkpt><trkpt lat="45.93191666054989" lon="10.298479047950437"><ele>485.0</ele><time>2026-04-25T13:25:07Z</time></trkpt><trkpt lat="45.93182611481137" lon="10.298587736051026"><ele>485.0</ele><time>2026-04-25T13:25:08Z</time></trkpt><trkpt lat="45.931739942020904" lon="10.298699540675448"><ele>485.0</ele><time>2026-04-25T13:25:09Z</time></trkpt><trkpt lat="45.93164333965094" lon="10.29883129741377"><ele>485.0</ele><time>2026-04-25T13:25:10Z</time></trkpt><trkpt lat="45.931526804852375" lon="10.298981723180166"><ele>487.3333333333333</ele><time>2026-04-25T13:25:11Z</time></trkpt><trkpt lat="45.9314131078371" lon="10.299144982971782"><ele>489.66666666666663</ele><time>2026-04-25T13:25:12Z</time></trkpt><trkpt lat="45.93130389672203" lon="10.29931085846916"><ele>492.0</ele><time>2026-04-25T13:25:13Z</time></trkpt><trkpt lat="45.93121965434197" lon="10.299458395988944"><ele>492.0</ele><time>2026-04-25T13:25:14Z</time></trkpt><trkpt lat="45.93116245926441" lon="10.299572986384863"><ele>492.00000000000006</ele><time>2026-04-25T13:25:15Z</time></trkpt><trkpt lat="45.931122749102286" lon="10.299686428175878"><ele>492.00000000000006</ele><time>2026-04-25T13:25:16Z</time></trkpt><trkpt lat="45.93108683974836" lon="10.299789590608269"><ele>492.0</ele><time>2026-04-25T13:25:17Z</time></trkpt><trkpt lat="45.93102370407979" lon="10.2999373144643"><ele>492.0</ele><time>2026-04-25T13:25:18Z</time></trkpt><trkpt lat="45.930956139209925" lon="10.299981474162328"><ele>490.66666666666663</ele><time>2026-04-25T13:25:19Z</time></trkpt><trkpt lat="45.93085616529171" lon="10.299731693742133"><ele>489.3333333333333</ele><time>2026-04-25T13:25:20Z</time></trkpt><trkpt lat="45.930792500638276" lon="10.299691658146298"><ele>488.0</ele><time>2026-04-25T13:25:23Z</time></trkpt><trkpt lat="45.930999529907275" lon="10.29982747011735"><ele>491.75</ele><time>2026-04-25T13:26:08Z</time></trkpt><trkpt lat="45.93112567647049" lon="10.299856087688386"><ele>495.5</ele><time>2026-04-25T13:26:09Z</time></trkpt><trkpt lat="45.93126249089292" lon="10.299924188081361"><ele>499.25</ele><time>2026-04-25T13:26:10Z</time></trkpt><trkpt lat="45.93142148395183" lon="10.299949728094786"><ele>503.0</ele><time>2026-04-25T13:26:11Z</time></trkpt><trkpt lat="45.931562741678995" lon="10.300004704563781"><ele>503.0</ele><time>2026-04-25T13:26:12Z</time></trkpt><trkpt lat="45.93168601970461" lon="10.300011653800832"><ele>503.0</ele><time>2026-04-25T13:26:13Z</time></trkpt><trkpt lat="45.931778785550414" lon="10.30002178017253"><ele>503.0</ele><time>2026-04-25T13:26:14Z</time></trkpt><trkpt lat="45.93187684441384" lon="10.2999537075536"><ele>503.0</ele><time>2026-04-25T13:26:15Z</time></trkpt><trkpt lat="45.93200268569001" lon="10.299822504242783"><ele>501.2</ele><time>2026-04-25T13:26:16Z</time></trkpt><trkpt lat="45.93212772245755" lon="10.299732583585062"><ele>499.4</ele><time>2026-04-25T13:26:17Z</time></trkpt><trkpt lat="45.932179505766925" lon="10.299634263129091"><ele>497.59999999999997</ele><time>2026-04-25T13:26:18Z</time></trkpt><trkpt lat="45.93224388324258" lon="10.299601959855387"><ele>495.79999999999995</ele><time>2026-04-25T13:26:19Z</time></trkpt><trkpt lat="45.93233108117578" lon="10.299582322664598"><ele>494.0</ele><time>2026-04-25T13:26:20Z</time></trkpt><trkpt lat="45.93243152965501" lon="10.299566961754058"><ele>494.0</ele><time>2026-04-25T13:26:21Z</time></trkpt><trkpt lat="45.93253536429802" lon="10.299529132395786"><ele>494.0</ele><time>2026-04-25T13:26:22Z</time></trkpt><trkpt lat="45.93267696044734" lon="10.299569965823734"><ele>494.0</ele><time>2026-04-25T13:26:23Z</time></trkpt><trkpt lat="45.93279706397934" lon="10.299519719005024"><ele>494.0</ele><time>2026-04-25T13:26:24Z</time></trkpt><trkpt lat="45.93293460788437" lon="10.299493021766061"><ele>496.25</ele><time>2026-04-25T13:26:25Z</time></trkpt><trkpt lat="45.93307028457569" lon="10.29941000561152"><ele>498.5</ele><time>2026-04-25T13:26:26Z</time></trkpt><trkpt lat="45.933212318571364" lon="10.299369772658178"><ele>500.75</ele><time>2026-04-25T13:26:27Z</time></trkpt><trkpt lat="45.933359622502245" lon="10.29929217273649"><ele>503.0</ele><time>2026-04-25T13:26:28Z</time></trkpt><trkpt lat="45.93352024532549" lon="10.299250050849782"><ele>503.0</ele><time>2026-04-25T13:26:29Z</time></trkpt><trkpt lat="45.93368382668603" lon="10.299192786012462"><ele>503.0</ele><time>2026-04-25T13:26:30Z</time></trkpt><trkpt lat="45.933850672537034" lon="10.299126409178038"><ele>503.0</ele><time>2026-04-25T13:26:31Z</time></trkpt><trkpt lat="45.93400158886302" lon="10.299146450367086"><ele>503.0</ele><time>2026-04-25T13:26:32Z</time></trkpt><trkpt lat="45.93420616224816" lon="10.299143623071087"><ele>503.0</ele><time>2026-04-25T13:26:33Z</time></trkpt><trkpt lat="45.934365336345394" lon="10.299113725174246"><ele>503.0</ele><time>2026-04-25T13:26:34Z</time></trkpt><trkpt lat="45.93453619538912" lon="10.299006428384144"><ele>499.3333333333333</ele><time>2026-04-25T13:26:35Z</time></trkpt><trkpt lat="45.93470546383469" lon="10.298885498678139"><ele>495.66666666666663</ele><time>2026-04-25T13:26:36Z</time></trkpt><trkpt lat="45.93484055152468" lon="10.298782233328714"><ele>492.0</ele><time>2026-04-25T13:26:37Z</time></trkpt><trkpt lat="45.93499211718083" lon="10.298696356319374"><ele>496.0</ele><time>2026-04-25T13:26:38Z</time></trkpt><trkpt lat="45.935117033173974" lon="10.298583235927092"><ele>500.0</ele><time>2026-04-25T13:26:39Z</time></trkpt><trkpt lat="45.93524806764849" lon="10.29848943278147"><ele>504.0</ele><time>2026-04-25T13:26:40Z</time></trkpt><trkpt lat="45.93537048214955" lon="10.298425447212416"><ele>508.0</ele><time>2026-04-25T13:26:41Z</time></trkpt><trkpt lat="45.935512791722125" lon="10.298377555342308"><ele>508.0</ele><time>2026-04-25T13:26:42Z</time></trkpt><trkpt lat="45.93564849125011" lon="10.298285510306638"><ele>508.0</ele><time>2026-04-25T13:26:43Z</time></trkpt><trkpt lat="45.93577617065718" lon="10.298217211497985"><ele>508.0</ele><time>2026-04-25T13:26:44Z</time></trkpt><trkpt lat="45.935889720670005" lon="10.298134257109455"><ele>508.0</ele><time>2026-04-25T13:26:45Z</time></trkpt><trkpt lat="45.935977469919735" lon="10.29808016788527"><ele>502.4</ele><time>2026-04-25T13:26:46Z</time></trkpt><trkpt lat="45.93604012422961" lon="10.298029379173595"><ele>496.79999999999995</ele><time>2026-04-25T13:26:47Z</time></trkpt><trkpt lat="45.936131705780774" lon="10.297993538192127"><ele>491.2</ele><time>2026-04-25T13:26:49Z</time></trkpt><trkpt lat="45.93625931742804" lon="10.298064133931065"><ele>485.6</ele><time>2026-04-25T13:26:51Z</time></trkpt><trkpt lat="45.93635226501193" lon="10.298047757661097"><ele>480.0</ele><time>2026-04-25T13:26:52Z</time></trkpt><trkpt lat="45.93643046652683" lon="10.298026935066332"><ele>480.0</ele><time>2026-04-25T13:26:53Z</time></trkpt><trkpt lat="45.93657557464762" lon="10.298073014055529"><ele>480.0</ele><time>2026-04-25T13:26:54Z</time></trkpt><trkpt lat="45.93671499460543" lon="10.298046470913505"><ele>480.0</ele><time>2026-04-25T13:26:55Z</time></trkpt><trkpt lat="45.93687686887985" lon="10.298040454109088"><ele>483.25</ele><time>2026-04-25T13:26:56Z</time></trkpt><trkpt lat="45.93705975871709" lon="10.298084146323802"><ele>486.5</ele><time>2026-04-25T13:26:57Z</time></trkpt><trkpt lat="45.93717094026006" lon="10.298137715123627"><ele>489.75</ele><time>2026-04-25T13:26:58Z</time></trkpt><trkpt lat="45.93725614307262" lon="10.298136132945903"><ele>493.0</ele><time>2026-04-25T13:26:59Z</time></trkpt><trkpt lat="45.9373787510269" lon="10.298121600488454"><ele>496.0</ele><time>2026-04-25T13:27:00Z</time></trkpt><trkpt lat="45.93751276169648" lon="10.298098712109827"><ele>498.99999999999994</ele><time>2026-04-25T13:27:01Z</time></trkpt><trkpt lat="45.937620248940036" lon="10.298009566644449"><ele>501.99999999999994</ele><time>2026-04-25T13:27:02Z</time></trkpt><trkpt lat="45.93771576372492" lon="10.29800561308208"><ele>505.0</ele><time>2026-04-25T13:27:03Z</time></trkpt><trkpt lat="45.93778698940221" lon="10.297968716271063"><ele>508.0</ele><time>2026-04-25T13:27:05Z</time></trkpt><trkpt lat="45.93789387344958" lon="10.29793119801229"><ele>508.0</ele><time>2026-04-25T13:27:06Z</time></trkpt><trkpt lat="45.93799416014827" lon="10.297946014177601"><ele>508.0</ele><time>2026-04-25T13:27:07Z</time></trkpt><trkpt lat="45.93809299420049" lon="10.298049364382521"><ele>508.0</ele><time>2026-04-25T13:27:08Z</time></trkpt><trkpt lat="45.93811100408553" lon="10.298201151643896"><ele>508.0</ele><time>2026-04-25T13:27:10Z</time></trkpt><trkpt lat="45.93825755991465" lon="10.298418874908048"><ele>545.0</ele><time>2026-04-25T13:27:12Z</time></trkpt><trkpt lat="45.93870541759747" lon="10.29820348544247"><ele>545.0</ele><time>2026-04-25T13:27:14Z</time></trkpt><trkpt lat="45.938843687824225" lon="10.298267229028008"><ele>545.0</ele><time>2026-04-25T13:27:15Z</time></trkpt><trkpt lat="45.9389616313088" lon="10.298349630998736"><ele>545.0</ele><time>2026-04-25T13:27:16Z</time></trkpt><trkpt lat="45.9390520582243" lon="10.29841715740037"><ele>545.0</ele><time>2026-04-25T13:27:17Z</time></trkpt><trkpt lat="45.939114977445925" lon="10.298488559970366"><ele>545.0</ele><time>2026-04-25T13:27:18Z</time></trkpt><trkpt lat="45.93916697840211" lon="10.298595118212127"><ele>545.0</ele><time>2026-04-25T13:27:19Z</time></trkpt><trkpt lat="45.93922512260463" lon="10.29871639511628"><ele>545.0</ele><time>2026-04-25T13:27:20Z</time></trkpt><trkpt lat="45.939287604219196" lon="10.298813256802566"><ele>545.0</ele><time>2026-04-25T13:27:21Z</time></trkpt><trkpt lat="45.939342779687365" lon="10.298904332376978"><ele>545.0</ele><time>2026-04-25T13:27:22Z</time></trkpt><trkpt lat="45.93949135029341" lon="10.298915116383629"><ele>550.5</ele><time>2026-04-25T13:27:24Z</time></trkpt><trkpt lat="45.93958523718945" lon="10.298879741939505"><ele>556.0</ele><time>2026-04-25T13:27:25Z</time></trkpt><trkpt lat="45.93969636486572" lon="10.298831357837729"><ele>561.5</ele><time>2026-04-25T13:27:26Z</time></trkpt><trkpt lat="45.93981368239514" lon="10.298758720354934"><ele>567.0</ele><time>2026-04-25T13:27:27Z</time></trkpt><trkpt lat="45.93993327226981" lon="10.298768897335323"><ele>567.0</ele><time>2026-04-25T13:27:28Z</time></trkpt><trkpt lat="45.940049248830675" lon="10.298787806217305"><ele>567.0</ele><time>2026-04-25T13:27:29Z</time></trkpt><trkpt lat="45.940152944215946" lon="10.298749861853022"><ele>567.0</ele><time>2026-04-25T13:27:30Z</time></trkpt><trkpt lat="45.94024025579822" lon="10.298795337505766"><ele>567.0</ele><time>2026-04-25T13:27:31Z</time></trkpt><trkpt lat="45.940295337672964" lon="10.29874220883374"><ele>567.0</ele><time>2026-04-25T13:27:32Z</time></trkpt><trkpt lat="45.940352056930344" lon="10.298626930968897"><ele>572.4285714285714</ele><time>2026-04-25T13:27:33Z</time></trkpt><trkpt lat="45.94036624877636" lon="10.298526095653484"><ele>577.8571428571429</ele><time>2026-04-25T13:27:34Z</time></trkpt><trkpt lat="45.940430506442695" lon="10.298602142428045"><ele>583.2857142857142</ele><time>2026-04-25T13:27:39Z</time></trkpt><trkpt lat="45.940480735409515" lon="10.298677978622962"><ele>588.7142857142858</ele><time>2026-04-25T13:27:41Z</time></trkpt><trkpt lat="45.94051219024067" lon="10.298763449440152"><ele>594.1428571428571</ele><time>2026-04-25T13:27:45Z</time></trkpt><trkpt lat="45.94057603322547" lon="10.29883415891495"><ele>599.5714285714286</ele><time>2026-04-25T13:28:11Z</time></trkpt><trkpt lat="45.94063860621928" lon="10.298791747792274"><ele>605.0</ele><time>2026-04-25T13:28:14Z</time></trkpt><trkpt lat="45.94071208765206" lon="10.29878048314544"><ele>605.0</ele><time>2026-04-25T13:28:16Z</time></trkpt><trkpt lat="45.940775684290465" lon="10.298768306039044"><ele>605.0</ele><time>2026-04-25T13:28:18Z</time></trkpt><trkpt lat="45.94085335618541" lon="10.298734640870267"><ele>605.0</ele><time>2026-04-25T13:28:20Z</time></trkpt><trkpt lat="45.940942317053974" lon="10.298682531322754"><ele>605.0</ele><time>2026-04-25T13:28:22Z</time></trkpt><trkpt lat="45.94100197858279" lon="10.298592071734129"><ele>605.0</ele><time>2026-04-25T13:28:26Z</time></trkpt><trkpt lat="45.94111472476988" lon="10.298570862622539"><ele>605.0</ele><time>2026-04-25T13:28:28Z</time></trkpt><trkpt lat="45.94118010232179" lon="10.298547926319307"><ele>610.5</ele><time>2026-04-25T13:28:32Z</time></trkpt><trkpt lat="45.94127651921208" lon="10.29852793360422"><ele>616.0</ele><time>2026-04-25T13:28:37Z</time></trkpt><trkpt lat="45.94134734241848" lon="10.29848589267416"><ele>621.5</ele><time>2026-04-25T13:28:42Z</time></trkpt><trkpt lat="45.94142013545101" lon="10.298429562676398"><ele>627.0</ele><time>2026-04-25T13:28:46Z</time></trkpt><trkpt lat="45.94148560609302" lon="10.298348344652776"><ele>632.5</ele><time>2026-04-25T13:28:48Z</time></trkpt><trkpt lat="45.94153056917943" lon="10.298262561806416"><ele>638.0</ele><time>2026-04-25T13:28:50Z</time></trkpt><trkpt lat="45.941598448614215" lon="10.29813312376106"><ele>635.0</ele><time>2026-04-25T13:28:52Z</time></trkpt><trkpt lat="45.941668184337374" lon="10.298041599307696"><ele>632.0</ele><time>2026-04-25T13:28:54Z</time></trkpt><trkpt lat="45.941744248364664" lon="10.29794721367756"><ele>629.0</ele><time>2026-04-25T13:28:56Z</time></trkpt><trkpt lat="45.9418081059857" lon="10.297915566679585"><ele>626.0</ele><time>2026-04-25T13:28:59Z</time></trkpt><trkpt lat="45.94187294675789" lon="10.297861263179815"><ele>623.0</ele><time>2026-04-25T13:29:01Z</time></trkpt><trkpt lat="45.94194519821079" lon="10.297827205983813"><ele>620.0</ele><time>2026-04-25T13:29:02Z</time></trkpt><trkpt lat="45.94201297894328" lon="10.29777579100268"><ele>620.0</ele><time>2026-04-25T13:29:04Z</time></trkpt><trkpt lat="45.942093602280806" lon="10.297764106783157"><ele>620.0</ele><time>2026-04-25T13:29:08Z</time></trkpt><trkpt lat="45.94217470191847" lon="10.297706691442201"><ele>620.0</ele><time>2026-04-25T13:29:10Z</time></trkpt><trkpt lat="45.942258603910204" lon="10.297678913325862"><ele>620.0</ele><time>2026-04-25T13:29:13Z</time></trkpt><trkpt lat="45.94233195512099" lon="10.297643835853156"><ele>620.0</ele><time>2026-04-25T13:29:14Z</time></trkpt><trkpt lat="45.942397284600396" lon="10.297572566829992"><ele>620.0</ele><time>2026-04-25T13:29:16Z</time></trkpt><trkpt lat="45.94241181720901" lon="10.297473840357034"><ele>620.0</ele><time>2026-04-25T13:29:17Z</time></trkpt><trkpt lat="45.94241589728999" lon="10.297327599449606"><ele>620.0</ele><time>2026-04-25T13:29:18Z</time></trkpt><trkpt lat="45.9424432391981" lon="10.297178666819987"><ele>620.0</ele><time>2026-04-25T13:29:19Z</time></trkpt><trkpt lat="45.94244674678733" lon="10.297053895847219"><ele>620.0</ele><time>2026-04-25T13:29:21Z</time></trkpt><trkpt lat="45.94246712890376" lon="10.2969456367455"><ele>620.0</ele><time>2026-04-25T13:29:24Z</time></trkpt><trkpt lat="45.94252806526623" lon="10.296885608732307"><ele>620.0</ele><time>2026-04-25T13:29:28Z</time></trkpt><trkpt lat="45.94262575079146" lon="10.296876506020183"><ele>614.0</ele><time>2026-04-25T13:29:33Z</time></trkpt><trkpt lat="45.94267674192036" lon="10.29678596058301"><ele>608.0</ele><time>2026-04-25T13:29:37Z</time></trkpt><trkpt lat="45.94272208344354" lon="10.296697199785488"><ele>602.0</ele><time>2026-04-25T13:29:41Z</time></trkpt><trkpt lat="45.94278878117318" lon="10.29660887848454"><ele>596.0</ele><time>2026-04-25T13:29:44Z</time></trkpt><trkpt lat="45.942830791723765" lon="10.296520811734444"><ele>590.0</ele><time>2026-04-25T13:29:47Z</time></trkpt><trkpt lat="45.9428523393466" lon="10.296414907307906"><ele>584.0</ele><time>2026-04-25T13:29:50Z</time></trkpt><trkpt lat="45.942875172093316" lon="10.29632522059611"><ele>582.5</ele><time>2026-04-25T13:29:52Z</time></trkpt><trkpt lat="45.94290003748758" lon="10.296231967073426"><ele>581.0</ele><time>2026-04-25T13:29:54Z</time></trkpt><trkpt lat="45.942908238253025" lon="10.296137023478899"><ele>579.5</ele><time>2026-04-25T13:29:56Z</time></trkpt><trkpt lat="45.942923243928945" lon="10.296033743884719"><ele>578.0</ele><time>2026-04-25T13:30:02Z</time></trkpt><trkpt lat="45.94293007997277" lon="10.295929594051264"><ele>576.5</ele><time>2026-04-25T13:30:10Z</time></trkpt><trkpt lat="45.94303540907893" lon="10.295891620238448"><ele>575.0</ele><time>2026-04-25T13:30:18Z</time></trkpt><trkpt lat="45.94310669883939" lon="10.295871969944235"><ele>575.0</ele><time>2026-04-25T13:30:21Z</time></trkpt><trkpt lat="45.94315679804497" lon="10.295816802285954"><ele>575.0</ele><time>2026-04-25T13:31:30Z</time></trkpt><trkpt lat="45.943216851171954" lon="10.295860765464797"><ele>575.0</ele><time>2026-04-25T13:31:34Z</time></trkpt><trkpt lat="45.943318128921916" lon="10.295923248029753"><ele>575.0</ele><time>2026-04-25T13:31:36Z</time></trkpt><trkpt lat="45.94340987536268" lon="10.295958166661233"><ele>575.0</ele><time>2026-04-25T13:31:38Z</time></trkpt><trkpt lat="45.94351545097371" lon="10.296019226121784"><ele>575.0</ele><time>2026-04-25T13:31:40Z</time></trkpt><trkpt lat="45.94358250648415" lon="10.29605152945871"><ele>562.5</ele><time>2026-04-25T13:31:42Z</time></trkpt><trkpt lat="45.943662334677256" lon="10.296112117809981"><ele>550.0</ele><time>2026-04-25T13:31:45Z</time></trkpt><trkpt lat="45.94401079845225" lon="10.296393988596206"><ele>550.4</ele><time>2026-04-25T13:31:48Z</time></trkpt><trkpt lat="45.94406284178597" lon="10.296449248003412"><ele>550.8</ele><time>2026-04-25T13:31:49Z</time></trkpt><trkpt lat="45.94417396970523" lon="10.29653943618945"><ele>551.2</ele><time>2026-04-25T13:31:51Z</time></trkpt><trkpt lat="45.94426699216093" lon="10.296634125125859"><ele>551.6</ele><time>2026-04-25T13:31:53Z</time></trkpt><trkpt lat="45.944321225182165" lon="10.2967199319394"><ele>552.0</ele><time>2026-04-25T13:31:54Z</time></trkpt><trkpt lat="45.944386257397426" lon="10.296772535958736"><ele>552.0</ele><time>2026-04-25T13:31:55Z</time></trkpt><trkpt lat="45.944444237565506" lon="10.296817370137761"><ele>552.0</ele><time>2026-04-25T13:31:56Z</time></trkpt><trkpt lat="45.94453743843843" lon="10.296835706777554"><ele>552.0</ele><time>2026-04-25T13:31:58Z</time></trkpt><trkpt lat="45.9446472223206" lon="10.29683154982559"><ele>552.0</ele><time>2026-04-25T13:32:00Z</time></trkpt><trkpt lat="45.944714100092774" lon="10.296874507928441"><ele>552.0</ele><time>2026-04-25T13:32:09Z</time></trkpt><trkpt lat="45.94478249716467" lon="10.29689800634966"><ele>552.0</ele><time>2026-04-25T13:32:10Z</time></trkpt><trkpt lat="45.944875554711686" lon="10.297000871452942"><ele>552.0</ele><time>2026-04-25T13:32:12Z</time></trkpt><trkpt lat="45.94499589259829" lon="10.297053600723974"><ele>552.0</ele><time>2026-04-25T13:32:13Z</time></trkpt><trkpt lat="45.94512591500168" lon="10.29712086745123"><ele>552.0</ele><time>2026-04-25T13:32:14Z</time></trkpt><trkpt lat="45.945195203644296" lon="10.297237006754246"><ele>552.0</ele><time>2026-04-25T13:32:16Z</time></trkpt><trkpt lat="45.945268967097476" lon="10.297253906551562"><ele>552.0</ele><time>2026-04-25T13:32:17Z</time></trkpt><trkpt lat="45.94532487371016" lon="10.297314181307716"><ele>552.2</ele><time>2026-04-25T13:32:19Z</time></trkpt><trkpt lat="45.94523209489357" lon="10.297461039474571"><ele>552.4000000000001</ele><time>2026-04-25T13:32:24.999Z</time></trkpt><trkpt lat="45.945192517402894" lon="10.297537251387173"><ele>552.5999999999999</ele><time>2026-04-25T13:32:26.999Z</time></trkpt><trkpt lat="45.94516676815939" lon="10.297651571570647"><ele>552.8</ele><time>2026-04-25T13:32:32Z</time></trkpt><trkpt lat="45.94506011806601" lon="10.297743185644757"><ele>553.0</ele><time>2026-04-25T13:32:33Z</time></trkpt><trkpt lat="45.945013808902885" lon="10.297838057965373"><ele>553.0</ele><time>2026-04-25T13:32:34Z</time></trkpt><trkpt lat="45.944977434393586" lon="10.297953577660138"><ele>553.0</ele><time>2026-04-25T13:32:37Z</time></trkpt><trkpt lat="45.94493620500476" lon="10.297823036778011"><ele>553.0</ele><time>2026-04-25T13:32:39Z</time></trkpt><trkpt lat="45.94511701325834" lon="10.29790598715052"><ele>553.0</ele><time>2026-04-25T13:32:48Z</time></trkpt><trkpt lat="45.94508017186915" lon="10.298614299370307"><ele>555.3333333333334</ele><time>2026-04-25T13:32:50Z</time></trkpt><trkpt lat="45.94509673701342" lon="10.298724196635613"><ele>557.6666666666667</ele><time>2026-04-25T13:32:53Z</time></trkpt><trkpt lat="45.94510959810092" lon="10.298820705323932"><ele>560.0</ele><time>2026-04-25T13:32:55Z</time></trkpt><trkpt lat="45.94513054315512" lon="10.298939620714973"><ele>562.3333333333334</ele><time>2026-04-25T13:32:57Z</time></trkpt><trkpt lat="45.94506790972451" lon="10.299029125801665"><ele>564.6666666666666</ele><time>2026-04-25T13:32:58Z</time></trkpt><trkpt lat="45.945130862866804" lon="10.29911285198442"><ele>567.0</ele><time>2026-04-25T13:33:00Z</time></trkpt><trkpt lat="45.94502304059697" lon="10.299189266525905"><ele>575.75</ele><time>2026-04-25T13:33:02Z</time></trkpt><trkpt lat="45.94500844879682" lon="10.299320426058843"><ele>584.5</ele><time>2026-04-25T13:33:03Z</time></trkpt><trkpt lat="45.944986281791536" lon="10.29947091779831"><ele>593.25</ele><time>2026-04-25T13:33:04Z</time></trkpt><trkpt lat="45.94498707039602" lon="10.299616858142668"><ele>602.0</ele><time>2026-04-25T13:33:05Z</time></trkpt><trkpt lat="45.94591837599007" lon="10.301457929838396"><ele>605.0</ele><time>2026-04-25T13:33:37Z</time></trkpt><trkpt lat="45.94610180882787" lon="10.301608817265041"><ele>608.0</ele><time>2026-04-25T13:33:45Z</time></trkpt><trkpt lat="45.94616809698686" lon="10.301667903611422"><ele>611.0</ele><time>2026-04-25T13:33:48Z</time></trkpt><trkpt lat="45.946136441803894" lon="10.301812486947142"><ele>614.0</ele><time>2026-04-25T13:33:51Z</time></trkpt><trkpt lat="45.94611733309032" lon="10.301949628261708"><ele>614.0</ele><time>2026-04-25T13:33:53Z</time></trkpt><trkpt lat="45.94606906320602" lon="10.302137240110211"><ele>614.0</ele><time>2026-04-25T13:33:55Z</time></trkpt><trkpt lat="45.94603466539467" lon="10.302262545485343"><ele>614.0</ele><time>2026-04-25T13:33:56Z</time></trkpt><trkpt lat="45.94599833296396" lon="10.302371533630339"><ele>614.0</ele><time>2026-04-25T13:33:57Z</time></trkpt><trkpt lat="45.945978797799626" lon="10.302482396553218"><ele>614.0</ele><time>2026-04-25T13:33:58Z</time></trkpt><trkpt lat="45.9459818611128" lon="10.302608750263028"><ele>613.0</ele><time>2026-04-25T13:33:59Z</time></trkpt><trkpt lat="45.945992660875255" lon="10.302730442501028"><ele>612.0</ele><time>2026-04-25T13:34:00Z</time></trkpt><trkpt lat="45.94598517888336" lon="10.302844020850676"><ele>611.0</ele><time>2026-04-25T13:34:01Z</time></trkpt><trkpt lat="45.94594572648143" lon="10.302959046164172"><ele>610.0</ele><time>2026-04-25T13:34:02Z</time></trkpt><trkpt lat="45.94588198642108" lon="10.303060736007666"><ele>609.0</ele><time>2026-04-25T13:34:03Z</time></trkpt><trkpt lat="45.945800430327395" lon="10.303157208075543"><ele>612.2</ele><time>2026-04-25T13:34:04Z</time></trkpt><trkpt lat="45.94574188122093" lon="10.303261367119743"><ele>615.4</ele><time>2026-04-25T13:34:05Z</time></trkpt><trkpt lat="45.94568545837289" lon="10.303366249717609"><ele>618.6</ele><time>2026-04-25T13:34:06Z</time></trkpt><trkpt lat="45.94559470799411" lon="10.303499588190919"><ele>621.8</ele><time>2026-04-25T13:34:07Z</time></trkpt><trkpt lat="45.945542049023246" lon="10.303644212298199"><ele>625.0</ele><time>2026-04-25T13:34:08Z</time></trkpt><trkpt lat="45.94547776674904" lon="10.303778072464118"><ele>622.75</ele><time>2026-04-25T13:34:09Z</time></trkpt><trkpt lat="45.94542609215947" lon="10.30393889096997"><ele>620.5</ele><time>2026-04-25T13:34:10Z</time></trkpt><trkpt lat="45.94537174897829" lon="10.304075742776995"><ele>618.25</ele><time>2026-04-25T13:34:11Z</time></trkpt><trkpt lat="45.945341514838745" lon="10.304215956178936"><ele>616.0</ele><time>2026-04-25T13:34:12Z</time></trkpt><trkpt lat="45.94533588637638" lon="10.304389328533547"><ele>616.0</ele><time>2026-04-25T13:34:13Z</time></trkpt><trkpt lat="45.94533585704773" lon="10.304515855575971"><ele>616.0</ele><time>2026-04-25T13:34:14Z</time></trkpt><trkpt lat="45.945317384750865" lon="10.304612623964996"><ele>616.0</ele><time>2026-04-25T13:34:18Z</time></trkpt><trkpt lat="45.94526239184791" lon="10.304695570162655"><ele>616.0</ele><time>2026-04-25T13:34:21Z</time></trkpt><trkpt lat="45.94522971921468" lon="10.304782656481438"><ele>616.0</ele><time>2026-04-25T13:34:25.999Z</time></trkpt><trkpt lat="45.945307793309944" lon="10.304771412521434"><ele>616.0</ele><time>2026-04-25T13:34:27.999Z</time></trkpt><trkpt lat="45.945395128384256" lon="10.304760962069267"><ele>616.0</ele><time>2026-04-25T13:34:29.999Z</time></trkpt><trkpt lat="45.94550218368589" lon="10.304783439978236"><ele>616.0</ele><time>2026-04-25T13:34:31.999Z</time></trkpt><trkpt lat="45.945608193785276" lon="10.304729552784485"><ele>616.0</ele><time>2026-04-25T13:34:34Z</time></trkpt><trkpt lat="45.94570995891045" lon="10.304784167034464"><ele>616.0</ele><time>2026-04-25T13:34:36Z</time></trkpt><trkpt lat="45.94575707967918" lon="10.30486947693105"><ele>616.0</ele><time>2026-04-25T13:34:37Z</time></trkpt><trkpt lat="45.94581280115058" lon="10.305012352973876"><ele>609.4</ele><time>2026-04-25T13:34:39Z</time></trkpt><trkpt lat="45.945917797132964" lon="10.305073319870274"><ele>602.8</ele><time>2026-04-25T13:34:41Z</time></trkpt><trkpt lat="45.94602903717002" lon="10.305019410209457"><ele>596.1999999999999</ele><time>2026-04-25T13:34:43Z</time></trkpt><trkpt lat="45.94609880397199" lon="10.304997180757628"><ele>589.6</ele><time>2026-04-25T13:34:44Z</time></trkpt><trkpt lat="45.94616285081998" lon="10.3049644969335"><ele>583.0</ele><time>2026-04-25T13:34:45Z</time></trkpt><trkpt lat="45.946259154918124" lon="10.30484626048282"><ele>583.0000000000001</ele><time>2026-04-25T13:34:47Z</time></trkpt><trkpt lat="45.94630703218786" lon="10.304776881847255"><ele>583.0</ele><time>2026-04-25T13:34:48Z</time></trkpt><trkpt lat="45.94637095747579" lon="10.304743356501644"><ele>583.0</ele><time>2026-04-25T13:34:49Z</time></trkpt><trkpt lat="45.94642971152828" lon="10.304684846205081"><ele>583.0</ele><time>2026-04-25T13:34:50Z</time></trkpt><trkpt lat="45.946481905179574" lon="10.304610757296182"><ele>583.0</ele><time>2026-04-25T13:34:51Z</time></trkpt><trkpt lat="45.94655127595925" lon="10.304549841297593"><ele>583.0000000000001</ele><time>2026-04-25T13:34:52Z</time></trkpt><trkpt lat="45.94660476955341" lon="10.304498940462294"><ele>583.0</ele><time>2026-04-25T13:34:53Z</time></trkpt><trkpt lat="45.94666167706428" lon="10.304447181627953"><ele>580.6666666666667</ele><time>2026-04-25T13:34:54Z</time></trkpt><trkpt lat="45.94671956720208" lon="10.304383116256648"><ele>578.3333333333334</ele><time>2026-04-25T13:34:55Z</time></trkpt><trkpt lat="45.9467971544671" lon="10.304352853453615"><ele>576.0</ele><time>2026-04-25T13:34:56Z</time></trkpt><trkpt lat="45.94687318701424" lon="10.304316490937046"><ele>573.6666666666666</ele><time>2026-04-25T13:34:57Z</time></trkpt><trkpt lat="45.946955075774426" lon="10.30429089748768"><ele>571.3333333333333</ele><time>2026-04-25T13:34:58Z</time></trkpt><trkpt lat="45.94703436621055" lon="10.30426256629474"><ele>569.0</ele><time>2026-04-25T13:34:59Z</time></trkpt><trkpt lat="45.9471020645739" lon="10.304224563079089"><ele>569.0</ele><time>2026-04-25T13:35:00Z</time></trkpt><trkpt lat="45.947193623483294" lon="10.304205662343055"><ele>569.0</ele><time>2026-04-25T13:35:02Z</time></trkpt><trkpt lat="45.94719937434769" lon="10.304338889304331"><ele>569.0</ele><time>2026-04-25T13:35:03Z</time></trkpt><trkpt lat="45.94716342799891" lon="10.304419817737687"><ele>569.0</ele><time>2026-04-25T13:35:04Z</time></trkpt><trkpt lat="45.94710609533092" lon="10.30454885966394"><ele>569.0</ele><time>2026-04-25T13:35:05Z</time></trkpt><trkpt lat="45.94711555895444" lon="10.304673678163626"><ele>569.0</ele><time>2026-04-25T13:35:06Z</time></trkpt><trkpt lat="45.9471568941479" lon="10.304792359697132"><ele>567.4</ele><time>2026-04-25T13:35:07Z</time></trkpt><trkpt lat="45.94720558343316" lon="10.304909949163031"><ele>565.8</ele><time>2026-04-25T13:35:08Z</time></trkpt><trkpt lat="45.947240396824135" lon="10.305024900795043"><ele>564.2</ele><time>2026-04-25T13:35:09Z</time></trkpt><trkpt lat="45.94725804882131" lon="10.305174204882114"><ele>562.6</ele><time>2026-04-25T13:35:10Z</time></trkpt><trkpt lat="45.94724674494935" lon="10.305338395607315"><ele>561.0</ele><time>2026-04-25T13:35:11Z</time></trkpt><trkpt lat="45.947265753346144" lon="10.305462201037006"><ele>561.0</ele><time>2026-04-25T13:35:12Z</time></trkpt><trkpt lat="45.947246957332446" lon="10.305563365663827"><ele>561.0</ele><time>2026-04-25T13:35:13Z</time></trkpt><trkpt lat="45.94724809759263" lon="10.305699052141275"><ele>561.0</ele><time>2026-04-25T13:35:14Z</time></trkpt><trkpt lat="45.94726790676948" lon="10.305817906442618"><ele>561.0</ele><time>2026-04-25T13:35:15Z</time></trkpt><trkpt lat="45.94730835189013" lon="10.305892839921318"><ele>561.0</ele><time>2026-04-25T13:35:16Z</time></trkpt><trkpt lat="45.947400998686334" lon="10.305950818972066"><ele>561.0</ele><time>2026-04-25T13:35:17Z</time></trkpt><trkpt lat="45.94747676054034" lon="10.30598059118309"><ele>557.3333333333334</ele><time>2026-04-25T13:35:18Z</time></trkpt><trkpt lat="45.947545964020144" lon="10.306023737717394"><ele>553.6666666666666</ele><time>2026-04-25T13:35:19Z</time></trkpt><trkpt lat="45.947619737287326" lon="10.306034797347582"><ele>550.0</ele><time>2026-04-25T13:35:20Z</time></trkpt><trkpt lat="45.947685799414806" lon="10.30603786821385"><ele>546.3333333333333</ele><time>2026-04-25T13:35:21Z</time></trkpt><trkpt lat="45.94778016097161" lon="10.306077594457124"><ele>542.6666666666666</ele><time>2026-04-25T13:35:23Z</time></trkpt><trkpt lat="45.94777420894377" lon="10.30625280550663"><ele>539.0</ele><time>2026-04-25T13:35:25Z</time></trkpt><trkpt lat="45.947694658094264" lon="10.306301742697013"><ele>539.0</ele><time>2026-04-25T13:35:26Z</time></trkpt><trkpt lat="45.94764481936389" lon="10.30635881486875"><ele>539.0</ele><time>2026-04-25T13:35:27Z</time></trkpt><trkpt lat="45.947590312547554" lon="10.306469689755133"><ele>539.0</ele><time>2026-04-25T13:35:29Z</time></trkpt><trkpt lat="45.947599300235574" lon="10.306569512527139"><ele>539.0</ele><time>2026-04-25T13:35:30Z</time></trkpt><trkpt lat="45.94768514363752" lon="10.306666744686233"><ele>539.0</ele><time>2026-04-25T13:35:31Z</time></trkpt><trkpt lat="45.94774891618946" lon="10.306721585463375"><ele>539.0</ele><time>2026-04-25T13:35:32Z</time></trkpt><trkpt lat="45.94780575723622" lon="10.306790796128318"><ele>538.0</ele><time>2026-04-25T13:35:33Z</time></trkpt><trkpt lat="45.947733876141335" lon="10.306819002564312"><ele>537.0</ele><time>2026-04-25T13:35:37Z</time></trkpt><trkpt lat="45.94766691747197" lon="10.306778491429327"><ele>536.0</ele><time>2026-04-25T13:35:38Z</time></trkpt><trkpt lat="45.947616818502986" lon="10.306723093759588"><ele>535.0</ele><time>2026-04-25T13:35:39Z</time></trkpt><trkpt lat="45.94755309430693" lon="10.306779542881664"><ele>534.0</ele><time>2026-04-25T13:35:41Z</time></trkpt><trkpt lat="45.947594728719935" lon="10.306995712833942"><ele>533.0</ele><time>2026-04-25T13:35:44Z</time></trkpt><trkpt lat="45.94749792669083" lon="10.307035691884447"><ele>536.1999999999999</ele><time>2026-04-25T13:35:45Z</time></trkpt><trkpt lat="45.94743482606849" lon="10.3070556269814"><ele>539.4</ele><time>2026-04-25T13:35:46Z</time></trkpt><trkpt lat="45.94732609771483" lon="10.30709616210483"><ele>542.5999999999999</ele><time>2026-04-25T13:35:48Z</time></trkpt><trkpt lat="45.94725250549292" lon="10.307202181661621"><ele>545.8</ele><time>2026-04-25T13:35:50Z</time></trkpt><trkpt lat="45.94714877109713" lon="10.307328765663222"><ele>549.0</ele><time>2026-04-25T13:35:52Z</time></trkpt><trkpt lat="45.94708447684293" lon="10.307420585682745"><ele>550.25</ele><time>2026-04-25T13:35:53Z</time></trkpt><trkpt lat="45.94701381309357" lon="10.307531348644067"><ele>551.5</ele><time>2026-04-25T13:35:54Z</time></trkpt><trkpt lat="45.94694147513953" lon="10.30766199558212"><ele>552.75</ele><time>2026-04-25T13:35:55Z</time></trkpt><trkpt lat="45.946874673311555" lon="10.307806867559563"><ele>554.0</ele><time>2026-04-25T13:35:56Z</time></trkpt><trkpt lat="45.946801136996726" lon="10.30795391595739"><ele>554.0</ele><time>2026-04-25T13:35:57Z</time></trkpt><trkpt lat="45.94672630507079" lon="10.308073818905116"><ele>554.0</ele><time>2026-04-25T13:35:58Z</time></trkpt><trkpt lat="45.9466644295305" lon="10.308173064891939"><ele>554.0</ele><time>2026-04-25T13:35:59Z</time></trkpt><trkpt lat="45.94657544956589" lon="10.308260366603392"><ele>554.0</ele><time>2026-04-25T13:36:00Z</time></trkpt><trkpt lat="45.946497495997505" lon="10.308363680168084"><ele>554.0</ele><time>2026-04-25T13:36:01Z</time></trkpt><trkpt lat="45.94641203835805" lon="10.308461229266008"><ele>556.0</ele><time>2026-04-25T13:36:02Z</time></trkpt><trkpt lat="45.94634041603393" lon="10.308543300624542"><ele>558.0</ele><time>2026-04-25T13:36:03Z</time></trkpt><trkpt lat="45.94628574064867" lon="10.308651278901484"><ele>560.0</ele><time>2026-04-25T13:36:04Z</time></trkpt><trkpt lat="45.94621707838035" lon="10.308762053165369"><ele>562.0</ele><time>2026-04-25T13:36:05Z</time></trkpt><trkpt lat="45.94607139119162" lon="10.308804614766721"><ele>564.0</ele><time>2026-04-25T13:36:06Z</time></trkpt><trkpt lat="45.94596619396388" lon="10.30889736456781"><ele>565.4</ele><time>2026-04-25T13:36:07Z</time></trkpt><trkpt lat="45.94587714440446" lon="10.308991632605341"><ele>566.8</ele><time>2026-04-25T13:36:08Z</time></trkpt><trkpt lat="45.94579510341207" lon="10.309066460713748"><ele>568.2</ele><time>2026-04-25T13:36:09Z</time></trkpt><trkpt lat="45.94571194576231" lon="10.309148556484553"><ele>569.6</ele><time>2026-04-25T13:36:10Z</time></trkpt><trkpt lat="45.94561928888429" lon="10.309224651146424"><ele>571.0</ele><time>2026-04-25T13:36:11Z</time></trkpt><trkpt lat="45.94549808003693" lon="10.309325810947461"><ele>571.0</ele><time>2026-04-25T13:36:12Z</time></trkpt><trkpt lat="45.945382646151316" lon="10.309458378472206"><ele>571.0</ele><time>2026-04-25T13:36:13Z</time></trkpt><trkpt lat="45.94526945470599" lon="10.30960991899928"><ele>571.0</ele><time>2026-04-25T13:36:14Z</time></trkpt><trkpt lat="45.945155039232134" lon="10.309749210614816"><ele>573.3333333333334</ele><time>2026-04-25T13:36:15Z</time></trkpt><trkpt lat="45.945024445903854" lon="10.309890949790129"><ele>575.6666666666666</ele><time>2026-04-25T13:36:16Z</time></trkpt><trkpt lat="45.94490035283005" lon="10.310000136410078"><ele>578.0</ele><time>2026-04-25T13:36:17Z</time></trkpt><trkpt lat="45.94477200251088" lon="10.310112826366865"><ele>578.0</ele><time>2026-04-25T13:36:18Z</time></trkpt><trkpt lat="45.9446420742482" lon="10.310247377316095"><ele>578.0</ele><time>2026-04-25T13:36:19Z</time></trkpt><trkpt lat="45.94452228447421" lon="10.3103944551786"><ele>578.0</ele><time>2026-04-25T13:36:20Z</time></trkpt><trkpt lat="45.944433761167694" lon="10.310531794185422"><ele>578.0</ele><time>2026-04-25T13:36:21Z</time></trkpt><trkpt lat="45.94436406142876" lon="10.310690763075698"><ele>577.5</ele><time>2026-04-25T13:36:22Z</time></trkpt><trkpt lat="45.944299101356094" lon="10.310885417941128"><ele>577.0</ele><time>2026-04-25T13:36:23Z</time></trkpt><trkpt lat="45.94423078177861" lon="10.31106839253094"><ele>576.5</ele><time>2026-04-25T13:36:24Z</time></trkpt><trkpt lat="45.94416693676246" lon="10.31121456550209"><ele>576.0</ele><time>2026-04-25T13:36:25Z</time></trkpt><trkpt lat="45.944105391109645" lon="10.311317208479677"><ele>579.4</ele><time>2026-04-25T13:36:26Z</time></trkpt><trkpt lat="45.944050412052256" lon="10.311386233009836"><ele>582.8</ele><time>2026-04-25T13:36:27Z</time></trkpt><trkpt lat="45.94390298174225" lon="10.31135101032649"><ele>586.1999999999999</ele><time>2026-04-25T13:36:31Z</time></trkpt><trkpt lat="45.943906044432495" lon="10.311211030969531"><ele>589.6</ele><time>2026-04-25T13:36:32Z</time></trkpt><trkpt lat="45.9438415339861" lon="10.311135664978096"><ele>593.0</ele><time>2026-04-25T13:36:33Z</time></trkpt><trkpt lat="45.94374538988018" lon="10.310898897281698"><ele>593.0</ele><time>2026-04-25T13:36:35Z</time></trkpt><trkpt lat="45.94366375739837" lon="10.310939322433857"><ele>593.0</ele><time>2026-04-25T13:36:36Z</time></trkpt><trkpt lat="45.94355835460766" lon="10.310945337264025"><ele>593.0</ele><time>2026-04-25T13:36:37Z</time></trkpt><trkpt lat="45.94344171107605" lon="10.310950919353719"><ele>593.0</ele><time>2026-04-25T13:36:38Z</time></trkpt><trkpt lat="45.94333584761543" lon="10.310967167914445"><ele>593.0</ele><time>2026-04-25T13:36:39Z</time></trkpt><trkpt lat="45.943256489245464" lon="10.310995319249834"><ele>597.5</ele><time>2026-04-25T13:36:40Z</time></trkpt><trkpt lat="45.94318567586196" lon="10.311005517790445"><ele>602.0</ele><time>2026-04-25T13:36:41Z</time></trkpt><trkpt lat="45.94311119898337" lon="10.310922765640086"><ele>606.5</ele><time>2026-04-25T13:36:44Z</time></trkpt><trkpt lat="45.94306313825727" lon="10.310857062768529"><ele>611.0</ele><time>2026-04-25T13:36:45Z</time></trkpt><trkpt lat="45.94301548655702" lon="10.31079061670666"><ele>615.5</ele><time>2026-04-25T13:36:46Z</time></trkpt><trkpt lat="45.94292351757696" lon="10.310832723147273"><ele>620.0</ele><time>2026-04-25T13:36:48Z</time></trkpt><trkpt lat="45.942854427448786" lon="10.310936355938015"><ele>620.0</ele><time>2026-04-25T13:36:50Z</time></trkpt><trkpt lat="45.9427611661973" lon="10.311057671292065"><ele>620.0</ele><time>2026-04-25T13:36:51Z</time></trkpt><trkpt lat="45.942676704507456" lon="10.311172906610205"><ele>620.0</ele><time>2026-04-25T13:36:52Z</time></trkpt><trkpt lat="45.94258284090657" lon="10.311280719270012"><ele>620.0</ele><time>2026-04-25T13:36:53Z</time></trkpt><trkpt lat="45.942513507689014" lon="10.311352676258613"><ele>620.0</ele><time>2026-04-25T13:36:54Z</time></trkpt><trkpt lat="45.94246314825433" lon="10.311262738815918"><ele>626.0</ele><time>2026-04-25T13:36:56Z</time></trkpt><trkpt lat="45.942434803696024" lon="10.31104733922611"><ele>632.0</ele><time>2026-04-25T13:36:58Z</time></trkpt><trkpt lat="45.94245470394339" lon="10.310935150105914"><ele>638.0</ele><time>2026-04-25T13:36:59Z</time></trkpt><trkpt lat="45.94239698385938" lon="10.310853972231408"><ele>644.0</ele><time>2026-04-25T13:37:01Z</time></trkpt><trkpt lat="45.94233091098477" lon="10.310913568326233"><ele>650.0</ele><time>2026-04-25T13:37:05Z</time></trkpt><trkpt lat="45.94235685913211" lon="10.31099793329037"><ele>650.0</ele><time>2026-04-25T13:37:06Z</time></trkpt><trkpt lat="45.94230374723795" lon="10.311059148506404"><ele>650.0</ele><time>2026-04-25T13:37:14Z</time></trkpt><trkpt lat="45.94228710496213" lon="10.311154626013439"><ele>650.0</ele><time>2026-04-25T13:37:17Z</time></trkpt><trkpt lat="45.942228798302025" lon="10.31124038220379"><ele>650.0</ele><time>2026-04-25T13:37:19Z</time></trkpt><trkpt lat="45.94220290852926" lon="10.311330880794292"><ele>650.0</ele><time>2026-04-25T13:37:21Z</time></trkpt><trkpt lat="45.94216613486301" lon="10.311419400704295"><ele>650.0</ele><time>2026-04-25T13:37:23Z</time></trkpt><trkpt lat="45.94212581064059" lon="10.31149299161104"><ele>650.0</ele><time>2026-04-25T13:37:26Z</time></trkpt><trkpt lat="45.94204793460432" lon="10.311571094815122"><ele>648.6</ele><time>2026-04-25T13:37:28Z</time></trkpt><trkpt lat="45.94196875745581" lon="10.311606849800066"><ele>647.2</ele><time>2026-04-25T13:37:29Z</time></trkpt><trkpt lat="45.94189989409627" lon="10.311628740620739"><ele>645.8</ele><time>2026-04-25T13:37:30Z</time></trkpt><trkpt lat="45.94182771933563" lon="10.311668119370946"><ele>644.4</ele><time>2026-04-25T13:37:31Z</time></trkpt><trkpt lat="45.94172590088346" lon="10.311695665998888"><ele>643.0</ele><time>2026-04-25T13:37:32Z</time></trkpt><trkpt lat="45.941614868160464" lon="10.311743952633798"><ele>650.5999999999999</ele><time>2026-04-25T13:37:33Z</time></trkpt><trkpt lat="45.94151114877885" lon="10.311792320967319"><ele>658.1999999999999</ele><time>2026-04-25T13:37:34Z</time></trkpt><trkpt lat="45.941415002375614" lon="10.311862937866387"><ele>665.8</ele><time>2026-04-25T13:37:35Z</time></trkpt><trkpt lat="45.941379918019656" lon="10.311962890125539"><ele>673.4</ele><time>2026-04-25T13:37:36Z</time></trkpt><trkpt lat="45.94134004393728" lon="10.312047667926784"><ele>681.0</ele><time>2026-04-25T13:37:37Z</time></trkpt><trkpt lat="45.94129542869049" lon="10.312163426704876"><ele>681.0</ele><time>2026-04-25T13:37:38Z</time></trkpt><trkpt lat="45.94127283315745" lon="10.312283380549584"><ele>681.0</ele><time>2026-04-25T13:37:39Z</time></trkpt><trkpt lat="45.941241857332464" lon="10.31237255060263"><ele>681.0</ele><time>2026-04-25T13:37:40Z</time></trkpt><trkpt lat="45.94117033341202" lon="10.312415811886835"><ele>681.0</ele><time>2026-04-25T13:37:41Z</time></trkpt><trkpt lat="45.94110819730072" lon="10.312351778469695"><ele>681.0</ele><time>2026-04-25T13:37:43Z</time></trkpt><trkpt lat="45.94111032913752" lon="10.312257263016457"><ele>681.0</ele><time>2026-04-25T13:37:49Z</time></trkpt><trkpt lat="45.941153145730226" lon="10.312161924739796"><ele>681.0</ele><time>2026-04-25T13:37:51Z</time></trkpt><trkpt lat="45.94109322098646" lon="10.312014092491612"><ele>681.0</ele><time>2026-04-25T13:37:53Z</time></trkpt><trkpt lat="45.94102665300923" lon="10.311943626227954"><ele>681.0</ele><time>2026-04-25T13:37:54Z</time></trkpt><trkpt lat="45.94091242531353" lon="10.312042186165607"><ele>681.0</ele><time>2026-04-25T13:37:56Z</time></trkpt><trkpt lat="45.94088306238831" lon="10.312132791349784"><ele>681.0</ele><time>2026-04-25T13:37:58Z</time></trkpt><trkpt lat="45.940815145262256" lon="10.312206393532243"><ele>686.5999999999999</ele><time>2026-04-25T13:38:00Z</time></trkpt><trkpt lat="45.94070623659313" lon="10.312279420426194"><ele>692.2</ele><time>2026-04-25T13:38:03Z</time></trkpt><trkpt lat="45.94059954721604" lon="10.312388885112489"><ele>697.8</ele><time>2026-04-25T13:38:05Z</time></trkpt><trkpt lat="45.94053798418842" lon="10.31240987554568"><ele>703.4000000000001</ele><time>2026-04-25T13:38:06Z</time></trkpt><trkpt lat="45.94042500383265" lon="10.3124266972555"><ele>709.0</ele><time>2026-04-25T13:38:08Z</time></trkpt><trkpt lat="45.940356661869885" lon="10.312445199314572"><ele>709.0</ele><time>2026-04-25T13:38:09Z</time></trkpt><trkpt lat="45.94026302166544" lon="10.312441260790372"><ele>709.0</ele><time>2026-04-25T13:38:11Z</time></trkpt><trkpt lat="45.94020627958251" lon="10.312516043654078"><ele>709.0</ele><time>2026-04-25T13:38:15Z</time></trkpt><trkpt lat="45.94008653989566" lon="10.312576277339678"><ele>709.0</ele><time>2026-04-25T13:38:17Z</time></trkpt><trkpt lat="45.940194037813534" lon="10.31247009357212"><ele>709.0</ele><time>2026-04-25T13:38:18Z</time></trkpt><trkpt lat="45.94014121187056" lon="10.312521613680877"><ele>715.2</ele><time>2026-04-25T13:38:22Z</time></trkpt><trkpt lat="45.93999781184373" lon="10.312539728038612"><ele>721.4000000000001</ele><time>2026-04-25T13:38:25Z</time></trkpt><trkpt lat="45.939938830757065" lon="10.31258651159645"><ele>727.6</ele><time>2026-04-25T13:38:27Z</time></trkpt><trkpt lat="45.93984373972244" lon="10.312630202108616"><ele>733.8</ele><time>2026-04-25T13:38:31.001Z</time></trkpt><trkpt lat="45.93971837700142" lon="10.312616953237939"><ele>740.0</ele><time>2026-04-25T13:38:38.001Z</time></trkpt><trkpt lat="45.93972234240321" lon="10.312726566016273"><ele>740.0</ele><time>2026-04-25T13:38:43.001Z</time></trkpt><trkpt lat="45.93964503775295" lon="10.31273143435666"><ele>740.0</ele><time>2026-04-25T13:38:45.001Z</time></trkpt><trkpt lat="45.93959721196713" lon="10.312792468177287"><ele>740.0</ele><time>2026-04-25T13:39:07.001Z</time></trkpt><trkpt lat="45.9397008326492" lon="10.312790911670476"><ele>740.0</ele><time>2026-04-25T13:39:43.001Z</time></trkpt><trkpt lat="45.93963012841313" lon="10.312819040598823"><ele>740.0</ele><time>2026-04-25T13:40:05.001Z</time></trkpt><trkpt lat="45.93955061344716" lon="10.312843507986845"><ele>740.0</ele><time>2026-04-25T13:40:07.001Z</time></trkpt><trkpt lat="45.939485030251696" lon="10.3128678590061"><ele>740.0</ele><time>2026-04-25T13:40:10.001Z</time></trkpt><trkpt lat="45.93936203970193" lon="10.312904600706243"><ele>740.0</ele><time>2026-04-25T13:40:12.001Z</time></trkpt><trkpt lat="45.93929238872571" lon="10.312945813192032"><ele>740.0</ele><time>2026-04-25T13:40:13.001Z</time></trkpt><trkpt lat="45.939178201255416" lon="10.313005767454888"><ele>740.0</ele><time>2026-04-25T13:40:14.001Z</time></trkpt><trkpt lat="45.93905042313509" lon="10.313040290126107"><ele>742.25</ele><time>2026-04-25T13:40:15.001Z</time></trkpt><trkpt lat="45.93891555859006" lon="10.313058797930292"><ele>744.5</ele><time>2026-04-25T13:40:16.001Z</time></trkpt><trkpt lat="45.93880264336839" lon="10.31307921335525"><ele>746.75</ele><time>2026-04-25T13:40:17.001Z</time></trkpt><trkpt lat="45.938678145072075" lon="10.313084015734882"><ele>749.0</ele><time>2026-04-25T13:40:18.001Z</time></trkpt><trkpt lat="45.93857332609242" lon="10.313095354966716"><ele>749.0</ele><time>2026-04-25T13:40:19.001Z</time></trkpt><trkpt lat="45.93848623733193" lon="10.313132706501937"><ele>749.0</ele><time>2026-04-25T13:40:20.001Z</time></trkpt><trkpt lat="45.93840332399802" lon="10.313144354076565"><ele>749.0</ele><time>2026-04-25T13:40:21.001Z</time></trkpt><trkpt lat="45.93832872971881" lon="10.313139700693071"><ele>749.0</ele><time>2026-04-25T13:40:22.001Z</time></trkpt><trkpt lat="45.93824353718722" lon="10.313155975697748"><ele>749.0</ele><time>2026-04-25T13:40:23.001Z</time></trkpt><trkpt lat="45.93816805313741" lon="10.31318730049316"><ele>749.0</ele><time>2026-04-25T13:40:25.001Z</time></trkpt><trkpt lat="45.93814129821245" lon="10.31334416909828"><ele>749.8000000000001</ele><time>2026-04-25T13:40:27.001Z</time></trkpt><trkpt lat="45.93815007931776" lon="10.313439736605904"><ele>750.6</ele><time>2026-04-25T13:40:28.001Z</time></trkpt><trkpt lat="45.93815089520655" lon="10.313553578877627"><ele>751.4</ele><time>2026-04-25T13:40:30.001Z</time></trkpt><trkpt lat="45.938192035820784" lon="10.313694860326489"><ele>752.2</ele><time>2026-04-25T13:40:32.001Z</time></trkpt><trkpt lat="45.938195994285934" lon="10.313865249834132"><ele>753.0</ele><time>2026-04-25T13:40:34.001Z</time></trkpt><trkpt lat="45.938160369612305" lon="10.31405537057429"><ele>753.0</ele><time>2026-04-25T13:40:36.001Z</time></trkpt><trkpt lat="45.938158041409146" lon="10.314167378095744"><ele>753.0</ele><time>2026-04-25T13:40:37.001Z</time></trkpt><trkpt lat="45.93816217751215" lon="10.314271562683691"><ele>753.0</ele><time>2026-04-25T13:40:38.001Z</time></trkpt><trkpt lat="45.93817463180133" lon="10.314380222074202"><ele>753.0</ele><time>2026-04-25T13:40:39.001Z</time></trkpt><trkpt lat="45.93820155322558" lon="10.314482649590275"><ele>753.0</ele><time>2026-04-25T13:40:40.001Z</time></trkpt><trkpt lat="45.93822971946168" lon="10.314590124923642"><ele>753.0</ele><time>2026-04-25T13:40:41.001Z</time></trkpt><trkpt lat="45.93825681427914" lon="10.314695770812614"><ele>752.5999999999999</ele><time>2026-04-25T13:40:42.001Z</time></trkpt><trkpt lat="45.938272320677534" lon="10.314828435287303"><ele>752.1999999999999</ele><time>2026-04-25T13:40:43.001Z</time></trkpt><trkpt lat="45.93829572404168" lon="10.31496622703572"><ele>751.8</ele><time>2026-04-25T13:40:44.001Z</time></trkpt><trkpt lat="45.93834575501667" lon="10.315103780045401"><ele>751.4</ele><time>2026-04-25T13:40:45.001Z</time></trkpt><trkpt lat="45.93841529131776" lon="10.31524967839818"><ele>751.0</ele><time>2026-04-25T13:40:46.001Z</time></trkpt><trkpt lat="45.93846277119403" lon="10.315419132850291"><ele>749.25</ele><time>2026-04-25T13:40:47.001Z</time></trkpt><trkpt lat="45.93851977802331" lon="10.31559087002383"><ele>747.5</ele><time>2026-04-25T13:40:48.001Z</time></trkpt><trkpt lat="45.93857012533576" lon="10.315763863989694"><ele>745.75</ele><time>2026-04-25T13:40:49.001Z</time></trkpt><trkpt lat="45.93861805718874" lon="10.315913555441504"><ele>744.0</ele><time>2026-04-25T13:40:50.001Z</time></trkpt><trkpt lat="45.938666459585114" lon="10.316018025262698"><ele>744.0</ele><time>2026-04-25T13:40:51.001Z</time></trkpt><trkpt lat="45.93870849592781" lon="10.31613677207415"><ele>744.0</ele><time>2026-04-25T13:40:52.001Z</time></trkpt><trkpt lat="45.93876240915372" lon="10.316271715099973"><ele>744.0</ele><time>2026-04-25T13:40:53.001Z</time></trkpt><trkpt lat="45.93881242599375" lon="10.316388319651354"><ele>744.0</ele><time>2026-04-25T13:40:54.001Z</time></trkpt><trkpt lat="45.9388660060288" lon="10.316508805526528"><ele>744.0</ele><time>2026-04-25T13:40:55.001Z</time></trkpt><trkpt lat="45.93890532419887" lon="10.31663377654095"><ele>743.5</ele><time>2026-04-25T13:40:56.001Z</time></trkpt><trkpt lat="45.93893621107471" lon="10.316773989180254"><ele>743.0</ele><time>2026-04-25T13:40:57.001Z</time></trkpt><trkpt lat="45.93895765966861" lon="10.3169010783629"><ele>742.5</ele><time>2026-04-25T13:40:58.001Z</time></trkpt><trkpt lat="45.93896629878628" lon="10.317007132773776"><ele>742.0</ele><time>2026-04-25T13:40:59.001Z</time></trkpt><trkpt lat="45.938972054040406" lon="10.317113424757283"><ele>741.5</ele><time>2026-04-25T13:41:00.001Z</time></trkpt><trkpt lat="45.938950009114116" lon="10.317217519015744"><ele>741.0</ele><time>2026-04-25T13:41:01.001Z</time></trkpt><trkpt lat="45.938909082126905" lon="10.317313349466287"><ele>741.0</ele><time>2026-04-25T13:41:02.001Z</time></trkpt><trkpt lat="45.93885676378468" lon="10.31739646775474"><ele>741.0</ele><time>2026-04-25T13:41:03.001Z</time></trkpt><trkpt lat="45.938829866227465" lon="10.317523329851118"><ele>741.0</ele><time>2026-04-25T13:41:04.001Z</time></trkpt><trkpt lat="45.93881181110098" lon="10.317678568557941"><ele>741.0</ele><time>2026-04-25T13:41:05.001Z</time></trkpt><trkpt lat="45.93878340996551" lon="10.317847935114132"><ele>741.0</ele><time>2026-04-25T13:41:06.001Z</time></trkpt><trkpt lat="45.93873404231368" lon="10.318029984772679"><ele>738.5</ele><time>2026-04-25T13:41:07.001Z</time></trkpt><trkpt lat="45.93868836000806" lon="10.318184571679273"><ele>736.0</ele><time>2026-04-25T13:41:08.001Z</time></trkpt><trkpt lat="45.938639759557205" lon="10.31832875437445"><ele>733.5</ele><time>2026-04-25T13:41:09.001Z</time></trkpt><trkpt lat="45.93858034760044" lon="10.318496173911884"><ele>731.0</ele><time>2026-04-25T13:41:10.001Z</time></trkpt><trkpt lat="45.938543916248776" lon="10.318681110735762"><ele>731.0</ele><time>2026-04-25T13:41:11.001Z</time></trkpt><trkpt lat="45.93852051714656" lon="10.318828881305032"><ele>731.0</ele><time>2026-04-25T13:41:12.001Z</time></trkpt><trkpt lat="45.93851366322178" lon="10.318965226951349"><ele>731.0</ele><time>2026-04-25T13:41:13.001Z</time></trkpt><trkpt lat="45.93851824684881" lon="10.319096670087001"><ele>731.0</ele><time>2026-04-25T13:41:14.001Z</time></trkpt><trkpt lat="45.938507222232154" lon="10.319235720250786"><ele>731.0</ele><time>2026-04-25T13:41:15.001Z</time></trkpt><trkpt lat="45.93847397608941" lon="10.319394611094747"><ele>730.8</ele><time>2026-04-25T13:41:16.001Z</time></trkpt><trkpt lat="45.93843827463752" lon="10.31953296452574"><ele>730.5999999999999</ele><time>2026-04-25T13:41:17.001Z</time></trkpt><trkpt lat="45.93840205510455" lon="10.319671853639194"><ele>730.4</ele><time>2026-04-25T13:41:18.001Z</time></trkpt><trkpt lat="45.938351770712" lon="10.319802819065776"><ele>730.2</ele><time>2026-04-25T13:41:19.001Z</time></trkpt><trkpt lat="45.93828504016449" lon="10.319932083147187"><ele>730.0</ele><time>2026-04-25T13:41:20.001Z</time></trkpt><trkpt lat="45.93821585342425" lon="10.320047817113476"><ele>735.0</ele><time>2026-04-25T13:41:21.001Z</time></trkpt><trkpt lat="45.93815338667359" lon="10.320158046811146"><ele>740.0</ele><time>2026-04-25T13:41:22.001Z</time></trkpt><trkpt lat="45.93813243394628" lon="10.320293028434314"><ele>745.0</ele><time>2026-04-25T13:41:23.001Z</time></trkpt><trkpt lat="45.938076777403836" lon="10.320430796283068"><ele>750.0</ele><time>2026-04-25T13:41:24.001Z</time></trkpt><trkpt lat="45.93804722570603" lon="10.320560000893874"><ele>755.0</ele><time>2026-04-25T13:41:25.001Z</time></trkpt><trkpt lat="45.93809027170178" lon="10.320720905488493"><ele>755.0</ele><time>2026-04-25T13:41:26.001Z</time></trkpt><trkpt lat="45.93814008748413" lon="10.32089517514776"><ele>755.0</ele><time>2026-04-25T13:41:27.001Z</time></trkpt><trkpt lat="45.93817347167469" lon="10.321060623525781"><ele>755.0</ele><time>2026-04-25T13:41:28.001Z</time></trkpt><trkpt lat="45.938192197363065" lon="10.321249704644508"><ele>755.0</ele><time>2026-04-25T13:41:29.001Z</time></trkpt><trkpt lat="45.938209987468255" lon="10.321438356398144"><ele>756.25</ele><time>2026-04-25T13:41:30.001Z</time></trkpt><trkpt lat="45.93821569168801" lon="10.321629407686105"><ele>757.5</ele><time>2026-04-25T13:41:31.001Z</time></trkpt><trkpt lat="45.938220272138125" lon="10.321807250998223"><ele>758.75</ele><time>2026-04-25T13:41:32.001Z</time></trkpt><trkpt lat="45.93820602244001" lon="10.321994994898732"><ele>760.0</ele><time>2026-04-25T13:41:33.001Z</time></trkpt><trkpt lat="45.93818274224431" lon="10.322175746646"><ele>760.75</ele><time>2026-04-25T13:41:34.001Z</time></trkpt><trkpt lat="45.93816496375648" lon="10.322361220589393"><ele>761.5</ele><time>2026-04-25T13:41:35.001Z</time></trkpt><trkpt lat="45.938155731779474" lon="10.32254665953537"><ele>762.25</ele><time>2026-04-25T13:41:36.001Z</time></trkpt><trkpt lat="45.938159772959764" lon="10.322734436036226"><ele>763.0</ele><time>2026-04-25T13:41:37.001Z</time></trkpt><trkpt lat="45.938165883975984" lon="10.322919127992744"><ele>764.5</ele><time>2026-04-25T13:41:38.001Z</time></trkpt><trkpt lat="45.938167730017774" lon="10.32310538617514"><ele>766.0</ele><time>2026-04-25T13:41:39.001Z</time></trkpt><trkpt lat="45.93817755229946" lon="10.323268245834909"><ele>767.5</ele><time>2026-04-25T13:41:40.001Z</time></trkpt><trkpt lat="45.93819588870485" lon="10.323419340664438"><ele>769.0</ele><time>2026-04-25T13:41:41.001Z</time></trkpt><trkpt lat="45.938213095160485" lon="10.32360018764894"><ele>769.0</ele><time>2026-04-25T13:41:42.001Z</time></trkpt><trkpt lat="45.93823058663771" lon="10.323785922014743"><ele>769.0</ele><time>2026-04-25T13:41:43.001Z</time></trkpt><trkpt lat="45.938251943631535" lon="10.323966113482756"><ele>769.0</ele><time>2026-04-25T13:41:44.001Z</time></trkpt><trkpt lat="45.93825952464356" lon="10.3241213727261"><ele>769.0</ele><time>2026-04-25T13:41:45.001Z</time></trkpt><trkpt lat="45.93826590847946" lon="10.324253054131384"><ele>770.25</ele><time>2026-04-25T13:41:46.001Z</time></trkpt><trkpt lat="45.93829736257772" lon="10.324344741453576"><ele>771.5</ele><time>2026-04-25T13:41:47.001Z</time></trkpt><trkpt lat="45.938425244680275" lon="10.32432634461268"><ele>772.75</ele><time>2026-04-25T13:41:49.001Z</time></trkpt><trkpt lat="45.93848461690534" lon="10.324268886055231"><ele>774.0</ele><time>2026-04-25T13:41:50.001Z</time></trkpt><trkpt lat="45.938638809242384" lon="10.3244969244349"><ele>774.0</ele><time>2026-04-25T13:41:51.001Z</time></trkpt><trkpt lat="45.93888467882715" lon="10.324379883267177"><ele>774.0</ele><time>2026-04-25T13:41:57.001Z</time></trkpt><trkpt lat="45.93895706091774" lon="10.324369876106788"><ele>774.0</ele><time>2026-04-25T13:41:59.001Z</time></trkpt><trkpt lat="45.93903924797494" lon="10.324407358911653"><ele>774.0</ele><time>2026-04-25T13:42:01.001Z</time></trkpt><trkpt lat="45.93917411287322" lon="10.324436404067361"><ele>776.1666666666666</ele><time>2026-04-25T13:42:03.001Z</time></trkpt><trkpt lat="45.93923620084417" lon="10.324459607694296"><ele>778.3333333333333</ele><time>2026-04-25T13:42:04.001Z</time></trkpt><trkpt lat="45.93932862612201" lon="10.32446782978886"><ele>780.5</ele><time>2026-04-25T13:42:05.001Z</time></trkpt><trkpt lat="45.93942802946049" lon="10.324478222863446"><ele>782.6666666666666</ele><time>2026-04-25T13:42:06.001Z</time></trkpt><trkpt lat="45.93952353809108" lon="10.324466212595711"><ele>784.8333333333333</ele><time>2026-04-25T13:42:07.001Z</time></trkpt><trkpt lat="45.93961215453789" lon="10.324429290635436"><ele>787.0</ele><time>2026-04-25T13:42:08.001Z</time></trkpt><trkpt lat="45.93969099725116" lon="10.324383812080143"><ele>786.9999999999999</ele><time>2026-04-25T13:42:09.001Z</time></trkpt><trkpt lat="45.93977706412787" lon="10.324320614629922"><ele>787.0</ele><time>2026-04-25T13:42:10.001Z</time></trkpt><trkpt lat="45.9398633426292" lon="10.324264057160718"><ele>787.0</ele><time>2026-04-25T13:42:11.001Z</time></trkpt><trkpt lat="45.93994974760728" lon="10.324242302231182"><ele>787.0</ele><time>2026-04-25T13:42:12.001Z</time></trkpt><trkpt lat="45.94002479415371" lon="10.324219293537006"><ele>786.9999999999999</ele><time>2026-04-25T13:42:13.001Z</time></trkpt><trkpt lat="45.940089113717264" lon="10.324185086381151"><ele>787.0</ele><time>2026-04-25T13:42:14.001Z</time></trkpt><trkpt lat="45.94015352295176" lon="10.324240918014217"><ele>791.1666666666666</ele><time>2026-04-25T13:42:15.001Z</time></trkpt><trkpt lat="45.940233981657954" lon="10.324260821545286"><ele>795.3333333333333</ele><time>2026-04-25T13:42:17.001Z</time></trkpt><trkpt lat="45.94025912738437" lon="10.324110855080509"><ele>799.5</ele><time>2026-04-25T13:42:19.001Z</time></trkpt><trkpt lat="45.94032251258337" lon="10.324026309691245"><ele>803.6666666666667</ele><time>2026-04-25T13:42:20.001Z</time></trkpt><trkpt lat="45.94033283238916" lon="10.323907786515377"><ele>807.8333333333334</ele><time>2026-04-25T13:42:21.001Z</time></trkpt><trkpt lat="45.940314661855" lon="10.32379750550486"><ele>812.0</ele><time>2026-04-25T13:42:22.001Z</time></trkpt><trkpt lat="45.94029307672327" lon="10.323695069360083"><ele>812.0000000000001</ele><time>2026-04-25T13:42:23.001Z</time></trkpt><trkpt lat="45.940211150779604" lon="10.323568672923196"><ele>812.0</ele><time>2026-04-25T13:42:25.001Z</time></trkpt><trkpt lat="45.94017026188018" lon="10.323476238507089"><ele>812.0</ele><time>2026-04-25T13:42:26.001Z</time></trkpt><trkpt lat="45.94012340661988" lon="10.323403341134858"><ele>812.0</ele><time>2026-04-25T13:42:27.001Z</time></trkpt><trkpt lat="45.940071819426926" lon="10.323343785714453"><ele>812.0000000000001</ele><time>2026-04-25T13:42:28.001Z</time></trkpt><trkpt lat="45.9400407556028" lon="10.323197240241743"><ele>812.0</ele><time>2026-04-25T13:42:30.001Z</time></trkpt><trkpt lat="45.93992531111318" lon="10.323179578523566"><ele>806.1666666666667</ele><time>2026-04-25T13:42:31.001Z</time></trkpt><trkpt lat="45.939880159206744" lon="10.323100793203722"><ele>800.3333333333334</ele><time>2026-04-25T13:42:32.001Z</time></trkpt><trkpt lat="45.93987206838161" lon="10.322988535135366"><ele>794.5</ele><time>2026-04-25T13:42:33.001Z</time></trkpt><trkpt lat="45.93985106682395" lon="10.3228725846284"><ele>788.6666666666667</ele><time>2026-04-25T13:42:34.001Z</time></trkpt><trkpt lat="45.93986734214571" lon="10.322767618122667"><ele>782.8333333333334</ele><time>2026-04-25T13:42:35.001Z</time></trkpt><trkpt lat="45.93988010095552" lon="10.322654020598108"><ele>777.0</ele><time>2026-04-25T13:42:36.001Z</time></trkpt><trkpt lat="45.9399121700458" lon="10.322548627062002"><ele>776.2</ele><time>2026-04-25T13:42:37.001Z</time></trkpt><trkpt lat="45.93992570322072" lon="10.322434624793619"><ele>775.4000000000001</ele><time>2026-04-25T13:42:38.001Z</time></trkpt><trkpt lat="45.939939382040485" lon="10.322310663155394"><ele>774.5999999999999</ele><time>2026-04-25T13:42:39.001Z</time></trkpt><trkpt lat="45.93995978902206" lon="10.32216557382983"><ele>773.8</ele><time>2026-04-25T13:42:40.001Z</time></trkpt><trkpt lat="45.93998417335162" lon="10.32202144833623"><ele>773.0</ele><time>2026-04-25T13:42:41.001Z</time></trkpt><trkpt lat="45.94000947743862" lon="10.321872300201022"><ele>773.8</ele><time>2026-04-25T13:42:42.001Z</time></trkpt><trkpt lat="45.94003195363589" lon="10.321735311140506"><ele>774.5999999999999</ele><time>2026-04-25T13:42:43.001Z</time></trkpt><trkpt lat="45.94006796385572" lon="10.321583417584025"><ele>775.4000000000001</ele><time>2026-04-25T13:42:44.001Z</time></trkpt><trkpt lat="45.940121847236774" lon="10.32142872614058"><ele>776.2</ele><time>2026-04-25T13:42:45.001Z</time></trkpt><trkpt lat="45.94015920929177" lon="10.321276581568348"><ele>777.0</ele><time>2026-04-25T13:42:46.001Z</time></trkpt><trkpt lat="45.940184492200316" lon="10.321122004673635"><ele>771.6</ele><time>2026-04-25T13:42:47.001Z</time></trkpt><trkpt lat="45.940245025910926" lon="10.320983967354845"><ele>766.2</ele><time>2026-04-25T13:42:48.001Z</time></trkpt><trkpt lat="45.94030967525445" lon="10.32085317838767"><ele>760.8</ele><time>2026-04-25T13:42:49.001Z</time></trkpt><trkpt lat="45.94037029600858" lon="10.320731697639703"><ele>755.4</ele><time>2026-04-25T13:42:50.001Z</time></trkpt><trkpt lat="45.9404321223278" lon="10.320619389305396"><ele>750.0</ele><time>2026-04-25T13:42:51.001Z</time></trkpt><trkpt lat="45.940504149075394" lon="10.320517200288059"><ele>746.4</ele><time>2026-04-25T13:42:52.001Z</time></trkpt><trkpt lat="45.940585505604005" lon="10.32043260901132"><ele>742.8</ele><time>2026-04-25T13:42:53.001Z</time></trkpt><trkpt lat="45.9406522635669" lon="10.320329245555335"><ele>739.2</ele><time>2026-04-25T13:42:54.001Z</time></trkpt><trkpt lat="45.94071451371711" lon="10.320224373377302"><ele>735.6</ele><time>2026-04-25T13:42:55.001Z</time></trkpt><trkpt lat="45.94074650515503" lon="10.320072661173674"><ele>732.0</ele><time>2026-04-25T13:42:56.001Z</time></trkpt><trkpt lat="45.940796022672785" lon="10.319944400041061"><ele>732.0</ele><time>2026-04-25T13:42:57.001Z</time></trkpt><trkpt lat="45.940852658380095" lon="10.319810791303977"><ele>732.0</ele><time>2026-04-25T13:42:58.001Z</time></trkpt><trkpt lat="45.940933393532255" lon="10.319682047134208"><ele>732.0</ele><time>2026-04-25T13:42:59.001Z</time></trkpt><trkpt lat="45.94103403064976" lon="10.319599197014009"><ele>732.0</ele><time>2026-04-25T13:43:00.001Z</time></trkpt><trkpt lat="45.94119538860339" lon="10.319555286432045"><ele>732.6666666666666</ele><time>2026-04-25T13:43:02.001Z</time></trkpt><trkpt lat="45.941258379683944" lon="10.319502634962378"><ele>733.3333333333333</ele><time>2026-04-25T13:43:03.001Z</time></trkpt><trkpt lat="45.9413195781056" lon="10.319245426658876"><ele>734.0</ele><time>2026-04-25T13:43:04.001Z</time></trkpt><trkpt lat="45.94112692149829" lon="10.318723677471878"><ele>730.0</ele><time>2026-04-25T13:43:05.001Z</time></trkpt><trkpt lat="45.94111035269009" lon="10.318550828334185"><ele>726.0</ele><time>2026-04-25T13:43:06.001Z</time></trkpt><trkpt lat="45.941123085958395" lon="10.318368117710577"><ele>722.0</ele><time>2026-04-25T13:43:07.001Z</time></trkpt><trkpt lat="45.941145524388816" lon="10.318159890799548"><ele>718.0</ele><time>2026-04-25T13:43:08.001Z</time></trkpt><trkpt lat="45.94116382662977" lon="10.317947999199959"><ele>714.5</ele><time>2026-04-25T13:43:09.001Z</time></trkpt><trkpt lat="45.941180652794905" lon="10.317755640895614"><ele>711.0</ele><time>2026-04-25T13:43:10.001Z</time></trkpt><trkpt lat="45.941199561578394" lon="10.317564629114269"><ele>707.5</ele><time>2026-04-25T13:43:11.001Z</time></trkpt><trkpt lat="45.94122447389796" lon="10.317373197895524"><ele>704.0</ele><time>2026-04-25T13:43:12.001Z</time></trkpt><trkpt lat="45.94124408886203" lon="10.317186874135174"><ele>700.2</ele><time>2026-04-25T13:43:13.001Z</time></trkpt><trkpt lat="45.941247240753505" lon="10.317014193271733"><ele>696.4000000000001</ele><time>2026-04-25T13:43:14.001Z</time></trkpt><trkpt lat="45.94127008454723" lon="10.31686168477686"><ele>692.6</ele><time>2026-04-25T13:43:15.001Z</time></trkpt><trkpt lat="45.94129586144396" lon="10.3167276803811"><ele>688.8</ele><time>2026-04-25T13:43:16.001Z</time></trkpt><trkpt lat="45.941335977499115" lon="10.31662544204682"><ele>685.0</ele><time>2026-04-25T13:43:17.001Z</time></trkpt><trkpt lat="45.94137581270817" lon="10.316525597570584"><ele>685.0</ele><time>2026-04-25T13:43:18.001Z</time></trkpt><trkpt lat="45.94145243816731" lon="10.316452493728717"><ele>685.0</ele><time>2026-04-25T13:43:19.001Z</time></trkpt><trkpt lat="45.94152091652056" lon="10.316430863785474"><ele>685.0</ele><time>2026-04-25T13:43:20.001Z</time></trkpt><trkpt lat="45.94158258925352" lon="10.316460650159652"><ele>685.0</ele><time>2026-04-25T13:43:21.001Z</time></trkpt><trkpt lat="45.94164742856332" lon="10.316539711803845"><ele>685.0</ele><time>2026-04-25T13:43:22.001Z</time></trkpt><trkpt lat="45.94171086483777" lon="10.31665046315269"><ele>685.0</ele><time>2026-04-25T13:43:23.001Z</time></trkpt><trkpt lat="45.94180886216478" lon="10.31677424887888"><ele>684.25</ele><time>2026-04-25T13:43:24.001Z</time></trkpt><trkpt lat="45.94189855316757" lon="10.316920751840424"><ele>683.5</ele><time>2026-04-25T13:43:25.001Z</time></trkpt><trkpt lat="45.94196367909183" lon="10.317023188336954"><ele>682.75</ele><time>2026-04-25T13:43:26.001Z</time></trkpt><trkpt lat="45.94201899147443" lon="10.317152391690707"><ele>682.0</ele><time>2026-04-25T13:43:27.001Z</time></trkpt><trkpt lat="45.94211971232631" lon="10.317344045188062"><ele>682.0</ele><time>2026-04-25T13:43:29.001Z</time></trkpt><trkpt lat="45.942173752841136" lon="10.317500326243936"><ele>682.0</ele><time>2026-04-25T13:43:30.001Z</time></trkpt><trkpt lat="45.94224912332827" lon="10.317618143483749"><ele>682.0</ele><time>2026-04-25T13:43:31.001Z</time></trkpt><trkpt lat="45.942302870400894" lon="10.317698305920612"><ele>682.0</ele><time>2026-04-25T13:43:32.001Z</time></trkpt><trkpt lat="45.94234616127312" lon="10.317811768480933"><ele>682.0</ele><time>2026-04-25T13:43:34.001Z</time></trkpt><trkpt lat="45.942414758301" lon="10.31792001973625"><ele>682.0</ele><time>2026-04-25T13:43:36.001Z</time></trkpt><trkpt lat="45.94248793401338" lon="10.31795456468985"><ele>682.0</ele><time>2026-04-25T13:43:37.001Z</time></trkpt><trkpt lat="45.94255490736977" lon="10.3179709883044"><ele>682.0</ele><time>2026-04-25T13:43:38.001Z</time></trkpt><trkpt lat="45.94263482331755" lon="10.317953859987659"><ele>682.0</ele><time>2026-04-25T13:43:39.001Z</time></trkpt><trkpt lat="45.94270424622621" lon="10.317860640017507"><ele>682.0</ele><time>2026-04-25T13:43:40.001Z</time></trkpt><trkpt lat="45.94276206206777" lon="10.317723978153337"><ele>682.0</ele><time>2026-04-25T13:43:41.001Z</time></trkpt><trkpt lat="45.94282766340713" lon="10.317579319470411"><ele>684.0</ele><time>2026-04-25T13:43:42.001Z</time></trkpt><trkpt lat="45.942841149155974" lon="10.317456439919985"><ele>686.0</ele><time>2026-04-25T13:43:43.001Z</time></trkpt><trkpt lat="45.94284096444961" lon="10.317326761202809"><ele>688.0</ele><time>2026-04-25T13:43:44.001Z</time></trkpt><trkpt lat="45.94278003724841" lon="10.317175327599895"><ele>690.0</ele><time>2026-04-25T13:43:45.001Z</time></trkpt><trkpt lat="45.942832007634586" lon="10.317077615118714"><ele>692.0</ele><time>2026-04-25T13:43:46.001Z</time></trkpt><trkpt lat="45.94286970187749" lon="10.316922867935103"><ele>692.0</ele><time>2026-04-25T13:43:47.001Z</time></trkpt><trkpt lat="45.94288369767208" lon="10.316733975842668"><ele>692.0</ele><time>2026-04-25T13:43:49.001Z</time></trkpt><trkpt lat="45.942896092115994" lon="10.316595445077208"><ele>692.0</ele><time>2026-04-25T13:43:50.001Z</time></trkpt><trkpt lat="45.94286276862662" lon="10.31640297376965"><ele>692.0</ele><time>2026-04-25T13:43:51.001Z</time></trkpt><trkpt lat="45.942889914834254" lon="10.316232779138279"><ele>689.0</ele><time>2026-04-25T13:43:52.001Z</time></trkpt><trkpt lat="45.942966115279916" lon="10.316087243341322"><ele>686.0</ele><time>2026-04-25T13:43:53.001Z</time></trkpt><trkpt lat="45.943055190939106" lon="10.315971443540361"><ele>683.0</ele><time>2026-04-25T13:43:54.001Z</time></trkpt><trkpt lat="45.94315672711785" lon="10.315848644563225"><ele>680.0</ele><time>2026-04-25T13:43:55.001Z</time></trkpt><trkpt lat="45.94322811691489" lon="10.315712112684043"><ele>680.0</ele><time>2026-04-25T13:43:56.001Z</time></trkpt><trkpt lat="45.94326924456832" lon="10.31558356886709"><ele>680.0</ele><time>2026-04-25T13:43:57.001Z</time></trkpt><trkpt lat="45.94330992963326" lon="10.31547599579503"><ele>680.0</ele><time>2026-04-25T13:43:58.001Z</time></trkpt><trkpt lat="45.94333651670413" lon="10.315332004684363"><ele>680.0</ele><time>2026-04-25T13:43:59.001Z</time></trkpt><trkpt lat="45.9433789285606" lon="10.315195886703345"><ele>680.0</ele><time>2026-04-25T13:44:00.001Z</time></trkpt><trkpt lat="45.94340672679072" lon="10.315074310794122"><ele>678.0</ele><time>2026-04-25T13:44:01.001Z</time></trkpt><trkpt lat="45.94345136388009" lon="10.314941754231441"><ele>676.0</ele><time>2026-04-25T13:44:02.001Z</time></trkpt><trkpt lat="45.94348844174262" lon="10.314775016374636"><ele>674.0</ele><time>2026-04-25T13:44:03.001Z</time></trkpt><trkpt lat="45.94354635008215" lon="10.314559209663305"><ele>672.0</ele><time>2026-04-25T13:44:04.001Z</time></trkpt><trkpt lat="45.94359298730928" lon="10.314441964579526"><ele>668.1666666666666</ele><time>2026-04-25T13:44:05.001Z</time></trkpt><trkpt lat="45.943640693209474" lon="10.314352567701416"><ele>664.3333333333334</ele><time>2026-04-25T13:44:06.001Z</time></trkpt><trkpt lat="45.94369739176079" lon="10.31429005312673"><ele>660.5</ele><time>2026-04-25T13:44:07.001Z</time></trkpt><trkpt lat="45.94378926492874" lon="10.314285934863518"><ele>656.6666666666667</ele><time>2026-04-25T13:44:08.001Z</time></trkpt><trkpt lat="45.9438734989834" lon="10.314304287206827"><ele>652.8333333333334</ele><time>2026-04-25T13:44:09.001Z</time></trkpt><trkpt lat="45.943958317329276" lon="10.314326330387024"><ele>649.0</ele><time>2026-04-25T13:44:10.001Z</time></trkpt><trkpt lat="45.94405709828113" lon="10.31434488224064"><ele>649.0</ele><time>2026-04-25T13:44:11.001Z</time></trkpt><trkpt lat="45.94414112390048" lon="10.314367352633004"><ele>649.0</ele><time>2026-04-25T13:44:12.001Z</time></trkpt><trkpt lat="45.94420779939792" lon="10.314393478422103"><ele>649.0</ele><time>2026-04-25T13:44:13.001Z</time></trkpt><trkpt lat="45.94427765282582" lon="10.314391909623849"><ele>649.0</ele><time>2026-04-25T13:44:14.001Z</time></trkpt><trkpt lat="45.94436994941324" lon="10.314373116790653"><ele>649.0</ele><time>2026-04-25T13:44:15.001Z</time></trkpt><trkpt lat="45.94445995823338" lon="10.31431206168488"><ele>649.0</ele><time>2026-04-25T13:44:16.001Z</time></trkpt><trkpt lat="45.944557501896185" lon="10.314264851963973"><ele>648.8000000000001</ele><time>2026-04-25T13:44:17.001Z</time></trkpt><trkpt lat="45.94464952207233" lon="10.31421349033459"><ele>648.6</ele><time>2026-04-25T13:44:18.001Z</time></trkpt><trkpt lat="45.9447426955304" lon="10.314195488850292"><ele>648.4</ele><time>2026-04-25T13:44:19.001Z</time></trkpt><trkpt lat="45.94485194086279" lon="10.31416932707357"><ele>648.2</ele><time>2026-04-25T13:44:20.001Z</time></trkpt><trkpt lat="45.944950584605465" lon="10.314080472032657"><ele>648.0</ele><time>2026-04-25T13:44:21.001Z</time></trkpt><trkpt lat="45.94505603967221" lon="10.313964928427914"><ele>641.4</ele><time>2026-04-25T13:44:22.001Z</time></trkpt><trkpt lat="45.94516254304135" lon="10.313858812744106"><ele>634.8</ele><time>2026-04-25T13:44:23.001Z</time></trkpt><trkpt lat="45.945268402640025" lon="10.313810521658125"><ele>628.2</ele><time>2026-04-25T13:44:24.001Z</time></trkpt><trkpt lat="45.9453371163213" lon="10.313786022171287"><ele>621.6</ele><time>2026-04-25T13:44:25.001Z</time></trkpt><trkpt lat="45.9454274247368" lon="10.31374891430293"><ele>615.0</ele><time>2026-04-25T13:44:26.001Z</time></trkpt><trkpt lat="45.94550036800148" lon="10.313694071154702"><ele>615.0</ele><time>2026-04-25T13:44:27.001Z</time></trkpt><trkpt lat="45.945574175982955" lon="10.31369706875831"><ele>615.0</ele><time>2026-04-25T13:44:28.001Z</time></trkpt><trkpt lat="45.945654477349024" lon="10.313723583691587"><ele>615.0</ele><time>2026-04-25T13:44:30.001Z</time></trkpt><trkpt lat="45.945616446985234" lon="10.313815146345165"><ele>615.0</ele><time>2026-04-25T13:44:42.001Z</time></trkpt><trkpt lat="45.94552482627596" lon="10.313816356181276"><ele>615.0</ele><time>2026-04-25T13:44:45.001Z</time></trkpt><trkpt lat="45.94551802237832" lon="10.313698725904025"><ele>615.0</ele><time>2026-04-25T13:44:49.001Z</time></trkpt><trkpt lat="45.94560700923646" lon="10.3136424424503"><ele>615.0</ele><time>2026-04-25T13:44:51.001Z</time></trkpt><trkpt lat="45.94568693165687" lon="10.313601093920948"><ele>615.0</ele><time>2026-04-25T13:44:52.001Z</time></trkpt><trkpt lat="45.945769223344854" lon="10.313578385988311"><ele>615.0</ele><time>2026-04-25T13:44:53.001Z</time></trkpt><trkpt lat="45.9458532244937" lon="10.31352472631049"><ele>615.0</ele><time>2026-04-25T13:44:54.001Z</time></trkpt><trkpt lat="45.945934054702484" lon="10.313517376975458"><ele>615.0</ele><time>2026-04-25T13:44:55.001Z</time></trkpt><trkpt lat="45.94604534075408" lon="10.313538495062227"><ele>613.0</ele><time>2026-04-25T13:44:56Z</time></trkpt><trkpt lat="45.94617341500489" lon="10.313570821146852"><ele>611.0</ele><time>2026-04-25T13:44:57Z</time></trkpt><trkpt lat="45.94629810899624" lon="10.31355840014187"><ele>609.0</ele><time>2026-04-25T13:44:58Z</time></trkpt><trkpt lat="45.94642094279523" lon="10.313503641515082"><ele>607.0</ele><time>2026-04-25T13:44:59Z</time></trkpt><trkpt lat="45.94652311025069" lon="10.313445220751829"><ele>607.0</ele><time>2026-04-25T13:45:00Z</time></trkpt><trkpt lat="45.946583109937976" lon="10.313411474481681"><ele>607.0</ele><time>2026-04-25T13:45:01Z</time></trkpt><trkpt lat="45.94666700886243" lon="10.313378478092378"><ele>607.0</ele><time>2026-04-25T13:45:02Z</time></trkpt><trkpt lat="45.94680271243798" lon="10.313339576714242"><ele>607.0</ele><time>2026-04-25T13:45:03Z</time></trkpt><trkpt lat="45.94696833311896" lon="10.31330587162306"><ele>605.0</ele><time>2026-04-25T13:45:04Z</time></trkpt><trkpt lat="45.947099116571614" lon="10.31327875777702"><ele>603.0</ele><time>2026-04-25T13:45:05Z</time></trkpt><trkpt lat="45.9471929331408" lon="10.313258949801176"><ele>601.0</ele><time>2026-04-25T13:45:06Z</time></trkpt><trkpt lat="45.94727751678605" lon="10.313225193175173"><ele>599.0</ele><time>2026-04-25T13:45:07Z</time></trkpt><trkpt lat="45.94739669494039" lon="10.313230036850534"><ele>597.0</ele><time>2026-04-25T13:45:09Z</time></trkpt><trkpt lat="45.94746977095571" lon="10.313289415845546"><ele>597.0</ele><time>2026-04-25T13:45:12Z</time></trkpt><trkpt lat="45.94748109187468" lon="10.313383909731643"><ele>597.0</ele><time>2026-04-25T13:45:15Z</time></trkpt><trkpt lat="45.94743481525118" lon="10.313275510552847"><ele>597.0</ele><time>2026-04-25T13:45:18Z</time></trkpt><trkpt lat="45.947398980652096" lon="10.313196180965052"><ele>597.0</ele><time>2026-04-25T13:45:20Z</time></trkpt><trkpt lat="45.94730961726348" lon="10.313221401147628"><ele>597.0</ele><time>2026-04-25T13:45:44Z</time></trkpt><trkpt lat="45.94721849626648" lon="10.313254992722023"><ele>597.0</ele><time>2026-04-25T13:45:46Z</time></trkpt><trkpt lat="45.94712005322848" lon="10.313256620181226"><ele>597.0</ele><time>2026-04-25T13:45:48Z</time></trkpt><trkpt lat="45.94701178889704" lon="10.313269933414979"><ele>597.0</ele><time>2026-04-25T13:45:50Z</time></trkpt><trkpt lat="45.94693872466065" lon="10.313280379062858"><ele>597.0</ele><time>2026-04-25T13:45:51Z</time></trkpt><trkpt lat="45.94686987988637" lon="10.313284377476686"><ele>597.0</ele><time>2026-04-25T13:45:52Z</time></trkpt><trkpt lat="45.94679257305519" lon="10.313290215013138"><ele>597.0</ele><time>2026-04-25T13:45:53Z</time></trkpt><trkpt lat="45.94671121861842" lon="10.313291456393932"><ele>597.0</ele><time>2026-04-25T13:45:54Z</time></trkpt><trkpt lat="45.946613989943636" lon="10.313306761468182"><ele>598.6666666666666</ele><time>2026-04-25T13:45:55Z</time></trkpt><trkpt lat="45.9465265737072" lon="10.313320269607605"><ele>600.3333333333334</ele><time>2026-04-25T13:45:56Z</time></trkpt><trkpt lat="45.9464399481423" lon="10.313324771032178"><ele>602.0</ele><time>2026-04-25T13:45:57Z</time></trkpt><trkpt lat="45.94636431488453" lon="10.313353811936112"><ele>603.6666666666667</ele><time>2026-04-25T13:45:58Z</time></trkpt><trkpt lat="45.94631306426667" lon="10.313436945585613"><ele>605.3333333333334</ele><time>2026-04-25T13:45:59Z</time></trkpt><trkpt lat="45.946266760459125" lon="10.313554567938874"><ele>607.0</ele><time>2026-04-25T13:46:00Z</time></trkpt><trkpt lat="45.94620903270795" lon="10.313659380284241"><ele>607.0</ele><time>2026-04-25T13:46:01Z</time></trkpt><trkpt lat="45.94612995180895" lon="10.31372544277388"><ele>607.0</ele><time>2026-04-25T13:46:02Z</time></trkpt><trkpt lat="45.94603122229185" lon="10.313728179832042"><ele>607.0</ele><time>2026-04-25T13:46:03Z</time></trkpt><trkpt lat="45.94591913924314" lon="10.313685455723961"><ele>607.0</ele><time>2026-04-25T13:46:04Z</time></trkpt><trkpt lat="45.945823415940374" lon="10.313653286948554"><ele>607.0</ele><time>2026-04-25T13:46:05Z</time></trkpt><trkpt lat="45.945746735146955" lon="10.313607059796489"><ele>608.3333333333334</ele><time>2026-04-25T13:46:06Z</time></trkpt><trkpt lat="45.94565998642669" lon="10.313578005073289"><ele>609.6666666666667</ele><time>2026-04-25T13:46:07Z</time></trkpt><trkpt lat="45.94558470102485" lon="10.3135506644893"><ele>611.0</ele><time>2026-04-25T13:46:08Z</time></trkpt><trkpt lat="45.94550295949807" lon="10.313560204116966"><ele>612.3333333333334</ele><time>2026-04-25T13:46:09Z</time></trkpt><trkpt lat="45.945415115899955" lon="10.313585985589736"><ele>613.6666666666666</ele><time>2026-04-25T13:46:10Z</time></trkpt><trkpt lat="45.945342809239825" lon="10.313585031573892"><ele>615.0</ele><time>2026-04-25T13:46:11Z</time></trkpt><trkpt lat="45.945393371708164" lon="10.313651069866976"><ele>615.0</ele><time>2026-04-25T13:46:14Z</time></trkpt><trkpt lat="45.945462658467136" lon="10.313651409680872"><ele>615.0</ele><time>2026-04-25T13:46:15Z</time></trkpt><trkpt lat="45.94553314028581" lon="10.313749606384304"><ele>615.0</ele><time>2026-04-25T13:46:17Z</time></trkpt><trkpt lat="45.945562378429244" lon="10.313837706192611"><ele>615.0</ele><time>2026-04-25T13:46:18Z</time></trkpt><trkpt lat="45.94565399657045" lon="10.314025693145327"><ele>615.0</ele><time>2026-04-25T13:46:20Z</time></trkpt><trkpt lat="45.94573469281738" lon="10.314187138946638"><ele>620.0</ele><time>2026-04-25T13:46:21Z</time></trkpt><trkpt lat="45.94579751569167" lon="10.314335606902345"><ele>625.0</ele><time>2026-04-25T13:46:22Z</time></trkpt><trkpt lat="45.94586045550846" lon="10.314450708189703"><ele>630.0</ele><time>2026-04-25T13:46:23Z</time></trkpt><trkpt lat="45.94599932161912" lon="10.314544125931128"><ele>635.0</ele><time>2026-04-25T13:46:24Z</time></trkpt><trkpt lat="45.946069873548396" lon="10.314638243951292"><ele>635.0</ele><time>2026-04-25T13:46:26Z</time></trkpt><trkpt lat="45.94611669215793" lon="10.31471378789603"><ele>635.0</ele><time>2026-04-25T13:46:27Z</time></trkpt><trkpt lat="45.94606125638766" lon="10.314840312043208"><ele>635.0</ele><time>2026-04-25T13:46:31Z</time></trkpt><trkpt lat="45.94608312326528" lon="10.314976040104055"><ele>635.0</ele><time>2026-04-25T13:46:32Z</time></trkpt><trkpt lat="45.946076196118376" lon="10.315104204510705"><ele>635.0</ele><time>2026-04-25T13:46:33Z</time></trkpt><trkpt lat="45.94612813611932" lon="10.315219347125995"><ele>638.8333333333333</ele><time>2026-04-25T13:46:34Z</time></trkpt><trkpt lat="45.946140402836" lon="10.31534818196086"><ele>642.6666666666666</ele><time>2026-04-25T13:46:35Z</time></trkpt><trkpt lat="45.946102988439634" lon="10.315438321534145"><ele>646.5</ele><time>2026-04-25T13:46:36Z</time></trkpt><trkpt lat="45.946122602114535" lon="10.315556191094922"><ele>650.3333333333334</ele><time>2026-04-25T13:46:37Z</time></trkpt><trkpt lat="45.946135285605415" lon="10.315676837552198"><ele>654.1666666666667</ele><time>2026-04-25T13:46:39.001Z</time></trkpt><trkpt lat="45.94610651239159" lon="10.315800503645526"><ele>658.0</ele><time>2026-04-25T13:46:42.001Z</time></trkpt><trkpt lat="45.94604419747987" lon="10.31588738829274"><ele>662.5999999999999</ele><time>2026-04-25T13:46:45.001Z</time></trkpt><trkpt lat="45.94608057119202" lon="10.316025343012875"><ele>667.1999999999999</ele><time>2026-04-25T13:46:48.001Z</time></trkpt><trkpt lat="45.946162758399545" lon="10.316091513780066"><ele>671.8</ele><time>2026-04-25T13:46:50.001Z</time></trkpt><trkpt lat="45.94624325610359" lon="10.316127304080142"><ele>676.4</ele><time>2026-04-25T13:46:52.001Z</time></trkpt><trkpt lat="45.946391140037804" lon="10.316180383737976"><ele>681.0</ele><time>2026-04-25T13:46:54.001Z</time></trkpt><trkpt lat="45.946486465934385" lon="10.316239263190376"><ele>681.0</ele><time>2026-04-25T13:46:55.001Z</time></trkpt><trkpt lat="45.94657447651961" lon="10.31633531738504"><ele>681.0</ele><time>2026-04-25T13:46:56.001Z</time></trkpt><trkpt lat="45.94663998343312" lon="10.31633173541645"><ele>681.0</ele><time>2026-04-25T13:46:57.001Z</time></trkpt><trkpt lat="45.94672308615265" lon="10.316374158916569"><ele>681.0</ele><time>2026-04-25T13:46:59.001Z</time></trkpt><trkpt lat="45.94677889587875" lon="10.31643604031948"><ele>681.0</ele><time>2026-04-25T13:47:01.001Z</time></trkpt><trkpt lat="45.94685062619835" lon="10.316485388991715"><ele>681.0</ele><time>2026-04-25T13:47:04Z</time></trkpt><trkpt lat="45.947028809710794" lon="10.316235183388644"><ele>679.3333333333334</ele><time>2026-04-25T13:47:07Z</time></trkpt><trkpt lat="45.94698986227539" lon="10.316341669111765"><ele>677.6666666666666</ele><time>2026-04-25T13:47:11Z</time></trkpt><trkpt lat="45.94697762830524" lon="10.316437312628667"><ele>676.0</ele><time>2026-04-25T13:47:13Z</time></trkpt><trkpt lat="45.94697488441711" lon="10.316528231529661"><ele>674.3333333333333</ele><time>2026-04-25T13:47:15Z</time></trkpt><trkpt lat="45.94692101303096" lon="10.316590356461148"><ele>672.6666666666666</ele><time>2026-04-25T13:47:16Z</time></trkpt><trkpt lat="45.94685656217247" lon="10.316640245025159"><ele>671.0</ele><time>2026-04-25T13:47:17Z</time></trkpt><trkpt lat="45.94674367112483" lon="10.316662722696966"><ele>677.1999999999999</ele><time>2026-04-25T13:47:19Z</time></trkpt><trkpt lat="45.94663417654164" lon="10.316740629756671"><ele>683.4</ele><time>2026-04-25T13:47:21Z</time></trkpt><trkpt lat="45.94658121084124" lon="10.316825473392703"><ele>689.6</ele><time>2026-04-25T13:47:22Z</time></trkpt><trkpt lat="45.946553780693" lon="10.316920526228461"><ele>695.8</ele><time>2026-04-25T13:47:23Z</time></trkpt><trkpt lat="45.9465715637156" lon="10.317069744617713"><ele>702.0</ele><time>2026-04-25T13:47:24Z</time></trkpt><trkpt lat="45.94663590664197" lon="10.31718138452326"><ele>697.5</ele><time>2026-04-25T13:47:25Z</time></trkpt><trkpt lat="45.94667177775427" lon="10.317382756037256"><ele>693.0</ele><time>2026-04-25T13:47:26Z</time></trkpt><trkpt lat="45.94672208811153" lon="10.317552600685234"><ele>688.5</ele><time>2026-04-25T13:47:27Z</time></trkpt><trkpt lat="45.9467783018995" lon="10.317741560336666"><ele>684.0</ele><time>2026-04-25T13:47:28Z</time></trkpt><trkpt lat="45.94680376097339" lon="10.317546667316188"><ele>684.0</ele><time>2026-04-25T13:47:29Z</time></trkpt><trkpt lat="45.94680355341575" lon="10.317655021581928"><ele>684.0</ele><time>2026-04-25T13:47:30Z</time></trkpt><trkpt lat="45.94684524473167" lon="10.317810468317886"><ele>684.0</ele><time>2026-04-25T13:47:32Z</time></trkpt><trkpt lat="45.946882485677776" lon="10.31790681628527"><ele>684.0</ele><time>2026-04-25T13:47:33Z</time></trkpt><trkpt lat="45.94694510968248" lon="10.317971035466732"><ele>684.0</ele><time>2026-04-25T13:47:35Z</time></trkpt><trkpt lat="45.94702321287824" lon="10.318128563555113"><ele>687.6666666666666</ele><time>2026-04-25T13:47:37Z</time></trkpt><trkpt lat="45.9471065626053" lon="10.318326394760396"><ele>691.3333333333333</ele><time>2026-04-25T13:47:38Z</time></trkpt><trkpt lat="45.947200930524374" lon="10.318535834241382"><ele>695.0</ele><time>2026-04-25T13:47:39Z</time></trkpt><trkpt lat="45.947272191484586" lon="10.318707575588295"><ele>695.0</ele><time>2026-04-25T13:47:40Z</time></trkpt><trkpt lat="45.94731728893278" lon="10.318870598487843"><ele>695.0</ele><time>2026-04-25T13:47:41Z</time></trkpt><trkpt lat="45.94731377657939" lon="10.319024411129819"><ele>695.0</ele><time>2026-04-25T13:47:42Z</time></trkpt><trkpt lat="45.94731545199068" lon="10.31915266705386"><ele>695.0</ele><time>2026-04-25T13:47:43Z</time></trkpt><trkpt lat="45.94728755994907" lon="10.31926446277382"><ele>695.0</ele><time>2026-04-25T13:47:44Z</time></trkpt><trkpt lat="45.94727238148748" lon="10.319383215659396"><ele>698.8</ele><time>2026-04-25T13:47:45Z</time></trkpt><trkpt lat="45.9472974254081" lon="10.319511228736326"><ele>702.6</ele><time>2026-04-25T13:47:48Z</time></trkpt><trkpt lat="45.947321730611414" lon="10.319655370484302"><ele>706.4000000000001</ele><time>2026-04-25T13:47:50Z</time></trkpt><trkpt lat="45.94736624691669" lon="10.319799090027605"><ele>710.2</ele><time>2026-04-25T13:47:52Z</time></trkpt><trkpt lat="45.94737627400043" lon="10.31993468093697"><ele>714.0</ele><time>2026-04-25T13:47:54Z</time></trkpt><trkpt lat="45.94739428227549" lon="10.32012373740308"><ele>717.0</ele><time>2026-04-25T13:47:56Z</time></trkpt><trkpt lat="45.94744840677982" lon="10.320225723067388"><ele>720.0</ele><time>2026-04-25T13:47:57Z</time></trkpt><trkpt lat="45.947518664111264" lon="10.320329999203418"><ele>723.0</ele><time>2026-04-25T13:47:59Z</time></trkpt><trkpt lat="45.94756940370697" lon="10.320473612287472"><ele>726.0</ele><time>2026-04-25T13:48:01Z</time></trkpt><trkpt lat="45.94761445967183" lon="10.320579579227363"><ele>729.0</ele><time>2026-04-25T13:48:03Z</time></trkpt><trkpt lat="45.94833785186659" lon="10.319790162649529"><ele>719.0</ele><time>2026-04-25T13:48:18Z</time></trkpt><trkpt lat="45.948402426191" lon="10.319801056233915"><ele>709.0</ele><time>2026-04-25T13:48:19Z</time></trkpt><trkpt lat="45.94847088921022" lon="10.31987771742447"><ele>699.0</ele><time>2026-04-25T13:48:20Z</time></trkpt><trkpt lat="45.94854368143437" lon="10.319971324658756"><ele>689.0</ele><time>2026-04-25T13:48:22Z</time></trkpt><trkpt lat="45.94865871452317" lon="10.320092244373377"><ele>679.0</ele><time>2026-04-25T13:48:30Z</time></trkpt><trkpt lat="45.94874830035981" lon="10.320113061267309"><ele>679.0</ele><time>2026-04-25T13:48:32Z</time></trkpt><trkpt lat="45.948993071196995" lon="10.320155347135028"><ele>679.0</ele><time>2026-04-25T13:48:39Z</time></trkpt><trkpt lat="45.94911507795798" lon="10.32019930677388"><ele>679.0</ele><time>2026-04-25T13:48:40Z</time></trkpt><trkpt lat="45.94922054215895" lon="10.320247542667179"><ele>676.5</ele><time>2026-04-25T13:48:41Z</time></trkpt><trkpt lat="45.949556193137326" lon="10.320532746447169"><ele>674.0</ele><time>2026-04-25T13:48:44Z</time></trkpt><trkpt lat="45.94983523988982" lon="10.320558923800585"><ele>683.5</ele><time>2026-04-25T13:48:46Z</time></trkpt><trkpt lat="45.95014448680567" lon="10.320629823961285"><ele>693.0</ele><time>2026-04-25T13:48:48Z</time></trkpt><trkpt lat="45.950328175699575" lon="10.320652613126667"><ele>692.0</ele><time>2026-04-25T13:48:49Z</time></trkpt><trkpt lat="45.95138040608607" lon="10.320835096787075"><ele>692.0</ele><time>2026-04-25T13:48:58Z</time></trkpt><trkpt lat="45.9516403411518" lon="10.320921584514121"><ele>692.0</ele><time>2026-04-25T13:49:00Z</time></trkpt><trkpt lat="45.95171620062116" lon="10.320888863892327"><ele>692.0</ele><time>2026-04-25T13:49:01Z</time></trkpt><trkpt lat="45.951773241370155" lon="10.320807214974685"><ele>692.0</ele><time>2026-04-25T13:49:03Z</time></trkpt><trkpt lat="45.95191896730242" lon="10.320714107842884"><ele>691.75</ele><time>2026-04-25T13:49:06Z</time></trkpt><trkpt lat="45.952119028033174" lon="10.320776699333184"><ele>691.5</ele><time>2026-04-25T13:49:09Z</time></trkpt><trkpt lat="45.952246014772776" lon="10.320811328436378"><ele>691.25</ele><time>2026-04-25T13:49:11Z</time></trkpt><trkpt lat="45.952311956109604" lon="10.320854080872175"><ele>691.0</ele><time>2026-04-25T13:49:12Z</time></trkpt><trkpt lat="45.952430266063025" lon="10.320929825845827"><ele>691.0</ele><time>2026-04-25T13:49:14Z</time></trkpt><trkpt lat="45.952498240794405" lon="10.320968937547638"><ele>691.0</ele><time>2026-04-25T13:49:15Z</time></trkpt><trkpt lat="45.95258239538709" lon="10.321073243230542"><ele>691.0</ele><time>2026-04-25T13:49:17Z</time></trkpt><trkpt lat="45.95265880383646" lon="10.32114863602608"><ele>691.0</ele><time>2026-04-25T13:49:19Z</time></trkpt><trkpt lat="45.952738369217435" lon="10.321195778509614"><ele>691.0</ele><time>2026-04-25T13:49:21Z</time></trkpt><trkpt lat="45.95280435317248" lon="10.321245582396024"><ele>691.0</ele><time>2026-04-25T13:49:23Z</time></trkpt><trkpt lat="45.952868419964275" lon="10.321341082561219"><ele>693.4</ele><time>2026-04-25T13:49:25Z</time></trkpt><trkpt lat="45.95291811807852" lon="10.32148087036771"><ele>695.8</ele><time>2026-04-25T13:49:28Z</time></trkpt><trkpt lat="45.95296077529041" lon="10.321589431149306"><ele>698.1999999999999</ele><time>2026-04-25T13:49:30Z</time></trkpt><trkpt lat="45.95296770806068" lon="10.321754831902203"><ele>700.5999999999999</ele><time>2026-04-25T13:49:33Z</time></trkpt><trkpt lat="45.95295592388849" lon="10.321861154013032"><ele>703.0</ele><time>2026-04-25T13:49:34Z</time></trkpt><trkpt lat="45.95292401435914" lon="10.321961810238806"><ele>703.0</ele><time>2026-04-25T13:49:35Z</time></trkpt><trkpt lat="45.95293017761301" lon="10.322070664943388"><ele>703.0</ele><time>2026-04-25T13:49:36Z</time></trkpt><trkpt lat="45.95301001553837" lon="10.32212680036082"><ele>703.0</ele><time>2026-04-25T13:49:37Z</time></trkpt><trkpt lat="45.95312018522467" lon="10.322098115725902"><ele>703.0</ele><time>2026-04-25T13:49:38Z</time></trkpt><trkpt lat="45.95325290218648" lon="10.321995032206013"><ele>703.0</ele><time>2026-04-25T13:49:39Z</time></trkpt><trkpt lat="45.95334400000655" lon="10.321930525705397"><ele>705.5</ele><time>2026-04-25T13:49:40Z</time></trkpt><trkpt lat="45.953437481982625" lon="10.321828962533985"><ele>708.0</ele><time>2026-04-25T13:49:41Z</time></trkpt><trkpt lat="45.95349212910963" lon="10.321743706085977"><ele>710.5</ele><time>2026-04-25T13:49:42Z</time></trkpt><trkpt lat="45.9536167066468" lon="10.321679505954208"><ele>713.0</ele><time>2026-04-25T13:49:43Z</time></trkpt><trkpt lat="45.95372095543926" lon="10.321565845651577"><ele>713.0</ele><time>2026-04-25T13:49:44Z</time></trkpt><trkpt lat="45.9537953298879" lon="10.32149673976303"><ele>713.0</ele><time>2026-04-25T13:49:45Z</time></trkpt><trkpt lat="45.95388950083049" lon="10.321467999675177"><ele>713.0</ele><time>2026-04-25T13:49:46Z</time></trkpt><trkpt lat="45.95398939900298" lon="10.321462739780118"><ele>713.0</ele><time>2026-04-25T13:49:47Z</time></trkpt><trkpt lat="45.95408792106199" lon="10.321487362611958"><ele>713.0</ele><time>2026-04-25T13:49:48Z</time></trkpt><trkpt lat="45.95420029068057" lon="10.321577572817365"><ele>713.75</ele><time>2026-04-25T13:49:49Z</time></trkpt><trkpt lat="45.95431762748466" lon="10.321690596268748"><ele>714.5</ele><time>2026-04-25T13:49:50Z</time></trkpt><trkpt lat="45.954396573906855" lon="10.321857169798038"><ele>715.25</ele><time>2026-04-25T13:49:51Z</time></trkpt><trkpt lat="45.95443973429875" lon="10.321996342257265"><ele>716.0</ele><time>2026-04-25T13:49:52Z</time></trkpt><trkpt lat="45.95449933335095" lon="10.32214146841914"><ele>720.1999999999999</ele><time>2026-04-25T13:49:53Z</time></trkpt><trkpt lat="45.95455925562009" lon="10.322269507851798"><ele>724.4</ele><time>2026-04-25T13:49:54Z</time></trkpt><trkpt lat="45.95462976043228" lon="10.322411304622976"><ele>728.6</ele><time>2026-04-25T13:49:55Z</time></trkpt><trkpt lat="45.95471030450498" lon="10.322545922555285"><ele>732.8</ele><time>2026-04-25T13:49:56Z</time></trkpt><trkpt lat="45.954762931297736" lon="10.3226401603647"><ele>737.0</ele><time>2026-04-25T13:49:57Z</time></trkpt><trkpt lat="45.954795805508816" lon="10.322789889422413"><ele>737.0</ele><time>2026-04-25T13:49:59Z</time></trkpt><trkpt lat="45.95481185074894" lon="10.322919036165501"><ele>737.0</ele><time>2026-04-25T13:50:00Z</time></trkpt><trkpt lat="45.95487631670756" lon="10.323040403368907"><ele>737.0</ele><time>2026-04-25T13:50:01Z</time></trkpt><trkpt lat="45.95493413382383" lon="10.3231993752728"><ele>737.0</ele><time>2026-04-25T13:50:02Z</time></trkpt><trkpt lat="45.95501301734285" lon="10.3233691009496"><ele>740.5</ele><time>2026-04-25T13:50:03Z</time></trkpt><trkpt lat="45.955167622004026" lon="10.32361013836204"><ele>744.0</ele><time>2026-04-25T13:50:04Z</time></trkpt><trkpt lat="45.955344494897844" lon="10.323879818963112"><ele>747.0</ele><time>2026-04-25T13:50:05Z</time></trkpt><trkpt lat="45.955480981754285" lon="10.324096757004794"><ele>750.0</ele><time>2026-04-25T13:50:06Z</time></trkpt><trkpt lat="45.95558683923347" lon="10.324329840355377"><ele>753.0</ele><time>2026-04-25T13:50:07Z</time></trkpt><trkpt lat="45.95567968446122" lon="10.324450722914472"><ele>753.0</ele><time>2026-04-25T13:50:08Z</time></trkpt><trkpt lat="45.95577645492917" lon="10.324626928890456"><ele>753.0</ele><time>2026-04-25T13:50:09Z</time></trkpt><trkpt lat="45.95582448702716" lon="10.324789526246972"><ele>753.0</ele><time>2026-04-25T13:50:10Z</time></trkpt><trkpt lat="45.95587499504787" lon="10.324939632017854"><ele>753.0</ele><time>2026-04-25T13:50:11Z</time></trkpt><trkpt lat="45.95591448569276" lon="10.325059283958346"><ele>753.3333333333334</ele><time>2026-04-25T13:50:12Z</time></trkpt><trkpt lat="45.95594452448199" lon="10.32515472470248"><ele>753.6666666666666</ele><time>2026-04-25T13:50:13Z</time></trkpt><trkpt lat="45.955972697640625" lon="10.32528206355347"><ele>754.0</ele><time>2026-04-25T13:50:14Z</time></trkpt><trkpt lat="45.95601150841604" lon="10.325370058564982"><ele>754.3333333333333</ele><time>2026-04-25T13:50:15Z</time></trkpt><trkpt lat="45.95607319758458" lon="10.325457180467732"><ele>754.6666666666666</ele><time>2026-04-25T13:50:16Z</time></trkpt><trkpt lat="45.956121389284675" lon="10.32554371589721"><ele>755.0</ele><time>2026-04-25T13:50:17Z</time></trkpt><trkpt lat="45.95616709476206" lon="10.325612365520502"><ele>755.0</ele><time>2026-04-25T13:50:18Z</time></trkpt><trkpt lat="45.956223089699186" lon="10.325666798600277"><ele>755.0</ele><time>2026-04-25T13:50:23Z</time></trkpt><trkpt lat="45.95625453433963" lon="10.325813293801895"><ele>755.0</ele><time>2026-04-25T13:50:36Z</time></trkpt><trkpt lat="45.956325808615055" lon="10.32588009575956"><ele>755.0</ele><time>2026-04-25T13:50:39Z</time></trkpt><trkpt lat="45.95640979299719" lon="10.325984097084758"><ele>755.0</ele><time>2026-04-25T13:50:41Z</time></trkpt><trkpt lat="45.95646933164719" lon="10.326022638766009"><ele>755.0</ele><time>2026-04-25T13:50:42Z</time></trkpt><trkpt lat="45.956558483754264" lon="10.326132961852391"><ele>755.0</ele><time>2026-04-25T13:50:44Z</time></trkpt><trkpt lat="45.95661179548866" lon="10.326199322002891"><ele>755.0</ele><time>2026-04-25T13:50:45Z</time></trkpt><trkpt lat="45.95666449091307" lon="10.326339887778552"><ele>755.0</ele><time>2026-04-25T13:50:46Z</time></trkpt><trkpt lat="45.956713976464684" lon="10.326453863678392"><ele>755.0</ele><time>2026-04-25T13:50:47Z</time></trkpt><trkpt lat="45.956778491240044" lon="10.326531577642424"><ele>755.0</ele><time>2026-04-25T13:50:48Z</time></trkpt><trkpt lat="45.95685678638714" lon="10.326630105899142"><ele>754.6666666666666</ele><time>2026-04-25T13:50:49Z</time></trkpt><trkpt lat="45.95692338247963" lon="10.326720622047146"><ele>754.3333333333333</ele><time>2026-04-25T13:50:50Z</time></trkpt><trkpt lat="45.956990571544424" lon="10.32680774643348"><ele>754.0</ele><time>2026-04-25T13:50:51Z</time></trkpt><trkpt lat="45.957063941699715" lon="10.326892094445057"><ele>753.6666666666666</ele><time>2026-04-25T13:50:52Z</time></trkpt><trkpt lat="45.957128296288005" lon="10.326965248238432"><ele>753.3333333333334</ele><time>2026-04-25T13:50:53Z</time></trkpt><trkpt lat="45.957200527108334" lon="10.327033539708232"><ele>753.0</ele><time>2026-04-25T13:50:54Z</time></trkpt><trkpt lat="45.957287092581964" lon="10.327067227625484"><ele>753.0</ele><time>2026-04-25T13:50:55Z</time></trkpt><trkpt lat="45.957362518779185" lon="10.327107061587911"><ele>753.0</ele><time>2026-04-25T13:50:56Z</time></trkpt><trkpt lat="45.95744281888061" lon="10.327122203406889"><ele>753.0</ele><time>2026-04-25T13:50:57Z</time></trkpt><trkpt lat="45.95756750103654" lon="10.327160851551206"><ele>753.0</ele><time>2026-04-25T13:50:59Z</time></trkpt><trkpt lat="45.95762815320113" lon="10.327188779472388"><ele>753.0</ele><time>2026-04-25T13:51:00Z</time></trkpt><trkpt lat="45.95768735470239" lon="10.327238531925584"><ele>753.0</ele><time>2026-04-25T13:51:01Z</time></trkpt><trkpt lat="45.957760728727834" lon="10.32730584148672"><ele>754.1666666666666</ele><time>2026-04-25T13:51:02Z</time></trkpt><trkpt lat="45.95782306380678" lon="10.327371032919812"><ele>755.3333333333334</ele><time>2026-04-25T13:51:03Z</time></trkpt><trkpt lat="45.95787934521982" lon="10.327434208362568"><ele>756.5</ele><time>2026-04-25T13:51:04Z</time></trkpt><trkpt lat="45.95794075718201" lon="10.327492002153612"><ele>757.6666666666667</ele><time>2026-04-25T13:51:05Z</time></trkpt><trkpt lat="45.95800719047731" lon="10.327548103307672"><ele>758.8333333333334</ele><time>2026-04-25T13:51:06Z</time></trkpt><trkpt lat="45.958081488430985" lon="10.32755754794245"><ele>760.0</ele><time>2026-04-25T13:51:07Z</time></trkpt><trkpt lat="45.95816163584945" lon="10.327530653463462"><ele>760.0</ele><time>2026-04-25T13:51:08Z</time></trkpt><trkpt lat="45.95823450467415" lon="10.327478013817656"><ele>760.0</ele><time>2026-04-25T13:51:09Z</time></trkpt><trkpt lat="45.958305641025895" lon="10.327427458441774"><ele>760.0</ele><time>2026-04-25T13:51:10Z</time></trkpt><trkpt lat="45.958362950760275" lon="10.327377237202509"><ele>760.0</ele><time>2026-04-25T13:51:11Z</time></trkpt><trkpt lat="45.95842256855173" lon="10.327318400493356"><ele>760.0</ele><time>2026-04-25T13:51:12Z</time></trkpt><trkpt lat="45.95847598380851" lon="10.3272556144888"><ele>760.0</ele><time>2026-04-25T13:51:13Z</time></trkpt><trkpt lat="45.95853701604115" lon="10.32722496444137"><ele>760.0</ele><time>2026-04-25T13:51:14Z</time></trkpt><trkpt lat="45.958622385774355" lon="10.327199279111301"><ele>760.5</ele><time>2026-04-25T13:51:15Z</time></trkpt><trkpt lat="45.95869978000256" lon="10.32719019484927"><ele>761.0</ele><time>2026-04-25T13:51:16Z</time></trkpt><trkpt lat="45.958781205898184" lon="10.327177194819468"><ele>761.5</ele><time>2026-04-25T13:51:18Z</time></trkpt><trkpt lat="45.95879335037489" lon="10.32727305007605"><ele>762.0</ele><time>2026-04-25T13:51:25Z</time></trkpt><trkpt lat="45.95879245219014" lon="10.327382406376845"><ele>762.5</ele><time>2026-04-25T13:51:29Z</time></trkpt><trkpt lat="45.95877454268482" lon="10.327478263618525"><ele>763.0</ele><time>2026-04-25T13:51:32Z</time></trkpt><trkpt lat="45.9587247692804" lon="10.327569201932757"><ele>763.0</ele><time>2026-04-25T13:51:35Z</time></trkpt><trkpt lat="45.95879537717069" lon="10.327738482351865"><ele>763.0</ele><time>2026-04-25T13:51:37Z</time></trkpt><trkpt lat="45.95886506940487" lon="10.327863392890238"><ele>763.0</ele><time>2026-04-25T13:51:38Z</time></trkpt><trkpt lat="45.9589172694247" lon="10.327972753098237"><ele>763.0</ele><time>2026-04-25T13:51:39Z</time></trkpt><trkpt lat="45.95895120708037" lon="10.328050540506855"><ele>763.0</ele><time>2026-04-25T13:51:40Z</time></trkpt><trkpt lat="45.95898648487344" lon="10.328147415203347"><ele>761.8333333333334</ele><time>2026-04-25T13:51:43Z</time></trkpt><trkpt lat="45.95902667167095" lon="10.328282905887926"><ele>760.6666666666667</ele><time>2026-04-25T13:51:45Z</time></trkpt><trkpt lat="45.95905978463508" lon="10.328391769379357"><ele>759.5</ele><time>2026-04-25T13:51:47Z</time></trkpt><trkpt lat="45.95911316138525" lon="10.328450529811878"><ele>758.3333333333334</ele><time>2026-04-25T13:54:25Z</time></trkpt><trkpt lat="45.95918170042471" lon="10.328430347571006"><ele>757.1666666666666</ele><time>2026-04-25T13:54:28Z</time></trkpt><trkpt lat="45.95927111860909" lon="10.328430177557635"><ele>756.0</ele><time>2026-04-25T13:54:30Z</time></trkpt><trkpt lat="45.95934414894702" lon="10.328455992650303"><ele>754.0</ele><time>2026-04-25T13:54:33Z</time></trkpt><trkpt lat="45.95942180682996" lon="10.328459672276358"><ele>752.0</ele><time>2026-04-25T13:54:36Z</time></trkpt><trkpt lat="45.959490648647716" lon="10.328439523694358"><ele>750.0</ele><time>2026-04-25T13:54:39Z</time></trkpt><trkpt lat="45.95958184498232" lon="10.328421360754325"><ele>748.0</ele><time>2026-04-25T13:54:42Z</time></trkpt><trkpt lat="45.959684661550085" lon="10.328454098570754"><ele>746.0</ele><time>2026-04-25T13:54:44Z</time></trkpt><trkpt lat="45.95976677684485" lon="10.328485007853601"><ele>744.0</ele><time>2026-04-25T13:54:47Z</time></trkpt><trkpt lat="45.95989796341036" lon="10.328483951724774"><ele>744.0</ele><time>2026-04-25T13:54:48Z</time></trkpt><trkpt lat="45.96000637406098" lon="10.328465415282425"><ele>744.0</ele><time>2026-04-25T13:54:50Z</time></trkpt><trkpt lat="45.96009631929624" lon="10.328446038069217"><ele>744.0</ele><time>2026-04-25T13:54:52Z</time></trkpt><trkpt lat="45.96016028653113" lon="10.328450040402451"><ele>744.0</ele><time>2026-04-25T13:54:53Z</time></trkpt><trkpt lat="45.960223650033406" lon="10.328467210103183"><ele>744.0</ele><time>2026-04-25T13:54:54Z</time></trkpt><trkpt lat="45.96029412380275" lon="10.328470566184281"><ele>744.0</ele><time>2026-04-25T13:54:55Z</time></trkpt><trkpt lat="45.960365569540194" lon="10.328476570954399"><ele>738.2</ele><time>2026-04-25T13:54:56Z</time></trkpt><trkpt lat="45.96048458063301" lon="10.328515267154298"><ele>732.4000000000001</ele><time>2026-04-25T13:54:58Z</time></trkpt><trkpt lat="45.96058790191684" lon="10.32851986718105"><ele>726.6</ele><time>2026-04-25T13:55:00Z</time></trkpt><trkpt lat="45.960706255780146" lon="10.328502207531868"><ele>720.8</ele><time>2026-04-25T13:55:02Z</time></trkpt><trkpt lat="45.96077230690482" lon="10.328488402581687"><ele>715.0</ele><time>2026-04-25T13:55:03Z</time></trkpt><trkpt lat="45.96083016369552" lon="10.328436796887134"><ele>707.8333333333334</ele><time>2026-04-25T13:55:04Z</time></trkpt><trkpt lat="45.96089145616613" lon="10.328370192273525"><ele>700.6666666666667</ele><time>2026-04-25T13:55:05Z</time></trkpt><trkpt lat="45.96095829879476" lon="10.32832473301743"><ele>693.5</ele><time>2026-04-25T13:55:07Z</time></trkpt><trkpt lat="45.96104514487895" lon="10.328350790969534"><ele>686.3333333333334</ele><time>2026-04-25T13:55:09Z</time></trkpt><trkpt lat="45.96110010670292" lon="10.328304951630928"><ele>679.1666666666666</ele><time>2026-04-25T13:55:10Z</time></trkpt><trkpt lat="45.9611942449396" lon="10.328239119107886"><ele>672.0</ele><time>2026-04-25T13:55:12Z</time></trkpt><trkpt lat="45.96122413772163" lon="10.328158516408912"><ele>670.4000000000001</ele><time>2026-04-25T13:55:13Z</time></trkpt><trkpt lat="45.96124548794846" lon="10.327979730892991"><ele>668.8000000000001</ele><time>2026-04-25T13:55:15Z</time></trkpt><trkpt lat="45.96122761076841" lon="10.327886281895246"><ele>667.2</ele><time>2026-04-25T13:55:16Z</time></trkpt><trkpt lat="45.96117852951067" lon="10.327795181655059"><ele>665.6</ele><time>2026-04-25T13:55:17Z</time></trkpt><trkpt lat="45.961146642589725" lon="10.32770924567347"><ele>664.0</ele><time>2026-04-25T13:55:18Z</time></trkpt><trkpt lat="45.96116560587816" lon="10.327551878613654"><ele>664.0</ele><time>2026-04-25T13:55:20Z</time></trkpt><trkpt lat="45.96119094592368" lon="10.327400385064127"><ele>664.0</ele><time>2026-04-25T13:55:22Z</time></trkpt><trkpt lat="45.96123211406974" lon="10.327299711666265"><ele>664.0</ele><time>2026-04-25T13:55:24Z</time></trkpt><trkpt lat="45.96129749839009" lon="10.327273768318356"><ele>664.0</ele><time>2026-04-25T13:55:26Z</time></trkpt><trkpt lat="45.96136160752648" lon="10.327339136401644"><ele>664.0</ele><time>2026-04-25T13:55:29Z</time></trkpt><trkpt lat="45.96143617922557" lon="10.327370406829738"><ele>664.0</ele><time>2026-04-25T13:55:33Z</time></trkpt><trkpt lat="45.96153196477084" lon="10.327462947625438"><ele>664.0</ele><time>2026-04-25T13:55:35Z</time></trkpt><trkpt lat="45.96158584577732" lon="10.327607891263929"><ele>664.0</ele><time>2026-04-25T13:55:37Z</time></trkpt><trkpt lat="45.961621728408254" lon="10.327731158393334"><ele>664.0</ele><time>2026-04-25T13:55:39Z</time></trkpt><trkpt lat="45.96161011494894" lon="10.327821011871647"><ele>664.0</ele><time>2026-04-25T13:55:41Z</time></trkpt><trkpt lat="45.961618218533744" lon="10.32793986041968"><ele>664.0</ele><time>2026-04-25T13:55:42Z</time></trkpt><trkpt lat="45.96164687618882" lon="10.328052341739761"><ele>664.0</ele><time>2026-04-25T13:55:44Z</time></trkpt><trkpt lat="45.9616903009616" lon="10.328152646514903"><ele>659.0</ele><time>2026-04-25T13:55:46Z</time></trkpt><trkpt lat="45.96175143461459" lon="10.328255364880903"><ele>654.0</ele><time>2026-04-25T13:55:48Z</time></trkpt><trkpt lat="45.961791515933214" lon="10.328338178448027"><ele>649.0</ele><time>2026-04-25T13:55:50Z</time></trkpt><trkpt lat="45.961825127380564" lon="10.328424989968523"><ele>644.0</ele><time>2026-04-25T13:55:52Z</time></trkpt><trkpt lat="45.96180626492171" lon="10.328551810128316"><ele>639.0</ele><time>2026-04-25T13:55:54Z</time></trkpt><trkpt lat="45.96182253726691" lon="10.328652325624244"><ele>634.0</ele><time>2026-04-25T13:55:57Z</time></trkpt><trkpt lat="45.96184868264253" lon="10.328744374283913"><ele>634.0</ele><time>2026-04-25T13:56:02Z</time></trkpt><trkpt lat="45.961901754072144" lon="10.328819514842202"><ele>634.0</ele><time>2026-04-25T13:56:07Z</time></trkpt><trkpt lat="45.96191274851659" lon="10.328916022443657"><ele>634.0</ele><time>2026-04-25T13:56:12Z</time></trkpt><trkpt lat="45.96183100398782" lon="10.328928212146556"><ele>634.0</ele><time>2026-04-25T13:56:15Z</time></trkpt><trkpt lat="45.961742090525114" lon="10.328987293580017"><ele>634.0</ele><time>2026-04-25T13:56:17Z</time></trkpt><trkpt lat="45.96165891866813" lon="10.329001973463736"><ele>634.0</ele><time>2026-04-25T13:56:18Z</time></trkpt><trkpt lat="45.96160351321789" lon="10.329050170977743"><ele>642.6</ele><time>2026-04-25T13:56:19Z</time></trkpt><trkpt lat="45.96152086199045" lon="10.329163290707617"><ele>651.2</ele><time>2026-04-25T13:56:21Z</time></trkpt><trkpt lat="45.96150768461173" lon="10.329307414511895"><ele>659.8000000000001</ele><time>2026-04-25T13:56:24Z</time></trkpt><trkpt lat="45.96140011192395" lon="10.329332244304444"><ele>668.4</ele><time>2026-04-25T13:56:29Z</time></trkpt><trkpt lat="45.961381921131135" lon="10.329450191247725"><ele>677.0</ele><time>2026-04-25T13:56:33Z</time></trkpt><trkpt lat="45.96133676173697" lon="10.329356818925259"><ele>677.0</ele><time>2026-04-25T13:56:37Z</time></trkpt><trkpt lat="45.96131893610147" lon="10.329238270847803"><ele>677.0</ele><time>2026-04-25T13:56:39Z</time></trkpt><trkpt lat="45.96136146532997" lon="10.329153705712677"><ele>677.0</ele><time>2026-04-25T13:56:43Z</time></trkpt><trkpt lat="45.96143084305129" lon="10.32910296434636"><ele>677.0</ele><time>2026-04-25T13:56:48Z</time></trkpt><trkpt lat="45.96150184096979" lon="10.329094353665631"><ele>677.0</ele><time>2026-04-25T13:56:50Z</time></trkpt><trkpt lat="45.96156662811401" lon="10.329088573943242"><ele>677.0</ele><time>2026-04-25T13:56:54Z</time></trkpt><trkpt lat="45.96166827835623" lon="10.32907790973058"><ele>671.6</ele><time>2026-04-25T13:56:56Z</time></trkpt><trkpt lat="45.96174061399206" lon="10.329086597983844"><ele>666.2</ele><time>2026-04-25T13:56:58Z</time></trkpt><trkpt lat="45.96180906101908" lon="10.32909278496871"><ele>660.8</ele><time>2026-04-25T13:57:01Z</time></trkpt><trkpt lat="45.96188130754356" lon="10.329119662591012"><ele>655.4</ele><time>2026-04-25T13:57:02Z</time></trkpt><trkpt lat="45.96200090415183" lon="10.32911653691912"><ele>650.0</ele><time>2026-04-25T13:57:03Z</time></trkpt><trkpt lat="45.96212621015522" lon="10.329094524854986"><ele>650.0</ele><time>2026-04-25T13:57:04Z</time></trkpt><trkpt lat="45.96222544383341" lon="10.329067749472486"><ele>650.0</ele><time>2026-04-25T13:57:05Z</time></trkpt><trkpt lat="45.96234527708614" lon="10.329042644263767"><ele>650.0</ele><time>2026-04-25T13:57:06Z</time></trkpt><trkpt lat="45.96244922282842" lon="10.329014994928317"><ele>650.0</ele><time>2026-04-25T13:57:07Z</time></trkpt><trkpt lat="45.96258098497335" lon="10.328957728635233"><ele>647.3333333333333</ele><time>2026-04-25T13:57:08Z</time></trkpt><trkpt lat="45.96264710059956" lon="10.329048135052279"><ele>644.6666666666666</ele><time>2026-04-25T13:57:10Z</time></trkpt><trkpt lat="45.96262767588096" lon="10.329154227419167"><ele>642.0</ele><time>2026-04-25T13:57:13Z</time></trkpt><trkpt lat="45.96256253603394" lon="10.329194219161096"><ele>639.3333333333334</ele><time>2026-04-25T13:57:14Z</time></trkpt><trkpt lat="45.962612636205115" lon="10.32931224230121"><ele>636.6666666666667</ele><time>2026-04-25T13:57:16Z</time></trkpt><trkpt lat="45.96264911384389" lon="10.329406408264157"><ele>634.0</ele><time>2026-04-25T13:57:19Z</time></trkpt><trkpt lat="45.96275784968058" lon="10.32957419093408"><ele>634.0</ele><time>2026-04-25T13:57:23Z</time></trkpt><trkpt lat="45.96278360053901" lon="10.32967659363726"><ele>634.0</ele><time>2026-04-25T13:57:25Z</time></trkpt><trkpt lat="45.96282058820388" lon="10.329773132099955"><ele>634.0</ele><time>2026-04-25T13:57:26Z</time></trkpt><trkpt lat="45.9629705136919" lon="10.32987676559233"><ele>634.0</ele><time>2026-04-25T13:57:27Z</time></trkpt><trkpt lat="45.96304593561305" lon="10.32994548631541"><ele>634.0</ele><time>2026-04-25T13:57:28Z</time></trkpt><trkpt lat="45.96321260020518" lon="10.329867753169044"><ele>635.25</ele><time>2026-04-25T13:57:29Z</time></trkpt><trkpt lat="45.963358059642545" lon="10.32973651643633"><ele>636.5</ele><time>2026-04-25T13:57:30Z</time></trkpt><trkpt lat="45.96348858014437" lon="10.329747482696439"><ele>637.75</ele><time>2026-04-25T13:57:31Z</time></trkpt><trkpt lat="45.96358096542328" lon="10.32974642403644"><ele>639.0</ele><time>2026-04-25T13:57:32Z</time></trkpt><trkpt lat="45.96365316869416" lon="10.329773146646897"><ele>636.4</ele><time>2026-04-25T13:57:33Z</time></trkpt><trkpt lat="45.96375596849485" lon="10.32991375061047"><ele>633.8</ele><time>2026-04-25T13:57:35Z</time></trkpt><trkpt lat="45.96384791634388" lon="10.32998377717824"><ele>631.2</ele><time>2026-04-25T13:57:37Z</time></trkpt><trkpt lat="45.96394436769286" lon="10.329991655003532"><ele>628.6</ele><time>2026-04-25T13:57:39Z</time></trkpt><trkpt lat="45.96387190230185" lon="10.330026671495144"><ele>626.0</ele><time>2026-04-25T13:57:40Z</time></trkpt><trkpt lat="45.96399315630306" lon="10.329851591568959"><ele>626.0</ele><time>2026-04-25T13:57:45Z</time></trkpt><trkpt lat="45.964117259825215" lon="10.329860523495833"><ele>626.0</ele><time>2026-04-25T13:58:16Z</time></trkpt><trkpt lat="45.96404534303138" lon="10.329862063047115"><ele>626.0</ele><time>2026-04-25T13:59:20Z</time></trkpt><trkpt lat="45.96410254074293" lon="10.329811191730464"><ele>626.0</ele><time>2026-04-25T13:59:23Z</time></trkpt><trkpt lat="45.96414830726556" lon="10.329693797076631"><ele>626.0</ele><time>2026-04-25T13:59:26Z</time></trkpt><trkpt lat="45.96417505491669" lon="10.329542093468921"><ele>624.6</ele><time>2026-04-25T13:59:28Z</time></trkpt><trkpt lat="45.964153112530965" lon="10.329382922725124"><ele>623.2</ele><time>2026-04-25T13:59:30Z</time></trkpt><trkpt lat="45.96417357814924" lon="10.329280055674014"><ele>621.8</ele><time>2026-04-25T13:59:31Z</time></trkpt><trkpt lat="45.964198754450535" lon="10.32917939787223"><ele>620.4</ele><time>2026-04-25T13:59:32Z</time></trkpt><trkpt lat="45.964228808342796" lon="10.328996845948199"><ele>619.0</ele><time>2026-04-25T13:59:34Z</time></trkpt><trkpt lat="45.96426558828045" lon="10.328862301283365"><ele>614.4</ele><time>2026-04-25T13:59:35.999Z</time></trkpt><trkpt lat="45.96425988060032" lon="10.32865389902256"><ele>609.8</ele><time>2026-04-25T13:59:37.999Z</time></trkpt><trkpt lat="45.96428169291946" lon="10.328502579393456"><ele>605.2</ele><time>2026-04-25T13:59:39.999Z</time></trkpt><trkpt lat="45.96430798579212" lon="10.328350834183642"><ele>600.6</ele><time>2026-04-25T13:59:41.999Z</time></trkpt><trkpt lat="45.964282096832434" lon="10.328261256549155"><ele>596.0</ele><time>2026-04-25T13:59:42.999Z</time></trkpt><trkpt lat="45.964269663215106" lon="10.328139683665743"><ele>595.8571428571429</ele><time>2026-04-25T13:59:44.999Z</time></trkpt><trkpt lat="45.96423373972569" lon="10.328054647537453"><ele>595.7142857142857</ele><time>2026-04-25T13:59:48.999Z</time></trkpt><trkpt lat="45.9641933621289" lon="10.327965266141412"><ele>595.5714285714286</ele><time>2026-04-25T13:59:51.999Z</time></trkpt><trkpt lat="45.964185465954756" lon="10.327857377360855"><ele>595.4285714285714</ele><time>2026-04-25T13:59:54.999Z</time></trkpt><trkpt lat="45.96415000921518" lon="10.327779676678949"><ele>595.2857142857142</ele><time>2026-04-25T13:59:56.999Z</time></trkpt><trkpt lat="45.96410969069596" lon="10.327702360060854"><ele>595.1428571428571</ele><time>2026-04-25T13:59:59.999Z</time></trkpt><trkpt lat="45.96407874193287" lon="10.327616355373731"><ele>595.0</ele><time>2026-04-25T14:00:02.999Z</time></trkpt><trkpt lat="45.96353658126522" lon="10.326766409729261"><ele>595.0</ele><time>2026-04-25T14:00:06.999Z</time></trkpt><trkpt lat="45.96348780715551" lon="10.326671240204742"><ele>595.0</ele><time>2026-04-25T14:00:10.999Z</time></trkpt><trkpt lat="45.96343356524809" lon="10.326619287068333"><ele>595.0</ele><time>2026-04-25T14:00:13.999Z</time></trkpt><trkpt lat="45.96399871731972" lon="10.32731081325999"><ele>574.0</ele><time>2026-04-25T14:00:15.999Z</time></trkpt><trkpt lat="45.96353806879732" lon="10.326709360330529"><ele>574.0</ele><time>2026-04-25T14:00:18.999Z</time></trkpt><trkpt lat="45.96389513889177" lon="10.327153324612906"><ele>574.0</ele><time>2026-04-25T14:00:21.999Z</time></trkpt><trkpt lat="45.96383859356568" lon="10.326992232298936"><ele>574.0</ele><time>2026-04-25T14:00:24.999Z</time></trkpt><trkpt lat="45.96377483913477" lon="10.326881633813793"><ele>574.0</ele><time>2026-04-25T14:00:26.999Z</time></trkpt><trkpt lat="45.963723617152795" lon="10.326819843289083"><ele>574.0</ele><time>2026-04-25T14:00:27.999Z</time></trkpt><trkpt lat="45.96383573905368" lon="10.326968158201286"><ele>574.0</ele><time>2026-04-25T14:00:29.999Z</time></trkpt><trkpt lat="45.9637529585378" lon="10.326927903768311"><ele>574.0</ele><time>2026-04-25T14:00:31.999Z</time></trkpt><trkpt lat="45.96369380678031" lon="10.326840733388625"><ele>574.0</ele><time>2026-04-25T14:00:33.999Z</time></trkpt><trkpt lat="45.96378176657395" lon="10.326842439094666"><ele>574.0</ele><time>2026-04-25T14:00:36.999Z</time></trkpt><trkpt lat="45.96392778862623" lon="10.326858190080825"><ele>574.0</ele><time>2026-04-25T14:00:38.999Z</time></trkpt><trkpt lat="45.96399500421073" lon="10.326863607324618"><ele>574.0</ele><time>2026-04-25T14:00:39.999Z</time></trkpt><trkpt lat="45.96405820441244" lon="10.326904751956645"><ele>574.0</ele><time>2026-04-25T14:00:40.999Z</time></trkpt><trkpt lat="45.96417602794219" lon="10.326914340197616"><ele>574.0</ele><time>2026-04-25T14:00:42.999Z</time></trkpt><trkpt lat="45.964239221544354" lon="10.326934309127482"><ele>574.0</ele><time>2026-04-25T14:00:43.999Z</time></trkpt><trkpt lat="45.96434793478395" lon="10.327018618458716"><ele>574.0</ele><time>2026-04-25T14:00:45.999Z</time></trkpt><trkpt lat="45.96446021141771" lon="10.32705408010199"><ele>574.0</ele><time>2026-04-25T14:00:46.999Z</time></trkpt><trkpt lat="45.96454429405955" lon="10.327121131775973"><ele>574.4</ele><time>2026-04-25T14:00:47.999Z</time></trkpt><trkpt lat="45.96463381602352" lon="10.327147891893294"><ele>574.8</ele><time>2026-04-25T14:00:48.999Z</time></trkpt><trkpt lat="45.96473796685324" lon="10.327148632374145"><ele>575.2</ele><time>2026-04-25T14:00:49.999Z</time></trkpt><trkpt lat="45.964818695708935" lon="10.327171811328979"><ele>575.6</ele><time>2026-04-25T14:00:50.999Z</time></trkpt><trkpt lat="45.964904789009864" lon="10.327270052796424"><ele>576.0</ele><time>2026-04-25T14:00:52.999Z</time></trkpt><trkpt lat="45.965027465699706" lon="10.327371692311527"><ele>566.75</ele><time>2026-04-25T14:00:53.999Z</time></trkpt><trkpt lat="45.965131760200165" lon="10.327472248386115"><ele>557.5</ele><time>2026-04-25T14:00:54.999Z</time></trkpt><trkpt lat="45.96523418761514" lon="10.327514990588506"><ele>548.25</ele><time>2026-04-25T14:00:55.999Z</time></trkpt><trkpt lat="45.96534794004429" lon="10.327566734012446"><ele>539.0</ele><time>2026-04-25T14:00:56.999Z</time></trkpt><trkpt lat="45.96543774029602" lon="10.327633891755786"><ele>539.0</ele><time>2026-04-25T14:00:58Z</time></trkpt><trkpt lat="45.96552295121434" lon="10.327690663314867"><ele>539.0</ele><time>2026-04-25T14:00:59Z</time></trkpt><trkpt lat="45.965612483191705" lon="10.327776873000824"><ele>539.0</ele><time>2026-04-25T14:01:00Z</time></trkpt><trkpt lat="45.96570553617295" lon="10.327915926159031"><ele>539.0</ele><time>2026-04-25T14:01:01Z</time></trkpt><trkpt lat="45.9657451444026" lon="10.32799686294685"><ele>539.0</ele><time>2026-04-25T14:01:02Z</time></trkpt><trkpt lat="45.96581885232302" lon="10.328166997121699"><ele>542.4</ele><time>2026-04-25T14:01:04Z</time></trkpt><trkpt lat="45.96585757430123" lon="10.328316608544196"><ele>545.8</ele><time>2026-04-25T14:01:05Z</time></trkpt><trkpt lat="45.965877174355924" lon="10.3284921303212"><ele>549.2</ele><time>2026-04-25T14:01:06Z</time></trkpt><trkpt lat="45.96589208538243" lon="10.328631393592572"><ele>552.6</ele><time>2026-04-25T14:01:07Z</time></trkpt><trkpt lat="45.96591365804804" lon="10.328751269304552"><ele>556.0</ele><time>2026-04-25T14:01:08Z</time></trkpt><trkpt lat="45.96594065374384" lon="10.328841648819125"><ele>551.5</ele><time>2026-04-25T14:01:09Z</time></trkpt><trkpt lat="45.96602477031243" lon="10.328953093689062"><ele>547.0</ele><time>2026-04-25T14:01:11Z</time></trkpt><trkpt lat="45.96607790870419" lon="10.329123513781601"><ele>542.5</ele><time>2026-04-25T14:01:12Z</time></trkpt><trkpt lat="45.96612618261576" lon="10.329216580204557"><ele>538.0</ele><time>2026-04-25T14:01:13Z</time></trkpt><trkpt lat="45.96617895856084" lon="10.329408069128226"><ele>538.0</ele><time>2026-04-25T14:01:14Z</time></trkpt><trkpt lat="45.9662644828649" lon="10.32958656363666"><ele>538.0</ele><time>2026-04-25T14:01:15Z</time></trkpt><trkpt lat="45.96633555737788" lon="10.329678381870789"><ele>538.0</ele><time>2026-04-25T14:01:16Z</time></trkpt><trkpt lat="45.9664111981615" lon="10.329759428791341"><ele>538.0</ele><time>2026-04-25T14:01:17Z</time></trkpt><trkpt lat="45.96648912328402" lon="10.329789207669458"><ele>538.0</ele><time>2026-04-25T14:01:18Z</time></trkpt><trkpt lat="45.96659958854056" lon="10.329833191802708"><ele>536.25</ele><time>2026-04-25T14:01:19Z</time></trkpt><trkpt lat="45.96669960014983" lon="10.32996686103782"><ele>534.5</ele><time>2026-04-25T14:01:20Z</time></trkpt><trkpt lat="45.96678716701956" lon="10.33000782169434"><ele>532.75</ele><time>2026-04-25T14:01:21Z</time></trkpt><trkpt lat="45.96689531260729" lon="10.330205089600131"><ele>531.0</ele><time>2026-04-25T14:01:22Z</time></trkpt><trkpt lat="45.96702118416679" lon="10.330284951806616"><ele>531.0</ele><time>2026-04-25T14:01:23Z</time></trkpt><trkpt lat="45.96714411141325" lon="10.330343787737993"><ele>531.0</ele><time>2026-04-25T14:01:24Z</time></trkpt><trkpt lat="45.96724786926743" lon="10.330424344017057"><ele>531.0</ele><time>2026-04-25T14:01:25Z</time></trkpt><trkpt lat="45.96737310111173" lon="10.330468044423958"><ele>531.0</ele><time>2026-04-25T14:01:26Z</time></trkpt><trkpt lat="45.967491733265966" lon="10.330525732255218"><ele>529.4</ele><time>2026-04-25T14:01:27Z</time></trkpt><trkpt lat="45.96760117759071" lon="10.330501068175474"><ele>527.8</ele><time>2026-04-25T14:01:28Z</time></trkpt><trkpt lat="45.96769079835997" lon="10.330447825156188"><ele>526.1999999999999</ele><time>2026-04-25T14:01:29Z</time></trkpt><trkpt lat="45.96777044453882" lon="10.33048956549872"><ele>524.6</ele><time>2026-04-25T14:01:30Z</time></trkpt><trkpt lat="45.9679148051086" lon="10.3305724581452"><ele>523.0</ele><time>2026-04-25T14:01:31Z</time></trkpt><trkpt lat="45.96801355258198" lon="10.330681119981724"><ele>523.0</ele><time>2026-04-25T14:01:32Z</time></trkpt><trkpt lat="45.96812659144219" lon="10.330769011934876"><ele>523.0</ele><time>2026-04-25T14:01:33Z</time></trkpt><trkpt lat="45.96822818296022" lon="10.330843209466252"><ele>523.0</ele><time>2026-04-25T14:01:34Z</time></trkpt><trkpt lat="45.968309689818035" lon="10.330927889519304"><ele>523.0</ele><time>2026-04-25T14:01:35Z</time></trkpt><trkpt lat="45.96836891874273" lon="10.330999395006886"><ele>523.0</ele><time>2026-04-25T14:01:36Z</time></trkpt><trkpt lat="45.968433573605815" lon="10.331065975361058"><ele>524.0</ele><time>2026-04-25T14:01:37Z</time></trkpt><trkpt lat="45.968523214616305" lon="10.331160621549701"><ele>525.0</ele><time>2026-04-25T14:01:38Z</time></trkpt><trkpt lat="45.96862221703515" lon="10.331243363360045"><ele>526.0</ele><time>2026-04-25T14:01:39Z</time></trkpt><trkpt lat="45.9687493711608" lon="10.331369422526071"><ele>527.0</ele><time>2026-04-25T14:01:40Z</time></trkpt><trkpt lat="45.968674008068824" lon="10.331520106744236"><ele>527.0</ele><time>2026-04-25T14:01:41Z</time></trkpt><trkpt lat="45.96863678812845" lon="10.331618326057377"><ele>527.0</ele><time>2026-04-25T14:01:41.999Z</time></trkpt><trkpt lat="45.96887458290903" lon="10.331699520643514"><ele>527.0</ele><time>2026-04-25T14:01:42.999Z</time></trkpt><trkpt lat="45.96888651902503" lon="10.331873529836225"><ele>527.0</ele><time>2026-04-25T14:01:45.999Z</time></trkpt><trkpt lat="45.9689669684923" lon="10.331889652642733"><ele>527.0</ele><time>2026-04-25T14:01:50.999Z</time></trkpt><trkpt lat="45.96910683464678" lon="10.33192091919025"><ele>527.0</ele><time>2026-04-25T14:01:51.999Z</time></trkpt><trkpt lat="45.96932739127868" lon="10.331948470284654"><ele>527.0</ele><time>2026-04-25T14:01:52.999Z</time></trkpt><trkpt lat="45.96956327682444" lon="10.331940242041208"><ele>522.75</ele><time>2026-04-25T14:02:02.999Z</time></trkpt><trkpt lat="45.96975689449493" lon="10.332158727996493"><ele>518.5</ele><time>2026-04-25T14:02:08.999Z</time></trkpt><trkpt lat="45.96984113340835" lon="10.332263349455724"><ele>514.25</ele><time>2026-04-25T14:02:09.999Z</time></trkpt><trkpt lat="45.96990168906426" lon="10.33235398578542"><ele>510.0</ele><time>2026-04-25T14:02:10.999Z</time></trkpt><trkpt lat="45.96995424254438" lon="10.33243536902819"><ele>510.0</ele><time>2026-04-25T14:02:11.999Z</time></trkpt><trkpt lat="45.970013491052356" lon="10.332574382748543"><ele>510.0</ele><time>2026-04-25T14:02:13.999Z</time></trkpt><trkpt lat="45.970034506167124" lon="10.332481412070496"><ele>510.0</ele><time>2026-04-25T14:05:00Z</time></trkpt><trkpt lat="45.97001576656677" lon="10.332363368519303"><ele>510.0</ele><time>2026-04-25T14:05:06Z</time></trkpt><trkpt lat="45.969927652065174" lon="10.3321928513548"><ele>510.0</ele><time>2026-04-25T14:05:08Z</time></trkpt><trkpt lat="45.96991061667701" lon="10.332073346728293"><ele>505.5</ele><time>2026-04-25T14:05:09Z</time></trkpt><trkpt lat="45.96989041342933" lon="10.331982320489645"><ele>501.0</ele><time>2026-04-25T14:05:10Z</time></trkpt><trkpt lat="45.96983873068505" lon="10.33186862704107"><ele>496.5</ele><time>2026-04-25T14:05:12Z</time></trkpt><trkpt lat="45.969663334104" lon="10.33198638926721"><ele>492.0</ele><time>2026-04-25T14:05:14Z</time></trkpt><trkpt lat="45.96956411762213" lon="10.331899171919673"><ele>492.0</ele><time>2026-04-25T14:05:16Z</time></trkpt><trkpt lat="45.969476934600586" lon="10.331860593972651"><ele>492.0</ele><time>2026-04-25T14:05:18Z</time></trkpt><trkpt lat="45.969414095055086" lon="10.331850914284471"><ele>492.0</ele><time>2026-04-25T14:05:19Z</time></trkpt><trkpt lat="45.969315172356765" lon="10.331803731735317"><ele>492.0</ele><time>2026-04-25T14:05:20Z</time></trkpt><trkpt lat="45.969263438535734" lon="10.331859289413226"><ele>492.0</ele><time>2026-04-25T14:05:21Z</time></trkpt><trkpt lat="45.969182527739854" lon="10.331821639938033"><ele>492.0</ele><time>2026-04-25T14:05:22Z</time></trkpt><trkpt lat="45.96909994370986" lon="10.33177751643121"><ele>500.0</ele><time>2026-04-25T14:05:23Z</time></trkpt><trkpt lat="45.96911905344073" lon="10.330942406063567"><ele>500.0</ele><time>2026-04-25T14:05:25Z</time></trkpt><trkpt lat="45.969043303551615" lon="10.33095785847224"><ele>500.0</ele><time>2026-04-25T14:05:26Z</time></trkpt><trkpt lat="45.96897026545526" lon="10.330947413196498"><ele>500.0</ele><time>2026-04-25T14:05:27Z</time></trkpt><trkpt lat="45.96884850287833" lon="10.330809996559902"><ele>500.0</ele><time>2026-04-25T14:05:29Z</time></trkpt><trkpt lat="45.968774307546326" lon="10.330694103187396"><ele>500.0</ele><time>2026-04-25T14:05:30Z</time></trkpt><trkpt lat="45.96870484221793" lon="10.330599287519071"><ele>491.5</ele><time>2026-04-25T14:05:31Z</time></trkpt><trkpt lat="45.968612216955485" lon="10.330472077176944"><ele>483.0</ele><time>2026-04-25T14:05:32Z</time></trkpt><trkpt lat="45.96852947634566" lon="10.330343158839117"><ele>474.5</ele><time>2026-04-25T14:05:33Z</time></trkpt><trkpt lat="45.968436679337024" lon="10.330259232808782"><ele>466.0</ele><time>2026-04-25T14:05:34Z</time></trkpt><trkpt lat="45.96837273150883" lon="10.330141624092771"><ele>470.20000000000005</ele><time>2026-04-25T14:05:35Z</time></trkpt><trkpt lat="45.96832732264506" lon="10.330020075052301"><ele>474.40000000000003</ele><time>2026-04-25T14:05:36Z</time></trkpt><trkpt lat="45.96828671927475" lon="10.32989235527871"><ele>478.6</ele><time>2026-04-25T14:05:37Z</time></trkpt><trkpt lat="45.9682031396555" lon="10.329736961612829"><ele>482.8</ele><time>2026-04-25T14:05:38Z</time></trkpt><trkpt lat="45.96816316917831" lon="10.329597197783784"><ele>487.0</ele><time>2026-04-25T14:05:39Z</time></trkpt><trkpt lat="45.96814440301818" lon="10.329480296840623"><ele>487.0</ele><time>2026-04-25T14:05:40Z</time></trkpt><trkpt lat="45.968124019714786" lon="10.329362409414735"><ele>487.00000000000006</ele><time>2026-04-25T14:05:41Z</time></trkpt><trkpt lat="45.96802587261918" lon="10.329247062037522"><ele>487.00000000000006</ele><time>2026-04-25T14:05:43Z</time></trkpt><trkpt lat="45.96795983221624" lon="10.329166892127715"><ele>487.0</ele><time>2026-04-25T14:05:44Z</time></trkpt><trkpt lat="45.96788974362687" lon="10.32906106300955"><ele>487.0</ele><time>2026-04-25T14:05:46Z</time></trkpt><trkpt lat="45.967953730004425" lon="10.32897900425807"><ele>487.0</ele><time>2026-04-25T14:05:51Z</time></trkpt><trkpt lat="45.96787011204937" lon="10.329002691578909"><ele>487.0</ele><time>2026-04-25T14:05:52Z</time></trkpt><trkpt lat="45.96780660246538" lon="10.328999560417929"><ele>487.0</ele><time>2026-04-25T14:05:56.999Z</time></trkpt><trkpt lat="45.96772524366413" lon="10.328965867258201"><ele>487.0</ele><time>2026-04-25T14:06:02.999Z</time></trkpt><trkpt lat="45.9676570512051" lon="10.329015087880641"><ele>487.0</ele><time>2026-04-25T14:06:03.999Z</time></trkpt><trkpt lat="45.96759754776039" lon="10.328983503011818"><ele>487.0</ele><time>2026-04-25T14:06:06.999Z</time></trkpt><trkpt lat="45.96755883315508" lon="10.328899339441442"><ele>487.0</ele><time>2026-04-25T14:06:07.999Z</time></trkpt><trkpt lat="45.96750200288067" lon="10.328807314569548"><ele>488.00000000000006</ele><time>2026-04-25T14:06:09.999Z</time></trkpt><trkpt lat="45.967479874958826" lon="10.328698456328299"><ele>489.0</ele><time>2026-04-25T14:06:11.999Z</time></trkpt><trkpt lat="45.96742690657953" lon="10.328606873538167"><ele>490.0</ele><time>2026-04-25T14:06:13.999Z</time></trkpt><trkpt lat="45.96736873241007" lon="10.328543283794325"><ele>491.0</ele><time>2026-04-25T14:06:16.999Z</time></trkpt><trkpt lat="45.967309904203994" lon="10.328421641424113"><ele>492.00000000000006</ele><time>2026-04-25T14:06:20Z</time></trkpt><trkpt lat="45.96724741116231" lon="10.328309243159973"><ele>493.0</ele><time>2026-04-25T14:06:22Z</time></trkpt><trkpt lat="45.967182461228525" lon="10.32821201360825"><ele>493.0</ele><time>2026-04-25T14:06:24Z</time></trkpt><trkpt lat="45.96711838586009" lon="10.32821036037343"><ele>492.99999999999994</ele><time>2026-04-25T14:06:25Z</time></trkpt><trkpt lat="45.967060716496015" lon="10.328154751837662"><ele>492.99999999999994</ele><time>2026-04-25T14:06:27Z</time></trkpt><trkpt lat="45.966975002388665" lon="10.328107872123809"><ele>493.0</ele><time>2026-04-25T14:06:29Z</time></trkpt><trkpt lat="45.966855697655305" lon="10.328096302168301"><ele>493.0</ele><time>2026-04-25T14:06:31Z</time></trkpt><trkpt lat="45.96675631511408" lon="10.328025767318124"><ele>495.2</ele><time>2026-04-25T14:06:33Z</time></trkpt><trkpt lat="45.96669089060674" lon="10.327985277911758"><ele>497.4</ele><time>2026-04-25T14:06:35Z</time></trkpt><trkpt lat="45.96662139790031" lon="10.327963585170314"><ele>499.59999999999997</ele><time>2026-04-25T14:06:41Z</time></trkpt><trkpt lat="45.966452380595534" lon="10.327848084463316"><ele>501.79999999999995</ele><time>2026-04-25T14:07:11Z</time></trkpt><trkpt lat="45.966370961985206" lon="10.327817480096712"><ele>504.0</ele><time>2026-04-25T14:07:26Z</time></trkpt><trkpt lat="45.966348467454296" lon="10.32772490946366"><ele>504.0</ele><time>2026-04-25T14:07:28Z</time></trkpt><trkpt lat="45.96627693826946" lon="10.327618463352234"><ele>504.0</ele><time>2026-04-25T14:07:30Z</time></trkpt><trkpt lat="45.966223373082194" lon="10.327505679935662"><ele>504.0</ele><time>2026-04-25T14:07:32Z</time></trkpt><trkpt lat="45.966144758394584" lon="10.327407897971169"><ele>504.0</ele><time>2026-04-25T14:07:34Z</time></trkpt><trkpt lat="45.96608572112331" lon="10.327371526752918"><ele>504.0</ele><time>2026-04-25T14:07:35Z</time></trkpt><trkpt lat="45.96601764464078" lon="10.327275068077315"><ele>501.2</ele><time>2026-04-25T14:07:37Z</time></trkpt><trkpt lat="45.96596874023111" lon="10.32719691996101"><ele>498.4</ele><time>2026-04-25T14:07:38Z</time></trkpt><trkpt lat="45.965918895444425" lon="10.327097651304557"><ele>495.6</ele><time>2026-04-25T14:07:40Z</time></trkpt><trkpt lat="45.965849058305544" lon="10.326922517960405"><ele>492.8</ele><time>2026-04-25T14:07:42Z</time></trkpt><trkpt lat="45.96580937767281" lon="10.326831994170245"><ele>490.0</ele><time>2026-04-25T14:07:43Z</time></trkpt><trkpt lat="45.96578151639465" lon="10.32671775358372"><ele>492.4</ele><time>2026-04-25T14:07:45Z</time></trkpt><trkpt lat="45.96568562347298" lon="10.326534252939298"><ele>494.8</ele><time>2026-04-25T14:07:47Z</time></trkpt><trkpt lat="45.965636057716424" lon="10.326419785315958"><ele>497.20000000000005</ele><time>2026-04-25T14:07:48Z</time></trkpt><trkpt lat="45.965597719210116" lon="10.32632759940612"><ele>499.6</ele><time>2026-04-25T14:07:49Z</time></trkpt><trkpt lat="45.96554757446725" lon="10.326230538724488"><ele>502.0</ele><time>2026-04-25T14:07:50Z</time></trkpt><trkpt lat="45.965492980079794" lon="10.32615930397651"><ele>501.99999999999994</ele><time>2026-04-25T14:07:51Z</time></trkpt><trkpt lat="45.965433819775306" lon="10.326115158842898"><ele>502.0</ele><time>2026-04-25T14:07:52Z</time></trkpt><trkpt lat="45.96537239887033" lon="10.326045834729813"><ele>501.99999999999994</ele><time>2026-04-25T14:07:55Z</time></trkpt><trkpt lat="45.96528654452259" lon="10.326000802423522"><ele>501.99999999999994</ele><time>2026-04-25T14:07:57Z</time></trkpt><trkpt lat="45.96521874877001" lon="10.325964186185821"><ele>502.0</ele><time>2026-04-25T14:07:58Z</time></trkpt><trkpt lat="45.96515360915302" lon="10.325921945018246"><ele>501.99999999999994</ele><time>2026-04-25T14:07:59Z</time></trkpt><trkpt lat="45.96510522417317" lon="10.32585597629672"><ele>501.99999999999994</ele><time>2026-04-25T14:08:00Z</time></trkpt><trkpt lat="45.9649987724866" lon="10.325757594306783"><ele>502.6666666666667</ele><time>2026-04-25T14:08:02Z</time></trkpt><trkpt lat="45.964936840390855" lon="10.325733180324914"><ele>503.33333333333337</ele><time>2026-04-25T14:08:03Z</time></trkpt><trkpt lat="45.964884244354586" lon="10.325680776221656"><ele>504.0</ele><time>2026-04-25T14:08:04Z</time></trkpt><trkpt lat="45.96478123890474" lon="10.325576870945044"><ele>504.66666666666663</ele><time>2026-04-25T14:08:07Z</time></trkpt><trkpt lat="45.964702467493396" lon="10.325520167519104"><ele>505.3333333333333</ele><time>2026-04-25T14:08:11Z</time></trkpt><trkpt lat="45.96463982208774" lon="10.325577456798994"><ele>506.0</ele><time>2026-04-25T14:08:14Z</time></trkpt><trkpt lat="45.96461886521659" lon="10.325686058123727"><ele>509.4285714285715</ele><time>2026-04-25T14:08:18Z</time></trkpt><trkpt lat="45.964556624830294" lon="10.325740162099912"><ele>512.8571428571429</ele><time>2026-04-25T14:08:23Z</time></trkpt><trkpt lat="45.964460361582674" lon="10.325751035034134"><ele>516.2857142857142</ele><time>2026-04-25T14:08:28Z</time></trkpt><trkpt lat="45.96439525286784" lon="10.325711755236854"><ele>519.7142857142858</ele><time>2026-04-25T14:08:31Z</time></trkpt><trkpt lat="45.964328023768154" lon="10.32569663071596"><ele>523.1428571428571</ele><time>2026-04-25T14:08:33Z</time></trkpt><trkpt lat="45.96432258616371" lon="10.325792481620363"><ele>526.5714285714286</ele><time>2026-04-25T14:08:40Z</time></trkpt><trkpt lat="45.964351709933815" lon="10.325885802525605"><ele>530.0</ele><time>2026-04-25T14:08:41Z</time></trkpt><trkpt lat="45.96437510029053" lon="10.325981434106088"><ele>530.0</ele><time>2026-04-25T14:08:42Z</time></trkpt><trkpt lat="45.96442419890878" lon="10.326088175332224"><ele>530.0</ele><time>2026-04-25T14:08:44Z</time></trkpt><trkpt lat="45.96447527387204" lon="10.32618302960689"><ele>530.0</ele><time>2026-04-25T14:08:46Z</time></trkpt><trkpt lat="45.96449160523293" lon="10.326281547510241"><ele>530.0</ele><time>2026-04-25T14:08:49Z</time></trkpt><trkpt lat="45.9643968270096" lon="10.326257622910523"><ele>530.0</ele><time>2026-04-25T14:08:54Z</time></trkpt><trkpt lat="45.96426487893946" lon="10.326220627978417"><ele>535.0</ele><time>2026-04-25T14:08:56Z</time></trkpt><trkpt lat="45.96413861092183" lon="10.326193191990344"><ele>540.0</ele><time>2026-04-25T14:08:57Z</time></trkpt><trkpt lat="45.96401603554444" lon="10.326173088348217"><ele>545.0</ele><time>2026-04-25T14:08:58Z</time></trkpt><trkpt lat="45.963910996365186" lon="10.326259991949875"><ele>550.0</ele><time>2026-04-25T14:08:59Z</time></trkpt><trkpt lat="45.963819706861294" lon="10.326218741026755"><ele>550.0</ele><time>2026-04-25T14:09:00Z</time></trkpt><trkpt lat="45.96372332001696" lon="10.326197704422631"><ele>550.0</ele><time>2026-04-25T14:09:01Z</time></trkpt><trkpt lat="45.96359419360687" lon="10.326122321607903"><ele>550.0</ele><time>2026-04-25T14:09:02Z</time></trkpt><trkpt lat="45.963446610189465" lon="10.326067263147518"><ele>550.0</ele><time>2026-04-25T14:09:03Z</time></trkpt><trkpt lat="45.96334004283372" lon="10.326045920874371"><ele>553.0</ele><time>2026-04-25T14:09:04Z</time></trkpt><trkpt lat="45.96323398245614" lon="10.32607052356321"><ele>556.0</ele><time>2026-04-25T14:09:05Z</time></trkpt><trkpt lat="45.9631486286735" lon="10.326066002637415"><ele>559.0</ele><time>2026-04-25T14:09:06Z</time></trkpt><trkpt lat="45.963166547328825" lon="10.325965731846875"><ele>562.0</ele><time>2026-04-25T14:09:08Z</time></trkpt><trkpt lat="45.9631080086846" lon="10.325914088901133"><ele>565.0</ele><time>2026-04-25T14:09:09Z</time></trkpt><trkpt lat="45.963164582647835" lon="10.325813928584518"><ele>568.0</ele><time>2026-04-25T14:09:10Z</time></trkpt><trkpt lat="45.96321406696174" lon="10.325686777488425"><ele>562.0</ele><time>2026-04-25T14:09:11Z</time></trkpt><trkpt lat="45.963117673131286" lon="10.325550454980574"><ele>556.0</ele><time>2026-04-25T14:09:12Z</time></trkpt><trkpt lat="45.963091324745385" lon="10.325422384593221"><ele>550.0</ele><time>2026-04-25T14:09:13Z</time></trkpt><trkpt lat="45.96305908257829" lon="10.32526101396551"><ele>544.0</ele><time>2026-04-25T14:09:14Z</time></trkpt><trkpt lat="45.963023690383366" lon="10.325087072724505"><ele>544.0</ele><time>2026-04-25T14:09:15Z</time></trkpt><trkpt lat="45.962980407567734" lon="10.324936300432004"><ele>544.0</ele><time>2026-04-25T14:09:16Z</time></trkpt><trkpt lat="45.96297943913509" lon="10.324770433386375"><ele>544.0</ele><time>2026-04-25T14:09:17Z</time></trkpt><trkpt lat="45.962966582828635" lon="10.324582620866268"><ele>544.0</ele><time>2026-04-25T14:09:18Z</time></trkpt><trkpt lat="45.96296757296916" lon="10.324418539931695"><ele>539.8</ele><time>2026-04-25T14:09:19Z</time></trkpt><trkpt lat="45.96294801802032" lon="10.324311684375054"><ele>535.5999999999999</ele><time>2026-04-25T14:09:20Z</time></trkpt><trkpt lat="45.96291440029094" lon="10.324205034184128"><ele>531.4</ele><time>2026-04-25T14:09:21Z</time></trkpt><trkpt lat="45.962882393215175" lon="10.324086173499076"><ele>527.1999999999999</ele><time>2026-04-25T14:09:22Z</time></trkpt><trkpt lat="45.9628072911365" lon="10.32400112073876"><ele>523.0</ele><time>2026-04-25T14:09:23Z</time></trkpt><trkpt lat="45.96271184741375" lon="10.32384970656238"><ele>525.1999999999999</ele><time>2026-04-25T14:09:24Z</time></trkpt><trkpt lat="45.96263668843624" lon="10.323769855623928"><ele>527.4</ele><time>2026-04-25T14:09:25Z</time></trkpt><trkpt lat="45.962574992151964" lon="10.323694416816833"><ele>529.5999999999999</ele><time>2026-04-25T14:09:26Z</time></trkpt><trkpt lat="45.962510663523645" lon="10.323624903645829"><ele>531.8</ele><time>2026-04-25T14:09:27Z</time></trkpt><trkpt lat="45.96247373561571" lon="10.323437967463876"><ele>534.0</ele><time>2026-04-25T14:09:29Z</time></trkpt><trkpt lat="45.96246425963829" lon="10.323284524864267"><ele>534.0</ele><time>2026-04-25T14:09:30Z</time></trkpt><trkpt lat="45.96241381415276" lon="10.323167081622392"><ele>534.0</ele><time>2026-04-25T14:09:31Z</time></trkpt><trkpt lat="45.962323328863036" lon="10.323022342310159"><ele>534.0</ele><time>2026-04-25T14:09:32Z</time></trkpt><trkpt lat="45.96229405166043" lon="10.32286208790311"><ele>534.0</ele><time>2026-04-25T14:09:33Z</time></trkpt><trkpt lat="45.962249549079054" lon="10.322752929205832"><ele>534.0</ele><time>2026-04-25T14:09:34Z</time></trkpt><trkpt lat="45.96221326516074" lon="10.322649148100599"><ele>529.0</ele><time>2026-04-25T14:09:35Z</time></trkpt><trkpt lat="45.96217324097739" lon="10.322548176060424"><ele>524.0</ele><time>2026-04-25T14:09:36Z</time></trkpt><trkpt lat="45.96212699781646" lon="10.322437271839151"><ele>519.0</ele><time>2026-04-25T14:09:37Z</time></trkpt><trkpt lat="45.96207714040179" lon="10.322327269405317"><ele>514.0</ele><time>2026-04-25T14:09:38Z</time></trkpt><trkpt lat="45.96201918321302" lon="10.322242115950832"><ele>509.0</ele><time>2026-04-25T14:09:39Z</time></trkpt><trkpt lat="45.96195670559415" lon="10.322164098900277"><ele>504.0</ele><time>2026-04-25T14:09:40Z</time></trkpt><trkpt lat="45.961844980343415" lon="10.322116113054351"><ele>504.2</ele><time>2026-04-25T14:09:41Z</time></trkpt><trkpt lat="45.961757128198165" lon="10.322056424380182"><ele>504.4</ele><time>2026-04-25T14:09:42Z</time></trkpt><trkpt lat="45.96169324976718" lon="10.321974034108637"><ele>504.6</ele><time>2026-04-25T14:09:43Z</time></trkpt><trkpt lat="45.961631480752416" lon="10.321894428539066"><ele>504.8</ele><time>2026-04-25T14:09:44Z</time></trkpt><trkpt lat="45.961588549570955" lon="10.3217741001925"><ele>505.0</ele><time>2026-04-25T14:09:45Z</time></trkpt><trkpt lat="45.96153402212257" lon="10.321667781226395"><ele>505.0</ele><time>2026-04-25T14:09:46Z</time></trkpt><trkpt lat="45.961471706741094" lon="10.321528851483805"><ele>505.0</ele><time>2026-04-25T14:09:47Z</time></trkpt><trkpt lat="45.9614106672403" lon="10.321416874063694"><ele>505.0</ele><time>2026-04-25T14:09:48Z</time></trkpt><trkpt lat="45.961337926215954" lon="10.3213299255074"><ele>505.0</ele><time>2026-04-25T14:09:49Z</time></trkpt><trkpt lat="45.96128863879277" lon="10.321247404865993"><ele>505.0</ele><time>2026-04-25T14:09:50Z</time></trkpt><trkpt lat="45.961240636186204" lon="10.321141911552893"><ele>498.8</ele><time>2026-04-25T14:09:51Z</time></trkpt><trkpt lat="45.96118270952525" lon="10.321034066311283"><ele>492.6</ele><time>2026-04-25T14:09:52Z</time></trkpt><trkpt lat="45.96110315001701" lon="10.320944366894969"><ele>486.4</ele><time>2026-04-25T14:09:53Z</time></trkpt><trkpt lat="45.961037582480216" lon="10.320831880049983"><ele>480.2</ele><time>2026-04-25T14:09:54Z</time></trkpt><trkpt lat="45.960974211830354" lon="10.320722418760298"><ele>474.0</ele><time>2026-04-25T14:09:55Z</time></trkpt><trkpt lat="45.960905187172024" lon="10.320612710356082"><ele>475.0</ele><time>2026-04-25T14:09:56Z</time></trkpt><trkpt lat="45.960851858388686" lon="10.320464057464037"><ele>476.0</ele><time>2026-04-25T14:09:57Z</time></trkpt><trkpt lat="45.96081204712166" lon="10.320290082180392"><ele>477.0</ele><time>2026-04-25T14:09:58Z</time></trkpt><trkpt lat="45.96074806490487" lon="10.320108608470793"><ele>478.0</ele><time>2026-04-25T14:09:59Z</time></trkpt><trkpt lat="45.96069734239726" lon="10.319961369288185"><ele>478.00000000000006</ele><time>2026-04-25T14:10:00Z</time></trkpt><trkpt lat="45.96066195937191" lon="10.319826899366877"><ele>478.0</ele><time>2026-04-25T14:10:01Z</time></trkpt><trkpt lat="45.96063890634426" lon="10.319741389111353"><ele>478.0</ele><time>2026-04-25T14:10:02Z</time></trkpt><trkpt lat="45.96057725105023" lon="10.319608771460382"><ele>478.0</ele><time>2026-04-25T14:10:03Z</time></trkpt><trkpt lat="45.960559337631786" lon="10.31948933175927"><ele>478.00000000000006</ele><time>2026-04-25T14:10:04Z</time></trkpt><trkpt lat="45.960526639816045" lon="10.319386166268748"><ele>478.0</ele><time>2026-04-25T14:10:05Z</time></trkpt><trkpt lat="45.960478164081856" lon="10.319298814504963"><ele>472.79999999999995</ele><time>2026-04-25T14:10:06Z</time></trkpt><trkpt lat="45.96043574471317" lon="10.319206845401617"><ele>467.59999999999997</ele><time>2026-04-25T14:10:07Z</time></trkpt><trkpt lat="45.9603720099539" lon="10.319086079916362"><ele>462.40000000000003</ele><time>2026-04-25T14:10:08Z</time></trkpt><trkpt lat="45.96032558784452" lon="10.318973749866341"><ele>457.20000000000005</ele><time>2026-04-25T14:10:09Z</time></trkpt><trkpt lat="45.96025253119901" lon="10.318860146649211"><ele>452.0</ele><time>2026-04-25T14:10:11Z</time></trkpt><trkpt lat="45.960197184836616" lon="10.318781118150385"><ele>451.20000000000005</ele><time>2026-04-25T14:10:13Z</time></trkpt><trkpt lat="45.96012702793548" lon="10.318697873052857"><ele>450.40000000000003</ele><time>2026-04-25T14:10:15Z</time></trkpt><trkpt lat="45.96012393082261" lon="10.318598736530365"><ele>449.59999999999997</ele><time>2026-04-25T14:10:17Z</time></trkpt><trkpt lat="45.960065916568546" lon="10.318416053812513"><ele>448.79999999999995</ele><time>2026-04-25T14:10:19Z</time></trkpt><trkpt lat="45.96002170178298" lon="10.318319226083482"><ele>448.0</ele><time>2026-04-25T14:10:20Z</time></trkpt><trkpt lat="45.959953970916814" lon="10.318217590068468"><ele>448.0</ele><time>2026-04-25T14:10:21Z</time></trkpt><trkpt lat="45.9598878836156" lon="10.318122680547715"><ele>447.99999999999994</ele><time>2026-04-25T14:10:22Z</time></trkpt><trkpt lat="45.95981564283745" lon="10.318031643012391"><ele>447.99999999999994</ele><time>2026-04-25T14:10:23Z</time></trkpt><trkpt lat="45.95970867258456" lon="10.317962160438803"><ele>448.0</ele><time>2026-04-25T14:10:24Z</time></trkpt><trkpt lat="45.95960905824792" lon="10.317851083148792"><ele>448.0</ele><time>2026-04-25T14:10:25Z</time></trkpt><trkpt lat="45.95950907774435" lon="10.317747338703754"><ele>442.0</ele><time>2026-04-25T14:10:26Z</time></trkpt><trkpt lat="45.95941848967854" lon="10.317629042411987"><ele>436.0</ele><time>2026-04-25T14:10:27Z</time></trkpt><trkpt lat="45.959342642846295" lon="10.317469297238592"><ele>430.0</ele><time>2026-04-25T14:10:28Z</time></trkpt><trkpt lat="45.95927991722285" lon="10.317319629534042"><ele>424.0</ele><time>2026-04-25T14:10:29Z</time></trkpt><trkpt lat="45.95924067253891" lon="10.317170514418784"><ele>424.0</ele><time>2026-04-25T14:10:30Z</time></trkpt><trkpt lat="45.95925086186204" lon="10.31703268009298"><ele>424.0</ele><time>2026-04-25T14:10:31Z</time></trkpt><trkpt lat="45.95924832376033" lon="10.316922138859171"><ele>424.0</ele><time>2026-04-25T14:10:32Z</time></trkpt><trkpt lat="45.959250354694504" lon="10.316793317547303"><ele>424.0</ele><time>2026-04-25T14:10:33Z</time></trkpt><trkpt lat="45.95925134406052" lon="10.316672393405662"><ele>424.0</ele><time>2026-04-25T14:10:34Z</time></trkpt><trkpt lat="45.95906346721889" lon="10.31662151806698"><ele>424.0</ele><time>2026-04-25T14:10:35Z</time></trkpt><trkpt lat="45.95898862403035" lon="10.316538707449418"><ele>424.0</ele><time>2026-04-25T14:10:36Z</time></trkpt><trkpt lat="45.95890593990646" lon="10.31644664220321"><ele>424.0</ele><time>2026-04-25T14:10:37Z</time></trkpt><trkpt lat="45.95882819502474" lon="10.316360659097304"><ele>424.0</ele><time>2026-04-25T14:10:38Z</time></trkpt><trkpt lat="45.9587520164536" lon="10.316276764169375"><ele>424.0</ele><time>2026-04-25T14:10:39Z</time></trkpt><trkpt lat="45.958718592672454" lon="10.316129295253234"><ele>422.4</ele><time>2026-04-25T14:10:40Z</time></trkpt><trkpt lat="45.958637586125796" lon="10.31605701703344"><ele>420.79999999999995</ele><time>2026-04-25T14:10:41Z</time></trkpt><trkpt lat="45.95856438579196" lon="10.31593625824503"><ele>419.20000000000005</ele><time>2026-04-25T14:10:42Z</time></trkpt><trkpt lat="45.95848053143264" lon="10.315825650278288"><ele>417.6</ele><time>2026-04-25T14:10:43Z</time></trkpt><trkpt lat="45.95839048627304" lon="10.315773936225838"><ele>416.0</ele><time>2026-04-25T14:10:44Z</time></trkpt><trkpt lat="45.95833264554048" lon="10.315737907179358"><ele>415.99999999999994</ele><time>2026-04-25T14:10:45Z</time></trkpt><trkpt lat="45.95834353982426" lon="10.315598314094157"><ele>416.0</ele><time>2026-04-25T14:10:47Z</time></trkpt><trkpt lat="45.95831363168191" lon="10.315515332212687"><ele>416.0</ele><time>2026-04-25T14:10:48Z</time></trkpt><trkpt lat="45.95827828463072" lon="10.315409580907392"><ele>416.0</ele><time>2026-04-25T14:10:49Z</time></trkpt><trkpt lat="45.958202485280104" lon="10.315297065318097"><ele>415.99999999999994</ele><time>2026-04-25T14:10:50Z</time></trkpt><trkpt lat="45.958138661435946" lon="10.315209885430198"><ele>416.0</ele><time>2026-04-25T14:10:51Z</time></trkpt><trkpt lat="45.958061480297715" lon="10.315162516559882"><ele>411.66666666666663</ele><time>2026-04-25T14:10:52Z</time></trkpt><trkpt lat="45.957992186044734" lon="10.31508737616409"><ele>407.3333333333333</ele><time>2026-04-25T14:10:53Z</time></trkpt><trkpt lat="45.95794342929989" lon="10.315020719109423"><ele>403.0</ele><time>2026-04-25T14:10:54Z</time></trkpt><trkpt lat="45.95788909055089" lon="10.314924000459726"><ele>398.66666666666663</ele><time>2026-04-25T14:10:55Z</time></trkpt><trkpt lat="45.95785261017252" lon="10.314831208959205"><ele>394.3333333333333</ele><time>2026-04-25T14:10:56Z</time></trkpt><trkpt lat="45.95783028094763" lon="10.314710268720301"><ele>390.0</ele><time>2026-04-25T14:10:57Z</time></trkpt><trkpt lat="45.95778181497425" lon="10.314603539159048"><ele>383.6</ele><time>2026-04-25T14:10:58Z</time></trkpt><trkpt lat="45.9577247049273" lon="10.314501020068692"><ele>377.2</ele><time>2026-04-25T14:10:59Z</time></trkpt><trkpt lat="45.95767620749899" lon="10.314402022589515"><ele>370.79999999999995</ele><time>2026-04-25T14:11:00Z</time></trkpt><trkpt lat="45.95764807748296" lon="10.314285390185816"><ele>364.4</ele><time>2026-04-25T14:11:01Z</time></trkpt><trkpt lat="45.957600007285954" lon="10.314161271949883"><ele>358.0</ele><time>2026-04-25T14:11:02Z</time></trkpt><trkpt lat="45.95754777428063" lon="10.314036241188333"><ele>358.3333333333333</ele><time>2026-04-25T14:11:03Z</time></trkpt><trkpt lat="45.957499207947066" lon="10.313931228882874"><ele>358.66666666666663</ele><time>2026-04-25T14:11:04Z</time></trkpt><trkpt lat="45.957457462349126" lon="10.313831694482268"><ele>359.0</ele><time>2026-04-25T14:11:05Z</time></trkpt><trkpt lat="45.95742234580063" lon="10.313733355140963"><ele>359.3333333333333</ele><time>2026-04-25T14:11:06Z</time></trkpt><trkpt lat="45.95735289138694" lon="10.313657209152094"><ele>359.6666666666667</ele><time>2026-04-25T14:11:07Z</time></trkpt><trkpt lat="45.95727117137401" lon="10.313554545283232"><ele>360.0</ele><time>2026-04-25T14:11:08.001Z</time></trkpt><trkpt lat="45.95720460184584" lon="10.313462995282736"><ele>360.0</ele><time>2026-04-25T14:11:09.001Z</time></trkpt><trkpt lat="45.95714389790384" lon="10.313385069512744"><ele>360.0</ele><time>2026-04-25T14:11:10.001Z</time></trkpt><trkpt lat="45.95707247638112" lon="10.313341907935193"><ele>360.0</ele><time>2026-04-25T14:11:11.001Z</time></trkpt><trkpt lat="45.9569962984645" lon="10.313314316217289"><ele>360.0</ele><time>2026-04-25T14:11:12.001Z</time></trkpt><trkpt lat="45.95687428361732" lon="10.313318531641572"><ele>360.0</ele><time>2026-04-25T14:11:13.001Z</time></trkpt><trkpt lat="45.95675216053776" lon="10.31330055738306"><ele>360.5</ele><time>2026-04-25T14:11:14.001Z</time></trkpt><trkpt lat="45.95662735913603" lon="10.313265390390837"><ele>361.0</ele><time>2026-04-25T14:11:15.001Z</time></trkpt><trkpt lat="45.95654988906404" lon="10.313178893481544"><ele>361.5</ele><time>2026-04-25T14:11:16.001Z</time></trkpt><trkpt lat="45.956461193838976" lon="10.313091796165823"><ele>362.0</ele><time>2026-04-25T14:11:17.001Z</time></trkpt><trkpt lat="45.95636879113072" lon="10.31297197814039"><ele>362.0</ele><time>2026-04-25T14:11:18.001Z</time></trkpt><trkpt lat="45.956305017843476" lon="10.312869502226892"><ele>362.0</ele><time>2026-04-25T14:11:19.001Z</time></trkpt><trkpt lat="45.95625771471006" lon="10.312796718592697"><ele>362.0</ele><time>2026-04-25T14:11:20.001Z</time></trkpt><trkpt lat="45.956258943681846" lon="10.312704338323332"><ele>362.0</ele><time>2026-04-25T14:11:21.001Z</time></trkpt><trkpt lat="45.95627294342693" lon="10.312553516151299"><ele>362.0</ele><time>2026-04-25T14:11:22.001Z</time></trkpt><trkpt lat="45.956325750730144" lon="10.312376572521552"><ele>358.6666666666667</ele><time>2026-04-25T14:11:23.001Z</time></trkpt><trkpt lat="45.95632581672225" lon="10.312201628463633"><ele>355.3333333333333</ele><time>2026-04-25T14:11:24.001Z</time></trkpt><trkpt lat="45.95601151289428" lon="10.312075981529892"><ele>352.0</ele><time>2026-04-25T14:11:25.001Z</time></trkpt><trkpt lat="45.95595720394062" lon="10.311950477461531"><ele>356.0</ele><time>2026-04-25T14:11:26.001Z</time></trkpt><trkpt lat="45.95586878104351" lon="10.311779402077999"><ele>360.0</ele><time>2026-04-25T14:11:27.001Z</time></trkpt><trkpt lat="45.95579541763161" lon="10.311627401597704"><ele>364.0</ele><time>2026-04-25T14:11:28.001Z</time></trkpt><trkpt lat="45.955734200753845" lon="10.31152940947986"><ele>368.0</ele><time>2026-04-25T14:11:29.001Z</time></trkpt><trkpt lat="45.955697468917556" lon="10.311416982190815"><ele>365.79999999999995</ele><time>2026-04-25T14:11:30.001Z</time></trkpt><trkpt lat="45.9556536183826" lon="10.311301019451776"><ele>363.6</ele><time>2026-04-25T14:11:31.001Z</time></trkpt><trkpt lat="45.95559239982129" lon="10.311195162537826"><ele>361.4</ele><time>2026-04-25T14:11:32.001Z</time></trkpt><trkpt lat="45.955520436902326" lon="10.31108509908383"><ele>359.20000000000005</ele><time>2026-04-25T14:11:33.001Z</time></trkpt><trkpt lat="45.95545694125565" lon="10.310998742031268"><ele>357.0</ele><time>2026-04-25T14:11:34.001Z</time></trkpt><trkpt lat="45.95539319588093" lon="10.310898868219546"><ele>357.0</ele><time>2026-04-25T14:11:35.001Z</time></trkpt><trkpt lat="45.95532814028133" lon="10.31079623289003"><ele>357.0</ele><time>2026-04-25T14:11:36.001Z</time></trkpt><trkpt lat="45.955266444881126" lon="10.31072323935916"><ele>357.0</ele><time>2026-04-25T14:11:37.001Z</time></trkpt><trkpt lat="45.95521637804652" lon="10.310563995510549"><ele>357.0</ele><time>2026-04-25T14:11:39.001Z</time></trkpt><trkpt lat="45.95519206383627" lon="10.310438453789596"><ele>357.0</ele><time>2026-04-25T14:11:40.001Z</time></trkpt><trkpt lat="45.95517625961128" lon="10.310306086647843"><ele>355.8</ele><time>2026-04-25T14:11:41.001Z</time></trkpt><trkpt lat="45.95514615525268" lon="10.310186309807623"><ele>354.6</ele><time>2026-04-25T14:11:42.001Z</time></trkpt><trkpt lat="45.955106479824146" lon="10.31003556210119"><ele>353.40000000000003</ele><time>2026-04-25T14:11:43.001Z</time></trkpt><trkpt lat="45.95507581282345" lon="10.309855310214754"><ele>352.20000000000005</ele><time>2026-04-25T14:11:44.001Z</time></trkpt><trkpt lat="45.955042016566885" lon="10.309707914058455"><ele>351.0</ele><time>2026-04-25T14:11:45.001Z</time></trkpt><trkpt lat="45.95493494618564" lon="10.3095737932054"><ele>355.0</ele><time>2026-04-25T14:11:46.001Z</time></trkpt><trkpt lat="45.9548649322097" lon="10.309427192877273"><ele>359.0</ele><time>2026-04-25T14:11:47.001Z</time></trkpt><trkpt lat="45.95479230660295" lon="10.309281266509"><ele>363.0</ele><time>2026-04-25T14:11:48.001Z</time></trkpt><trkpt lat="45.954725931775855" lon="10.309152862227245"><ele>367.0</ele><time>2026-04-25T14:11:49.001Z</time></trkpt><trkpt lat="45.95464659093515" lon="10.309004355161056"><ele>365.5</ele><time>2026-04-25T14:11:50.001Z</time></trkpt><trkpt lat="45.95458067171943" lon="10.308867542719353"><ele>364.0</ele><time>2026-04-25T14:11:51.001Z</time></trkpt><trkpt lat="45.954449768098165" lon="10.308734120789573"><ele>362.5</ele><time>2026-04-25T14:11:52.001Z</time></trkpt><trkpt lat="45.9543746963234" lon="10.308598459919692"><ele>361.0</ele><time>2026-04-25T14:11:53.001Z</time></trkpt><trkpt lat="45.95433956191172" lon="10.30848667168791"><ele>361.0</ele><time>2026-04-25T14:11:54.001Z</time></trkpt><trkpt lat="45.95428895349042" lon="10.308368706086862"><ele>361.0</ele><time>2026-04-25T14:11:55.001Z</time></trkpt><trkpt lat="45.95421941855245" lon="10.308294738844312"><ele>361.0</ele><time>2026-04-25T14:11:56.001Z</time></trkpt><trkpt lat="45.95413874706125" lon="10.308253011854957"><ele>361.0</ele><time>2026-04-25T14:11:57.001Z</time></trkpt><trkpt lat="45.95404702218374" lon="10.308209119268222"><ele>361.0</ele><time>2026-04-25T14:11:58.001Z</time></trkpt><trkpt lat="45.95393141495093" lon="10.308131921933622"><ele>365.25</ele><time>2026-04-25T14:11:59.001Z</time></trkpt><trkpt lat="45.95381446074258" lon="10.308028943431346"><ele>369.5</ele><time>2026-04-25T14:12:00.001Z</time></trkpt><trkpt lat="45.9537092230473" lon="10.307951094411388"><ele>373.75</ele><time>2026-04-25T14:12:01.001Z</time></trkpt><trkpt lat="45.95365921448938" lon="10.307878346063347"><ele>378.0</ele><time>2026-04-25T14:12:02.001Z</time></trkpt><trkpt lat="45.95354258173106" lon="10.307716186097066"><ele>378.0</ele><time>2026-04-25T14:12:04.001Z</time></trkpt><trkpt lat="45.95346200601708" lon="10.307534633804412"><ele>378.0</ele><time>2026-04-25T14:12:05.001Z</time></trkpt><trkpt lat="45.95342533596246" lon="10.307415451816068"><ele>378.0</ele><time>2026-04-25T14:12:06.001Z</time></trkpt><trkpt lat="45.95339220877268" lon="10.307266390463822"><ele>378.0</ele><time>2026-04-25T14:12:07.001Z</time></trkpt><trkpt lat="45.953355730363626" lon="10.307117542868543"><ele>379.8333333333333</ele><time>2026-04-25T14:12:08.001Z</time></trkpt><trkpt lat="45.95331145546076" lon="10.306980822777339"><ele>381.66666666666663</ele><time>2026-04-25T14:12:09.001Z</time></trkpt><trkpt lat="45.953295256914785" lon="10.306856256951761"><ele>383.5</ele><time>2026-04-25T14:12:10.001Z</time></trkpt><trkpt lat="45.95326266634417" lon="10.30674420380727"><ele>385.3333333333333</ele><time>2026-04-25T14:12:11.001Z</time></trkpt><trkpt lat="45.953249205389255" lon="10.306607594703362"><ele>387.16666666666663</ele><time>2026-04-25T14:12:12.001Z</time></trkpt><trkpt lat="45.95323735378833" lon="10.306517590024942"><ele>389.0</ele><time>2026-04-25T14:12:13.001Z</time></trkpt><trkpt lat="45.95329864802233" lon="10.306330793816958"><ele>386.8333333333333</ele><time>2026-04-25T14:12:15.001Z</time></trkpt><trkpt lat="45.95337841112686" lon="10.306193666212017"><ele>384.66666666666663</ele><time>2026-04-25T14:12:16.001Z</time></trkpt><trkpt lat="45.95339714417014" lon="10.306059014897775"><ele>382.5</ele><time>2026-04-25T14:12:17.001Z</time></trkpt><trkpt lat="45.953456424714915" lon="10.305960593626818"><ele>380.3333333333333</ele><time>2026-04-25T14:12:18.001Z</time></trkpt><trkpt lat="45.953515954731394" lon="10.305900588782615"><ele>378.16666666666663</ele><time>2026-04-25T14:12:19.001Z</time></trkpt><trkpt lat="45.95356284469276" lon="10.305836989242858"><ele>376.0</ele><time>2026-04-25T14:12:20.001Z</time></trkpt><trkpt lat="45.95359052609801" lon="10.30575037900576"><ele>376.0</ele><time>2026-04-25T14:12:22.001Z</time></trkpt><trkpt lat="45.95353527663428" lon="10.305680725922043"><ele>376.0</ele><time>2026-04-25T14:12:25.001Z</time></trkpt><trkpt lat="45.9534873726436" lon="10.30561243596093"><ele>376.0</ele><time>2026-04-25T14:12:26.001Z</time></trkpt><trkpt lat="45.95343067165956" lon="10.3055354098851"><ele>376.0</ele><time>2026-04-25T14:12:27.001Z</time></trkpt><trkpt lat="45.953331573018815" lon="10.305474073465144"><ele>376.0</ele><time>2026-04-25T14:12:28.001Z</time></trkpt><trkpt lat="45.953168983426515" lon="10.30522809414757"><ele>376.4</ele><time>2026-04-25T14:12:29.001Z</time></trkpt><trkpt lat="45.95308817088174" lon="10.305149938220802"><ele>376.8</ele><time>2026-04-25T14:12:30.001Z</time></trkpt><trkpt lat="45.95300304883891" lon="10.305077365718464"><ele>377.2</ele><time>2026-04-25T14:12:31.001Z</time></trkpt><trkpt lat="45.952930943811644" lon="10.304977211686888"><ele>377.59999999999997</ele><time>2026-04-25T14:12:32.001Z</time></trkpt><trkpt lat="45.95284678076301" lon="10.304858944031736"><ele>378.0</ele><time>2026-04-25T14:12:33.001Z</time></trkpt><trkpt lat="45.95276664886921" lon="10.304741943795008"><ele>378.0</ele><time>2026-04-25T14:12:34.001Z</time></trkpt><trkpt lat="45.95271134279349" lon="10.304634886973304"><ele>378.0</ele><time>2026-04-25T14:12:35.001Z</time></trkpt><trkpt lat="45.95264100529143" lon="10.304533529270568"><ele>378.0</ele><time>2026-04-25T14:12:36.001Z</time></trkpt><trkpt lat="45.95256358226321" lon="10.304467242804588"><ele>378.0</ele><time>2026-04-25T14:12:37.001Z</time></trkpt><trkpt lat="45.95252137087256" lon="10.304295204846408"><ele>378.0</ele><time>2026-04-25T14:12:39.001Z</time></trkpt><trkpt lat="45.95255448626809" lon="10.304199376887976"><ele>378.0</ele><time>2026-04-25T14:12:40.001Z</time></trkpt><trkpt lat="45.9525626793778" lon="10.30409275850789"><ele>378.0</ele><time>2026-04-25T14:12:41.001Z</time></trkpt><trkpt lat="45.95254820934386" lon="10.30397248340234"><ele>378.0</ele><time>2026-04-25T14:12:42.001Z</time></trkpt><trkpt lat="45.95246235707953" lon="10.303844808333292"><ele>378.0</ele><time>2026-04-25T14:12:43.001Z</time></trkpt><trkpt lat="45.952393002774144" lon="10.30370363013514"><ele>378.0</ele><time>2026-04-25T14:12:44.001Z</time></trkpt><trkpt lat="45.95234353806821" lon="10.303579636505864"><ele>378.0</ele><time>2026-04-25T14:12:45.001Z</time></trkpt><trkpt lat="45.95232252571991" lon="10.303458871219295"><ele>378.0</ele><time>2026-04-25T14:12:46.001Z</time></trkpt><trkpt lat="45.95233126067446" lon="10.303342081601539"><ele>378.0</ele><time>2026-04-25T14:12:47.001Z</time></trkpt><trkpt lat="45.952414474841575" lon="10.303224886129216"><ele>378.0</ele><time>2026-04-25T14:12:48.001Z</time></trkpt><trkpt lat="45.95250940718304" lon="10.303100754870224"><ele>378.0</ele><time>2026-04-25T14:12:49.001Z</time></trkpt><trkpt lat="45.952631376702804" lon="10.30294471922037"><ele>375.0</ele><time>2026-04-25T14:12:50.001Z</time></trkpt><trkpt lat="45.95272165462816" lon="10.30276754037362"><ele>372.0</ele><time>2026-04-25T14:12:51.001Z</time></trkpt><trkpt lat="45.952797181484684" lon="10.302612171579781"><ele>369.0</ele><time>2026-04-25T14:12:52.001Z</time></trkpt><trkpt lat="45.9528787657114" lon="10.302465858206896"><ele>366.0</ele><time>2026-04-25T14:12:53.001Z</time></trkpt><trkpt lat="45.952985666462475" lon="10.302339120862712"><ele>366.0</ele><time>2026-04-25T14:12:54.001Z</time></trkpt><trkpt lat="45.95311899510711" lon="10.302252866527176"><ele>366.0</ele><time>2026-04-25T14:12:55.001Z</time></trkpt><trkpt lat="45.95325943585086" lon="10.302156819604534"><ele>366.0</ele><time>2026-04-25T14:12:56.001Z</time></trkpt><trkpt lat="45.95337922618068" lon="10.302044962850793"><ele>366.0</ele><time>2026-04-25T14:12:57.001Z</time></trkpt><trkpt lat="45.953485979340876" lon="10.301926120673148"><ele>363.25</ele><time>2026-04-25T14:12:58.001Z</time></trkpt><trkpt lat="45.95359445933745" lon="10.301816384676751"><ele>360.5</ele><time>2026-04-25T14:12:59.001Z</time></trkpt><trkpt lat="45.953698575824646" lon="10.301718221516293"><ele>357.75</ele><time>2026-04-25T14:13:00.001Z</time></trkpt><trkpt lat="45.95379882988648" lon="10.301611841322787"><ele>355.0</ele><time>2026-04-25T14:13:01.001Z</time></trkpt><trkpt lat="45.95389679427368" lon="10.301522811998245"><ele>355.0</ele><time>2026-04-25T14:13:02.001Z</time></trkpt><trkpt lat="45.953997874756844" lon="10.301439960636591"><ele>355.0</ele><time>2026-04-25T14:13:03.001Z</time></trkpt><trkpt lat="45.954099707375285" lon="10.301380551395187"><ele>355.0</ele><time>2026-04-25T14:13:04.001Z</time></trkpt><trkpt lat="45.95419263247656" lon="10.301296123572866"><ele>355.0</ele><time>2026-04-25T14:13:05.001Z</time></trkpt><trkpt lat="45.95424991377057" lon="10.301251400424226"><ele>355.0</ele><time>2026-04-25T14:13:06.001Z</time></trkpt><trkpt lat="45.95429540040915" lon="10.301164767004108"><ele>353.16666666666663</ele><time>2026-04-25T14:13:07.001Z</time></trkpt><trkpt lat="45.95432286360698" lon="10.301081354400468"><ele>351.3333333333333</ele><time>2026-04-25T14:13:08.001Z</time></trkpt><trkpt lat="45.954346471614656" lon="10.30099630206404"><ele>349.5</ele><time>2026-04-25T14:13:09.001Z</time></trkpt><trkpt lat="45.95432924903005" lon="10.300827633744225"><ele>347.6666666666667</ele><time>2026-04-25T14:13:11.001Z</time></trkpt><trkpt lat="45.95435607376621" lon="10.30072032470624"><ele>345.83333333333337</ele><time>2026-04-25T14:13:12.001Z</time></trkpt><trkpt lat="45.95439268732257" lon="10.300642541544047"><ele>344.0</ele><time>2026-04-25T14:13:13.001Z</time></trkpt><trkpt lat="45.95443044725558" lon="10.30056244180389"><ele>343.0</ele><time>2026-04-25T14:13:15.001Z</time></trkpt><trkpt lat="45.95439411398131" lon="10.300479709940825"><ele>342.0</ele><time>2026-04-25T14:13:19.001Z</time></trkpt><trkpt lat="45.95433012663992" lon="10.300447114917676"><ele>341.0</ele><time>2026-04-25T14:13:21.001Z</time></trkpt><trkpt lat="45.95423663713463" lon="10.300344950210178"><ele>340.0</ele><time>2026-04-25T14:13:22.001Z</time></trkpt><trkpt lat="45.954166516845994" lon="10.300223753377658"><ele>339.0</ele><time>2026-04-25T14:13:23.001Z</time></trkpt><trkpt lat="45.954127069493644" lon="10.300090270055826"><ele>340.25</ele><time>2026-04-25T14:13:24.001Z</time></trkpt><trkpt lat="45.95410327805796" lon="10.299975129521874"><ele>341.5</ele><time>2026-04-25T14:13:25.001Z</time></trkpt><trkpt lat="45.95407763863714" lon="10.299798176288572"><ele>342.75</ele><time>2026-04-25T14:13:26.001Z</time></trkpt><trkpt lat="45.95404575544646" lon="10.299584056103207"><ele>344.0</ele><time>2026-04-25T14:13:27.001Z</time></trkpt><trkpt lat="45.954013637187785" lon="10.299379256543716"><ele>344.0</ele><time>2026-04-25T14:13:28.001Z</time></trkpt><trkpt lat="45.95399217429873" lon="10.299203313865965"><ele>344.0</ele><time>2026-04-25T14:13:29.001Z</time></trkpt><trkpt lat="45.95397436651756" lon="10.29906919504764"><ele>344.0</ele><time>2026-04-25T14:13:30.001Z</time></trkpt><trkpt lat="45.95395663702991" lon="10.298938253806313"><ele>344.0</ele><time>2026-04-25T14:13:31.001Z</time></trkpt><trkpt lat="45.95394293234356" lon="10.298841130640572"><ele>344.0</ele><time>2026-04-25T14:13:32.001Z</time></trkpt><trkpt lat="45.95391875123943" lon="10.298738849103973"><ele>342.75</ele><time>2026-04-25T14:13:34.001Z</time></trkpt><trkpt lat="45.953921373452125" lon="10.29857352958086"><ele>341.5</ele><time>2026-04-25T14:13:37.001Z</time></trkpt><trkpt lat="45.95389939820659" lon="10.298420997448703"><ele>340.25</ele><time>2026-04-25T14:13:38.001Z</time></trkpt><trkpt lat="45.9539317783994" lon="10.29822777898259"><ele>339.0</ele><time>2026-04-25T14:13:39.001Z</time></trkpt><trkpt lat="45.953898136684" lon="10.298033635534532"><ele>339.0</ele><time>2026-04-25T14:13:40.001Z</time></trkpt><trkpt lat="45.953868447569185" lon="10.297815739333046"><ele>339.0</ele><time>2026-04-25T14:13:41.001Z</time></trkpt><trkpt lat="45.95382989991896" lon="10.297563219733766"><ele>339.0</ele><time>2026-04-25T14:13:42.001Z</time></trkpt><trkpt lat="45.953786201742254" lon="10.297315304550336"><ele>336.3333333333333</ele><time>2026-04-25T14:13:43.001Z</time></trkpt><trkpt lat="45.95372782478507" lon="10.297057007919372"><ele>333.66666666666663</ele><time>2026-04-25T14:13:44.001Z</time></trkpt><trkpt lat="45.953692538029514" lon="10.296791030198552"><ele>331.0</ele><time>2026-04-25T14:13:45.001Z</time></trkpt><trkpt lat="45.95364600977455" lon="10.296519690975288"><ele>327.3333333333333</ele><time>2026-04-25T14:13:46.001Z</time></trkpt><trkpt lat="45.95362098899743" lon="10.296241150820206"><ele>323.6666666666667</ele><time>2026-04-25T14:13:47.001Z</time></trkpt><trkpt lat="45.95363766647433" lon="10.295967542471429"><ele>320.0</ele><time>2026-04-25T14:13:48.001Z</time></trkpt><trkpt lat="45.95369389437222" lon="10.295700074479225"><ele>320.33333333333337</ele><time>2026-04-25T14:13:49.001Z</time></trkpt><trkpt lat="45.95378458990012" lon="10.295458345296307"><ele>320.6666666666667</ele><time>2026-04-25T14:13:50.001Z</time></trkpt><trkpt lat="45.95390182373223" lon="10.295238241343514"><ele>321.0</ele><time>2026-04-25T14:13:51.001Z</time></trkpt><trkpt lat="45.95403673222001" lon="10.295040161919669"><ele>321.0</ele><time>2026-04-25T14:13:52.001Z</time></trkpt><trkpt lat="45.95419227305998" lon="10.29487573647071"><ele>321.0</ele><time>2026-04-25T14:13:53.001Z</time></trkpt><trkpt lat="45.95439097191593" lon="10.294765473291395"><ele>321.0</ele><time>2026-04-25T14:13:54.001Z</time></trkpt><trkpt lat="45.95455966455022" lon="10.294610513672556"><ele>320.3333333333333</ele><time>2026-04-25T14:13:55.001Z</time></trkpt><trkpt lat="45.95472689020551" lon="10.294456901620126"><ele>319.66666666666663</ele><time>2026-04-25T14:13:56.001Z</time></trkpt><trkpt lat="45.954891464340896" lon="10.294305405055937"><ele>319.0</ele><time>2026-04-25T14:13:57.001Z</time></trkpt><trkpt lat="45.95505411763736" lon="10.294155151817371"><ele>318.3333333333333</ele><time>2026-04-25T14:13:58.001Z</time></trkpt><trkpt lat="45.955210535789504" lon="10.293987247101878"><ele>317.6666666666667</ele><time>2026-04-25T14:13:59.001Z</time></trkpt><trkpt lat="45.95536720311547" lon="10.293844366000943"><ele>317.0</ele><time>2026-04-25T14:14:00.001Z</time></trkpt><trkpt lat="45.95552389442528" lon="10.29370679124783"><ele>317.0</ele><time>2026-04-25T14:14:01.001Z</time></trkpt><trkpt lat="45.95566823408675" lon="10.29354321254638"><ele>317.0</ele><time>2026-04-25T14:14:02.001Z</time></trkpt><trkpt lat="45.9557740315428" lon="10.293357565361699"><ele>317.0</ele><time>2026-04-25T14:14:03.001Z</time></trkpt><trkpt lat="45.95586216542126" lon="10.293132300051942"><ele>312.6666666666667</ele><time>2026-04-25T14:14:04.001Z</time></trkpt><trkpt lat="45.955927167493066" lon="10.292890521995016"><ele>308.3333333333333</ele><time>2026-04-25T14:14:05.001Z</time></trkpt><trkpt lat="45.9559977663885" lon="10.292642156514196"><ele>304.0</ele><time>2026-04-25T14:14:06.001Z</time></trkpt><trkpt lat="45.95608015075791" lon="10.2924143166862"><ele>301.66666666666663</ele><time>2026-04-25T14:14:07.001Z</time></trkpt><trkpt lat="45.95615906785785" lon="10.292187596710308"><ele>299.3333333333333</ele><time>2026-04-25T14:14:08.001Z</time></trkpt><trkpt lat="45.95623223458609" lon="10.291950345857272"><ele>297.0</ele><time>2026-04-25T14:14:09.001Z</time></trkpt><trkpt lat="45.95629687296452" lon="10.291704849873419"><ele>297.0</ele><time>2026-04-25T14:14:10.001Z</time></trkpt><trkpt lat="45.95634890825754" lon="10.291472651711548"><ele>297.0</ele><time>2026-04-25T14:14:11.001Z</time></trkpt><trkpt lat="45.956366499678055" lon="10.291213321278969"><ele>297.0</ele><time>2026-04-25T14:14:12.001Z</time></trkpt><trkpt lat="45.95634523319506" lon="10.290953124000207"><ele>295.0</ele><time>2026-04-25T14:14:13.001Z</time></trkpt><trkpt lat="45.95629318016533" lon="10.290690682512151"><ele>293.0</ele><time>2026-04-25T14:14:14.001Z</time></trkpt><trkpt lat="45.95624792777017" lon="10.29042290195891"><ele>291.0</ele><time>2026-04-25T14:14:15.001Z</time></trkpt><trkpt lat="45.95622157282583" lon="10.290161317275759"><ele>290.0</ele><time>2026-04-25T14:14:16.001Z</time></trkpt><trkpt lat="45.95619392203178" lon="10.289906870936564"><ele>289.0</ele><time>2026-04-25T14:14:17.001Z</time></trkpt><trkpt lat="45.95620054726061" lon="10.289664946063734"><ele>288.0</ele><time>2026-04-25T14:14:18.001Z</time></trkpt><trkpt lat="45.956249799523036" lon="10.289443943745004"><ele>288.0</ele><time>2026-04-25T14:14:19.001Z</time></trkpt><trkpt lat="45.95633311501257" lon="10.289237995045756"><ele>288.0</ele><time>2026-04-25T14:14:20.001Z</time></trkpt><trkpt lat="45.95646131945704" lon="10.289058775789599"><ele>288.0</ele><time>2026-04-25T14:14:21.001Z</time></trkpt><trkpt lat="45.956614367322196" lon="10.288918419919444"><ele>288.0</ele><time>2026-04-25T14:14:22.001Z</time></trkpt><trkpt lat="45.956784995848636" lon="10.28879299432415"><ele>288.0</ele><time>2026-04-25T14:14:23.001Z</time></trkpt><trkpt lat="45.9569530522485" lon="10.288677275961765"><ele>288.0</ele><time>2026-04-25T14:14:24.001Z</time></trkpt><trkpt lat="45.95711486243386" lon="10.288566875981253"><ele>288.0</ele><time>2026-04-25T14:14:25.001Z</time></trkpt><trkpt lat="45.95727293333655" lon="10.288456488262412"><ele>288.0</ele><time>2026-04-25T14:14:26.001Z</time></trkpt><trkpt lat="45.95741274945745" lon="10.288344232742272"><ele>288.0</ele><time>2026-04-25T14:14:27.001Z</time></trkpt><trkpt lat="45.95752690713226" lon="10.288134393251076"><ele>301.6666666666667</ele><time>2026-04-25T14:14:28.001Z</time></trkpt><trkpt lat="45.9576151121745" lon="10.287992223315355"><ele>315.33333333333337</ele><time>2026-04-25T14:14:29.001Z</time></trkpt><trkpt lat="45.95764455393678" lon="10.28771603871623"><ele>329.0</ele><time>2026-04-25T14:14:30.001Z</time></trkpt><trkpt lat="45.957653744059414" lon="10.287448192003163"><ele>330.33333333333337</ele><time>2026-04-25T14:14:31.001Z</time></trkpt><trkpt lat="45.95763636440112" lon="10.287179329801145"><ele>331.6666666666667</ele><time>2026-04-25T14:14:32.001Z</time></trkpt><trkpt lat="45.957607705256876" lon="10.286910909096854"><ele>333.0</ele><time>2026-04-25T14:14:33.001Z</time></trkpt><trkpt lat="45.957585653897866" lon="10.286653818872555"><ele>335.6666666666667</ele><time>2026-04-25T14:14:34.001Z</time></trkpt><trkpt lat="45.95755439023836" lon="10.286391460419274"><ele>338.33333333333337</ele><time>2026-04-25T14:14:35.001Z</time></trkpt><trkpt lat="45.957520132501465" lon="10.286124140596058"><ele>341.0</ele><time>2026-04-25T14:14:36.001Z</time></trkpt><trkpt lat="45.957490265076856" lon="10.285849223940186"><ele>329.6666666666667</ele><time>2026-04-25T14:14:37.001Z</time></trkpt><trkpt lat="45.95746559088062" lon="10.285566067458209"><ele>318.3333333333333</ele><time>2026-04-25T14:14:38.001Z</time></trkpt><trkpt lat="45.95741425820862" lon="10.285309270934613"><ele>307.0</ele><time>2026-04-25T14:14:39.001Z</time></trkpt><trkpt lat="45.95735730911608" lon="10.2850557018311"><ele>307.0</ele><time>2026-04-25T14:14:40.001Z</time></trkpt><trkpt lat="45.957294111302524" lon="10.284813739648847"><ele>307.0</ele><time>2026-04-25T14:14:41.001Z</time></trkpt><trkpt lat="45.957212834133124" lon="10.284583023656303"><ele>307.0</ele><time>2026-04-25T14:14:42.001Z</time></trkpt><trkpt lat="45.957130908314305" lon="10.284338063793818"><ele>312.3333333333333</ele><time>2026-04-25T14:14:43.001Z</time></trkpt><trkpt lat="45.95702048791012" lon="10.284114787737453"><ele>317.6666666666667</ele><time>2026-04-25T14:14:44.001Z</time></trkpt><trkpt lat="45.956902129683456" lon="10.283896697326918"><ele>323.0</ele><time>2026-04-25T14:14:45.001Z</time></trkpt><trkpt lat="45.95677188265457" lon="10.28368866443026"><ele>321.33333333333337</ele><time>2026-04-25T14:14:46.001Z</time></trkpt><trkpt lat="45.95662009011471" lon="10.283508144494867"><ele>319.6666666666667</ele><time>2026-04-25T14:14:47.001Z</time></trkpt><trkpt lat="45.95647175870318" lon="10.283330538748"><ele>318.0</ele><time>2026-04-25T14:14:48.001Z</time></trkpt><trkpt lat="45.95630233569321" lon="10.283208628856315"><ele>318.0</ele><time>2026-04-25T14:14:49.001Z</time></trkpt><trkpt lat="45.95612763688553" lon="10.28312424464141"><ele>318.0</ele><time>2026-04-25T14:14:50.001Z</time></trkpt><trkpt lat="45.95595359369486" lon="10.283036177014228"><ele>318.0</ele><time>2026-04-25T14:14:51.001Z</time></trkpt><trkpt lat="45.95578047386506" lon="10.282942128458796"><ele>320.6666666666667</ele><time>2026-04-25T14:14:52.001Z</time></trkpt><trkpt lat="45.9556029527821" lon="10.282844926692364"><ele>323.33333333333337</ele><time>2026-04-25T14:14:53.001Z</time></trkpt><trkpt lat="45.95543499308602" lon="10.282757093299699"><ele>326.0</ele><time>2026-04-25T14:14:54.001Z</time></trkpt><trkpt lat="45.95527342767407" lon="10.282689032113934"><ele>326.0</ele><time>2026-04-25T14:14:55.001Z</time></trkpt><trkpt lat="45.95512797223851" lon="10.28254308231682"><ele>326.0</ele><time>2026-04-25T14:14:56.001Z</time></trkpt><trkpt lat="45.95500056971708" lon="10.282403152674632"><ele>326.0</ele><time>2026-04-25T14:14:57.001Z</time></trkpt><trkpt lat="45.954910874445176" lon="10.282235860668834"><ele>317.33333333333337</ele><time>2026-04-25T14:14:58.001Z</time></trkpt><trkpt lat="45.95483455931139" lon="10.282026347801851"><ele>308.6666666666667</ele><time>2026-04-25T14:14:59.001Z</time></trkpt><trkpt lat="45.95476132852525" lon="10.281812492787662"><ele>300.0</ele><time>2026-04-25T14:15:00.001Z</time></trkpt><trkpt lat="45.95468533089488" lon="10.281573427916946"><ele>307.6666666666667</ele><time>2026-04-25T14:15:01.001Z</time></trkpt><trkpt lat="45.95460614912228" lon="10.281333675687481"><ele>315.33333333333337</ele><time>2026-04-25T14:15:02.001Z</time></trkpt><trkpt lat="45.95453712900417" lon="10.281088381656254"><ele>323.0</ele><time>2026-04-25T14:15:03.001Z</time></trkpt><trkpt lat="45.95446582983516" lon="10.280835657920672"><ele>331.0</ele><time>2026-04-25T14:15:04.001Z</time></trkpt><trkpt lat="45.954391003240225" lon="10.280584832277556"><ele>339.0</ele><time>2026-04-25T14:15:05.001Z</time></trkpt><trkpt lat="45.954315157816666" lon="10.280336919756955"><ele>347.0</ele><time>2026-04-25T14:15:06.001Z</time></trkpt><trkpt lat="45.95423826839067" lon="10.28008288828373"><ele>333.0</ele><time>2026-04-25T14:15:07.001Z</time></trkpt><trkpt lat="45.95416045106468" lon="10.27982122056748"><ele>319.0</ele><time>2026-04-25T14:15:08.001Z</time></trkpt><trkpt lat="45.95408176761058" lon="10.279565139273604"><ele>305.0</ele><time>2026-04-25T14:15:09.001Z</time></trkpt><trkpt lat="45.954011030354394" lon="10.27934940633243"><ele>305.0</ele><time>2026-04-25T14:15:10.001Z</time></trkpt><trkpt lat="45.95394741300653" lon="10.279142741972345"><ele>305.0</ele><time>2026-04-25T14:15:11.001Z</time></trkpt><trkpt lat="45.953890822829976" lon="10.278965763713858"><ele>305.0</ele><time>2026-04-25T14:15:12.001Z</time></trkpt><trkpt lat="45.95382501258315" lon="10.278802662442612"><ele>305.0</ele><time>2026-04-25T14:15:13.001Z</time></trkpt><trkpt lat="45.9537304698015" lon="10.278663329751131"><ele>306.25</ele><time>2026-04-25T14:15:14.001Z</time></trkpt><trkpt lat="45.9536494225225" lon="10.278504671894101"><ele>307.5</ele><time>2026-04-25T14:15:15.001Z</time></trkpt><trkpt lat="45.95356416141525" lon="10.278343201928145"><ele>308.75</ele><time>2026-04-25T14:15:16.001Z</time></trkpt><trkpt lat="45.95346273699617" lon="10.27819582088618"><ele>310.0</ele><time>2026-04-25T14:15:17.001Z</time></trkpt><trkpt lat="45.95335556356694" lon="10.278072580385787"><ele>304.5</ele><time>2026-04-25T14:15:18.001Z</time></trkpt><trkpt lat="45.95322348722775" lon="10.277987829605435"><ele>299.0</ele><time>2026-04-25T14:15:19.001Z</time></trkpt><trkpt lat="45.95308117559444" lon="10.277947686993326"><ele>293.5</ele><time>2026-04-25T14:15:20.001Z</time></trkpt><trkpt lat="45.95292793328861" lon="10.277945180254884"><ele>288.0</ele><time>2026-04-25T14:15:21.001Z</time></trkpt><trkpt lat="45.95277751638872" lon="10.277938186539366"><ele>288.0</ele><time>2026-04-25T14:15:22.001Z</time></trkpt><trkpt lat="45.952629345761785" lon="10.277905676599659"><ele>288.0</ele><time>2026-04-25T14:15:23.001Z</time></trkpt><trkpt lat="45.95249984886696" lon="10.277858675053487"><ele>288.0</ele><time>2026-04-25T14:15:24.001Z</time></trkpt><trkpt lat="45.952390727492336" lon="10.277824836250073"><ele>288.0</ele><time>2026-04-25T14:15:25.001Z</time></trkpt><trkpt lat="45.95229617529275" lon="10.27779810486932"><ele>287.0</ele><time>2026-04-25T14:15:26.001Z</time></trkpt><trkpt lat="45.952196111376665" lon="10.2777658977048"><ele>286.0</ele><time>2026-04-25T14:15:27.001Z</time></trkpt><trkpt lat="45.95209574990106" lon="10.277729769716034"><ele>285.0</ele><time>2026-04-25T14:15:28.001Z</time></trkpt><trkpt lat="45.95198616805141" lon="10.277691680657936"><ele>284.0</ele><time>2026-04-25T14:15:29.001Z</time></trkpt><trkpt lat="45.95186737925603" lon="10.277676293401756"><ele>283.0</ele><time>2026-04-25T14:15:30.001Z</time></trkpt><trkpt lat="45.95174467449225" lon="10.27764140008567"><ele>282.5</ele><time>2026-04-25T14:15:31.001Z</time></trkpt><trkpt lat="45.951604846015435" lon="10.277612917376173"><ele>282.0</ele><time>2026-04-25T14:15:32.001Z</time></trkpt><trkpt lat="45.95146199812698" lon="10.277595657324326"><ele>281.5</ele><time>2026-04-25T14:15:33.001Z</time></trkpt><trkpt lat="45.95132646924126" lon="10.277598573558597"><ele>281.0</ele><time>2026-04-25T14:15:34.001Z</time></trkpt><trkpt lat="45.951185694645424" lon="10.277610823784185"><ele>281.0</ele><time>2026-04-25T14:15:35.001Z</time></trkpt><trkpt lat="45.951044931863294" lon="10.27763554092926"><ele>281.0</ele><time>2026-04-25T14:15:36.001Z</time></trkpt><trkpt lat="45.95090287122195" lon="10.277670185319144"><ele>281.0</ele><time>2026-04-25T14:15:37.001Z</time></trkpt><trkpt lat="45.9507594367563" lon="10.277726898599527"><ele>281.0</ele><time>2026-04-25T14:15:38.001Z</time></trkpt><trkpt lat="45.950621666250896" lon="10.277802276897868"><ele>281.25</ele><time>2026-04-25T14:15:39.001Z</time></trkpt><trkpt lat="45.95048752102738" lon="10.277894479982747"><ele>281.5</ele><time>2026-04-25T14:15:40.001Z</time></trkpt><trkpt lat="45.9503491156754" lon="10.277957068166252"><ele>281.75</ele><time>2026-04-25T14:15:41.001Z</time></trkpt><trkpt lat="45.95020371979258" lon="10.277961568276424"><ele>282.0</ele><time>2026-04-25T14:15:42.001Z</time></trkpt><trkpt lat="45.95007075135524" lon="10.27798199859763"><ele>282.25</ele><time>2026-04-25T14:15:43.001Z</time></trkpt><trkpt lat="45.94994749336991" lon="10.277944595091608"><ele>282.5</ele><time>2026-04-25T14:15:44.001Z</time></trkpt><trkpt lat="45.949825697063055" lon="10.277913708833117"><ele>282.75</ele><time>2026-04-25T14:15:45.001Z</time></trkpt><trkpt lat="45.94973078669346" lon="10.277872583386582"><ele>283.0</ele><time>2026-04-25T14:15:46.001Z</time></trkpt><trkpt lat="45.94962201468084" lon="10.277805432454196"><ele>283.0</ele><time>2026-04-25T14:15:47.001Z</time></trkpt><trkpt lat="45.9495265028785" lon="10.277738611803946"><ele>283.0</ele><time>2026-04-25T14:15:48.001Z</time></trkpt><trkpt lat="45.949428188572874" lon="10.277660165975458"><ele>283.0</ele><time>2026-04-25T14:15:49.001Z</time></trkpt><trkpt lat="45.9492516474079" lon="10.277517530906499"><ele>283.0</ele><time>2026-04-25T14:15:50.001Z</time></trkpt><trkpt lat="45.949065422471946" lon="10.277489995655028"><ele>283.3333333333333</ele><time>2026-04-25T14:15:51.001Z</time></trkpt><trkpt lat="45.94894850578276" lon="10.277340515666781"><ele>283.6666666666667</ele><time>2026-04-25T14:15:52.001Z</time></trkpt><trkpt lat="45.948826472765425" lon="10.27724536990219"><ele>284.0</ele><time>2026-04-25T14:15:53.001Z</time></trkpt><trkpt lat="45.94867760760621" lon="10.27718074662476"><ele>284.0</ele><time>2026-04-25T14:15:54.001Z</time></trkpt><trkpt lat="45.948534835203866" lon="10.277073987187245"><ele>284.0</ele><time>2026-04-25T14:15:55.001Z</time></trkpt><trkpt lat="45.94837778935918" lon="10.277029780900563"><ele>284.0</ele><time>2026-04-25T14:15:56.001Z</time></trkpt><trkpt lat="45.94823229479192" lon="10.276973223019228"><ele>283.33333333333337</ele><time>2026-04-25T14:15:57.001Z</time></trkpt><trkpt lat="45.94808468839756" lon="10.27690644959676"><ele>282.6666666666667</ele><time>2026-04-25T14:15:58.001Z</time></trkpt><trkpt lat="45.947928857433254" lon="10.276836701481406"><ele>282.0</ele><time>2026-04-25T14:15:59.001Z</time></trkpt><trkpt lat="45.94776742938368" lon="10.276798968972084"><ele>282.0</ele><time>2026-04-25T14:16:00.001Z</time></trkpt><trkpt lat="45.94759371285231" lon="10.276760005199217"><ele>282.0</ele><time>2026-04-25T14:16:01.001Z</time></trkpt><trkpt lat="45.947420644908625" lon="10.27677866411399"><ele>282.0</ele><time>2026-04-25T14:16:02.001Z</time></trkpt><trkpt lat="45.94724897270664" lon="10.276814650262683"><ele>281.0</ele><time>2026-04-25T14:16:03.001Z</time></trkpt><trkpt lat="45.94708588332037" lon="10.276854517505363"><ele>280.0</ele><time>2026-04-25T14:16:04.001Z</time></trkpt><trkpt lat="45.9469252545391" lon="10.276892205273441"><ele>279.0</ele><time>2026-04-25T14:16:05.001Z</time></trkpt><trkpt lat="45.94677358108159" lon="10.276938753759701"><ele>278.3333333333333</ele><time>2026-04-25T14:16:06.001Z</time></trkpt><trkpt lat="45.94661406365302" lon="10.27699761065709"><ele>277.66666666666663</ele><time>2026-04-25T14:16:07.001Z</time></trkpt><trkpt lat="45.946456697481366" lon="10.277038528599626"><ele>277.0</ele><time>2026-04-25T14:16:08.001Z</time></trkpt><trkpt lat="45.94629695184468" lon="10.277074416657664"><ele>277.0</ele><time>2026-04-25T14:16:09.001Z</time></trkpt><trkpt lat="45.94614685489103" lon="10.277093276887513"><ele>277.0</ele><time>2026-04-25T14:16:10.001Z</time></trkpt><trkpt lat="45.94600282595864" lon="10.277090748792574"><ele>277.0</ele><time>2026-04-25T14:16:11.001Z</time></trkpt><trkpt lat="45.945883461205064" lon="10.277072744371237"><ele>277.0</ele><time>2026-04-25T14:16:12.001Z</time></trkpt><trkpt lat="45.9457681030171" lon="10.277025847381656"><ele>275.3333333333333</ele><time>2026-04-25T14:16:13.001Z</time></trkpt><trkpt lat="45.94564164012754" lon="10.276958424209583"><ele>273.6666666666667</ele><time>2026-04-25T14:16:14.001Z</time></trkpt><trkpt lat="45.9455060823414" lon="10.276853635519073"><ele>272.0</ele><time>2026-04-25T14:16:15.001Z</time></trkpt><trkpt lat="45.9453693339614" lon="10.276715184402164"><ele>272.0</ele><time>2026-04-25T14:16:16.001Z</time></trkpt><trkpt lat="45.94525696929364" lon="10.276530536234867"><ele>272.0</ele><time>2026-04-25T14:16:17.001Z</time></trkpt><trkpt lat="45.94516671944397" lon="10.276321045849404"><ele>272.0</ele><time>2026-04-25T14:16:18.001Z</time></trkpt><trkpt lat="45.94509458196452" lon="10.27608564787189"><ele>272.33333333333337</ele><time>2026-04-25T14:16:19.001Z</time></trkpt><trkpt lat="45.94501478949427" lon="10.275852183921518"><ele>272.6666666666667</ele><time>2026-04-25T14:16:20.001Z</time></trkpt><trkpt lat="45.944930143549854" lon="10.275625817044423"><ele>273.0</ele><time>2026-04-25T14:16:21.001Z</time></trkpt><trkpt lat="45.94486002826269" lon="10.275367979231287"><ele>276.3333333333333</ele><time>2026-04-25T14:16:22.001Z</time></trkpt><trkpt lat="45.94478565112591" lon="10.275132548840519"><ele>279.66666666666663</ele><time>2026-04-25T14:16:23.001Z</time></trkpt><trkpt lat="45.94469615472402" lon="10.274895575069225"><ele>283.0</ele><time>2026-04-25T14:16:24.001Z</time></trkpt><trkpt lat="45.944614325866645" lon="10.27465259452685"><ele>290.66666666666663</ele><time>2026-04-25T14:16:25.001Z</time></trkpt><trkpt lat="45.94453428557963" lon="10.27441525678678"><ele>298.3333333333333</ele><time>2026-04-25T14:16:26.001Z</time></trkpt><trkpt lat="45.9444635335586" lon="10.2741867278215"><ele>306.0</ele><time>2026-04-25T14:16:27.001Z</time></trkpt><trkpt lat="45.94438844882246" lon="10.273963186979104"><ele>312.6666666666667</ele><time>2026-04-25T14:16:28.001Z</time></trkpt><trkpt lat="45.9443082228582" lon="10.273751344168618"><ele>319.33333333333337</ele><time>2026-04-25T14:16:29.001Z</time></trkpt><trkpt lat="45.94424329901988" lon="10.273533460022986"><ele>326.0</ele><time>2026-04-25T14:16:30.001Z</time></trkpt><trkpt lat="45.94417645766562" lon="10.273304183514641"><ele>311.6666666666667</ele><time>2026-04-25T14:16:31.001Z</time></trkpt><trkpt lat="45.94409742029383" lon="10.273082770085392"><ele>297.3333333333333</ele><time>2026-04-25T14:16:32.001Z</time></trkpt><trkpt lat="45.94403286886998" lon="10.272873124975682"><ele>283.0</ele><time>2026-04-25T14:16:33.001Z</time></trkpt><trkpt lat="45.94396212091208" lon="10.272660682234516"><ele>283.0</ele><time>2026-04-25T14:16:34.001Z</time></trkpt><trkpt lat="45.943894841273966" lon="10.272439530239964"><ele>283.0</ele><time>2026-04-25T14:16:35.001Z</time></trkpt><trkpt lat="45.94382229178916" lon="10.272227705344404"><ele>283.0</ele><time>2026-04-25T14:16:36.001Z</time></trkpt><trkpt lat="45.943754752698865" lon="10.27200765237218"><ele>280.66666666666663</ele><time>2026-04-25T14:16:37.001Z</time></trkpt><trkpt lat="45.943681857372205" lon="10.27178584065417"><ele>278.3333333333333</ele><time>2026-04-25T14:16:38.001Z</time></trkpt><trkpt lat="45.943606685601644" lon="10.2715644154697"><ele>276.0</ele><time>2026-04-25T14:16:39.001Z</time></trkpt><trkpt lat="45.94353634277204" lon="10.271347016475431"><ele>275.0</ele><time>2026-04-25T14:16:40.001Z</time></trkpt><trkpt lat="45.94346594629722" lon="10.271121699973659"><ele>274.0</ele><time>2026-04-25T14:16:41.001Z</time></trkpt><trkpt lat="45.943410237426974" lon="10.270894190527827"><ele>273.0</ele><time>2026-04-25T14:16:42.001Z</time></trkpt><trkpt lat="45.9433635089394" lon="10.270663048888128"><ele>270.3333333333333</ele><time>2026-04-25T14:16:43.001Z</time></trkpt><trkpt lat="45.94332291649364" lon="10.270433365771428"><ele>267.66666666666663</ele><time>2026-04-25T14:16:44.001Z</time></trkpt><trkpt lat="45.94329375516604" lon="10.270207370666112"><ele>265.0</ele><time>2026-04-25T14:16:45.001Z</time></trkpt><trkpt lat="45.943268148717856" lon="10.26998070433391"><ele>265.0</ele><time>2026-04-25T14:16:46.001Z</time></trkpt><trkpt lat="45.94324641144727" lon="10.269762699386192"><ele>265.0</ele><time>2026-04-25T14:16:47.001Z</time></trkpt><trkpt lat="45.943236449529586" lon="10.269573365395908"><ele>265.0</ele><time>2026-04-25T14:16:48.001Z</time></trkpt><trkpt lat="45.94321570959369" lon="10.269399113520786"><ele>265.0</ele><time>2026-04-25T14:16:49.001Z</time></trkpt><trkpt lat="45.94319186003894" lon="10.269236573498844"><ele>265.0</ele><time>2026-04-25T14:16:50.001Z</time></trkpt><trkpt lat="45.94313203436693" lon="10.269111860667833"><ele>265.0</ele><time>2026-04-25T14:16:51.001Z</time></trkpt><trkpt lat="45.9431301900657" lon="10.268920627668566"><ele>265.0</ele><time>2026-04-25T14:16:52.001Z</time></trkpt><trkpt lat="45.94312258597519" lon="10.268759778259106"><ele>265.0</ele><time>2026-04-25T14:16:53.001Z</time></trkpt><trkpt lat="45.9431274033776" lon="10.268582582116187"><ele>265.3333333333333</ele><time>2026-04-25T14:16:54.001Z</time></trkpt><trkpt lat="45.94300658607052" lon="10.26836240168743"><ele>265.6666666666667</ele><time>2026-04-25T14:16:55.001Z</time></trkpt><trkpt lat="45.94297281545321" lon="10.268158835251706"><ele>266.0</ele><time>2026-04-25T14:16:56.001Z</time></trkpt><trkpt lat="45.942960142646555" lon="10.267951557846551"><ele>265.5</ele><time>2026-04-25T14:16:57.001Z</time></trkpt><trkpt lat="45.942928432338206" lon="10.267754592537093"><ele>265.0</ele><time>2026-04-25T14:16:58.001Z</time></trkpt><trkpt lat="45.94288604498288" lon="10.267579138532021"><ele>264.5</ele><time>2026-04-25T14:16:59.001Z</time></trkpt><trkpt lat="45.942849562320916" lon="10.267403108507077"><ele>264.0</ele><time>2026-04-25T14:17:00.001Z</time></trkpt><trkpt lat="45.9428677902258" lon="10.267253930100145"><ele>263.8</ele><time>2026-04-25T14:17:01.001Z</time></trkpt><trkpt lat="45.94283628685128" lon="10.267120847883799"><ele>263.59999999999997</ele><time>2026-04-25T14:17:02.001Z</time></trkpt><trkpt lat="45.942724003286074" lon="10.267097000984212"><ele>263.4</ele><time>2026-04-25T14:17:03.001Z</time></trkpt><trkpt lat="45.94264286271241" lon="10.26709335845207"><ele>263.2</ele><time>2026-04-25T14:17:04.001Z</time></trkpt><trkpt lat="45.94255954295667" lon="10.267137405025023"><ele>263.0</ele><time>2026-04-25T14:17:05.001Z</time></trkpt><trkpt lat="45.942498771134126" lon="10.267233649303641"><ele>263.0</ele><time>2026-04-25T14:17:06.001Z</time></trkpt><trkpt lat="45.94245017645873" lon="10.267296246932236"><ele>263.0</ele><time>2026-04-25T14:17:07.001Z</time></trkpt><trkpt lat="45.94233270247143" lon="10.267229529488054"><ele>263.0</ele><time>2026-04-25T14:17:09.001Z</time></trkpt><trkpt lat="45.942418825429094" lon="10.267006498333895"><ele>263.0</ele><time>2026-04-25T14:17:11.001Z</time></trkpt><trkpt lat="45.942483866831985" lon="10.266889195617868"><ele>263.0</ele><time>2026-04-25T14:17:12.001Z</time></trkpt><trkpt lat="45.9425955290931" lon="10.266654792401217"><ele>263.0</ele><time>2026-04-25T14:17:13.001Z</time></trkpt><trkpt lat="45.94263352060922" lon="10.266459717895458"><ele>263.0</ele><time>2026-04-25T14:17:14.001Z</time></trkpt><trkpt lat="45.94264616323455" lon="10.266180520700885"><ele>263.0</ele><time>2026-04-25T14:17:15.001Z</time></trkpt><trkpt lat="45.94264340877576" lon="10.265926603747921"><ele>263.0</ele><time>2026-04-25T14:17:16.001Z</time></trkpt><trkpt lat="45.94262808685248" lon="10.265663616980246"><ele>263.0</ele><time>2026-04-25T14:17:17.001Z</time></trkpt><trkpt lat="45.94264135137615" lon="10.265446181038055"><ele>263.0</ele><time>2026-04-25T14:17:18.001Z</time></trkpt><trkpt lat="45.94262498358165" lon="10.265240372804314"><ele>263.0</ele><time>2026-04-25T14:17:19.001Z</time></trkpt><trkpt lat="45.94262313150685" lon="10.265012504950302"><ele>263.0</ele><time>2026-04-25T14:17:20.001Z</time></trkpt><trkpt lat="45.94262077019369" lon="10.264777139248553"><ele>262.6666666666667</ele><time>2026-04-25T14:17:21.001Z</time></trkpt><trkpt lat="45.94262046126662" lon="10.264504626215691"><ele>262.3333333333333</ele><time>2026-04-25T14:17:22.001Z</time></trkpt><trkpt lat="45.94262999420192" lon="10.264238180194685"><ele>262.0</ele><time>2026-04-25T14:17:23.001Z</time></trkpt><trkpt lat="45.942656829518725" lon="10.263995447735175"><ele>262.0</ele><time>2026-04-25T14:17:24.001Z</time></trkpt><trkpt lat="45.942693019360405" lon="10.26375173428179"><ele>262.0</ele><time>2026-04-25T14:17:25.001Z</time></trkpt><trkpt lat="45.94271883682243" lon="10.263461580434953"><ele>262.0</ele><time>2026-04-25T14:17:26.001Z</time></trkpt><trkpt lat="45.94270467987378" lon="10.263184621405875"><ele>262.66666666666663</ele><time>2026-04-25T14:17:27.001Z</time></trkpt><trkpt lat="45.94266320124476" lon="10.262928647117969"><ele>263.3333333333333</ele><time>2026-04-25T14:17:28.001Z</time></trkpt><trkpt lat="45.94260908344836" lon="10.262672377210238"><ele>264.0</ele><time>2026-04-25T14:17:29.001Z</time></trkpt><trkpt lat="45.94255769996754" lon="10.262427374573777"><ele>263.0</ele><time>2026-04-25T14:17:30.001Z</time></trkpt><trkpt lat="45.94251128011475" lon="10.262176985304128"><ele>262.0</ele><time>2026-04-25T14:17:31.001Z</time></trkpt><trkpt lat="45.94245791380023" lon="10.261930400462251"><ele>261.0</ele><time>2026-04-25T14:17:32.001Z</time></trkpt><trkpt lat="45.942390578872555" lon="10.261695184335263"><ele>261.0</ele><time>2026-04-25T14:17:33.001Z</time></trkpt><trkpt lat="45.942327512031746" lon="10.261476425836664"><ele>261.0</ele><time>2026-04-25T14:17:34.001Z</time></trkpt><trkpt lat="45.94224726146114" lon="10.261244929217964"><ele>261.0</ele><time>2026-04-25T14:17:35.001Z</time></trkpt><trkpt lat="45.9421509349625" lon="10.261017429792062"><ele>260.3333333333333</ele><time>2026-04-25T14:17:36.001Z</time></trkpt><trkpt lat="45.9420499120822" lon="10.260790388293696"><ele>259.66666666666663</ele><time>2026-04-25T14:17:37.001Z</time></trkpt><trkpt lat="45.94194799327016" lon="10.26057132251667"><ele>259.0</ele><time>2026-04-25T14:17:38.001Z</time></trkpt><trkpt lat="45.941847776932654" lon="10.260354616109861"><ele>259.66666666666663</ele><time>2026-04-25T14:17:39.001Z</time></trkpt><trkpt lat="45.94173748582217" lon="10.260157505668207"><ele>260.3333333333333</ele><time>2026-04-25T14:17:40.001Z</time></trkpt><trkpt lat="45.94162461819524" lon="10.259955083964783"><ele>261.0</ele><time>2026-04-25T14:17:41.001Z</time></trkpt><trkpt lat="45.94150946842106" lon="10.259751034971293"><ele>261.0</ele><time>2026-04-25T14:17:42.001Z</time></trkpt><trkpt lat="45.941399548317534" lon="10.25955689886986"><ele>261.0</ele><time>2026-04-25T14:17:43.001Z</time></trkpt><trkpt lat="45.94128792736845" lon="10.259371733943977"><ele>261.0</ele><time>2026-04-25T14:17:44.001Z</time></trkpt><trkpt lat="45.94117828720141" lon="10.259170002989315"><ele>261.0</ele><time>2026-04-25T14:17:45.001Z</time></trkpt><trkpt lat="45.94106684467947" lon="10.25896683573955"><ele>261.0</ele><time>2026-04-25T14:17:46.001Z</time></trkpt><trkpt lat="45.94096254818561" lon="10.2587765930722"><ele>261.0</ele><time>2026-04-25T14:17:47.001Z</time></trkpt><trkpt lat="45.94088191233986" lon="10.258591250217792"><ele>260.0</ele><time>2026-04-25T14:17:48.001Z</time></trkpt><trkpt lat="45.94082040817089" lon="10.25837774977142"><ele>259.0</ele><time>2026-04-25T14:17:49.001Z</time></trkpt><trkpt lat="45.940770862134336" lon="10.258142319128169"><ele>258.0</ele><time>2026-04-25T14:17:50.001Z</time></trkpt><trkpt lat="45.940718851459266" lon="10.257904448241904"><ele>257.3333333333333</ele><time>2026-04-25T14:17:51.001Z</time></trkpt><trkpt lat="45.94063735768905" lon="10.25767620230918"><ele>256.66666666666663</ele><time>2026-04-25T14:17:52.001Z</time></trkpt><trkpt lat="45.94052063957653" lon="10.257474906572039"><ele>256.0</ele><time>2026-04-25T14:17:53.001Z</time></trkpt><trkpt lat="45.940397344403635" lon="10.25727233829168"><ele>257.66666666666663</ele><time>2026-04-25T14:17:54.001Z</time></trkpt><trkpt lat="45.94028319312516" lon="10.257066005086447"><ele>259.3333333333333</ele><time>2026-04-25T14:17:55.001Z</time></trkpt><trkpt lat="45.94016158692643" lon="10.2568621718939"><ele>261.0</ele><time>2026-04-25T14:17:56.001Z</time></trkpt><trkpt lat="45.940052595606524" lon="10.256659030408194"><ele>261.0</ele><time>2026-04-25T14:17:57.001Z</time></trkpt><trkpt lat="45.939940953888474" lon="10.256459459010522"><ele>261.0</ele><time>2026-04-25T14:17:58.001Z</time></trkpt><trkpt lat="45.93982592779948" lon="10.256253443574048"><ele>261.0</ele><time>2026-04-25T14:17:59.001Z</time></trkpt><trkpt lat="45.939717306265436" lon="10.256045556938181"><ele>261.0</ele><time>2026-04-25T14:18:00.001Z</time></trkpt><trkpt lat="45.93960448487441" lon="10.255834047320299"><ele>261.0</ele><time>2026-04-25T14:18:01.001Z</time></trkpt><trkpt lat="45.939491108652426" lon="10.255627154849355"><ele>261.0</ele><time>2026-04-25T14:18:02.001Z</time></trkpt><trkpt lat="45.939376300524685" lon="10.255420667630114"><ele>261.0</ele><time>2026-04-25T14:18:03.001Z</time></trkpt><trkpt lat="45.93926349134229" lon="10.255219683999698"><ele>261.0</ele><time>2026-04-25T14:18:04.001Z</time></trkpt><trkpt lat="45.93915036236654" lon="10.255014788412902"><ele>261.0</ele><time>2026-04-25T14:18:05.001Z</time></trkpt><trkpt lat="45.93904215278722" lon="10.254805584123524"><ele>259.6666666666667</ele><time>2026-04-25T14:18:06.001Z</time></trkpt><trkpt lat="45.93893073335696" lon="10.254595193714701"><ele>258.33333333333337</ele><time>2026-04-25T14:18:07.001Z</time></trkpt><trkpt lat="45.93882260531794" lon="10.254384486725948"><ele>257.0</ele><time>2026-04-25T14:18:08.001Z</time></trkpt><trkpt lat="45.938717197839864" lon="10.254175594132988"><ele>257.0</ele><time>2026-04-25T14:18:09.001Z</time></trkpt><trkpt lat="45.938611610133904" lon="10.25397134178153"><ele>257.0</ele><time>2026-04-25T14:18:10.001Z</time></trkpt><trkpt lat="45.93851142281582" lon="10.253766585624314"><ele>257.0</ele><time>2026-04-25T14:18:11.001Z</time></trkpt><trkpt lat="45.93841298479828" lon="10.253559728545412"><ele>257.0</ele><time>2026-04-25T14:18:12.001Z</time></trkpt><trkpt lat="45.938311139094594" lon="10.253349341381488"><ele>257.0</ele><time>2026-04-25T14:18:13.001Z</time></trkpt><trkpt lat="45.938206704566035" lon="10.253137009360236"><ele>257.0</ele><time>2026-04-25T14:18:14.001Z</time></trkpt><trkpt lat="45.938105910134006" lon="10.252929507548428"><ele>257.33333333333337</ele><time>2026-04-25T14:18:15.001Z</time></trkpt><trkpt lat="45.93801023445716" lon="10.25272959019922"><ele>257.6666666666667</ele><time>2026-04-25T14:18:16.001Z</time></trkpt><trkpt lat="45.93791727643938" lon="10.252540342949942"><ele>258.0</ele><time>2026-04-25T14:18:17.001Z</time></trkpt><trkpt lat="45.93783597970694" lon="10.252366114730622"><ele>258.0</ele><time>2026-04-25T14:18:18.001Z</time></trkpt><trkpt lat="45.937764800581874" lon="10.252213406443941"><ele>258.0</ele><time>2026-04-25T14:18:19.001Z</time></trkpt><trkpt lat="45.93770689260473" lon="10.25206569187461"><ele>258.0</ele><time>2026-04-25T14:18:20.001Z</time></trkpt><trkpt lat="45.93764236640903" lon="10.25194522377357"><ele>258.0</ele><time>2026-04-25T14:18:21.001Z</time></trkpt><trkpt lat="45.93760438537012" lon="10.251817129516613"><ele>258.0</ele><time>2026-04-25T14:18:22.001Z</time></trkpt><trkpt lat="45.937547967334304" lon="10.251724293890552"><ele>257.5</ele><time>2026-04-25T14:18:23.001Z</time></trkpt><trkpt lat="45.93751605106083" lon="10.25163524859831"><ele>257.0</ele><time>2026-04-25T14:18:24.001Z</time></trkpt><trkpt lat="45.937480519549915" lon="10.251555769165202"><ele>256.5</ele><time>2026-04-25T14:18:25.001Z</time></trkpt><trkpt lat="45.93744363520096" lon="10.251480764390507"><ele>256.0</ele><time>2026-04-25T14:18:26.001Z</time></trkpt><trkpt lat="45.937406838870366" lon="10.251402836066225"><ele>255.5</ele><time>2026-04-25T14:18:27.001Z</time></trkpt><trkpt lat="45.9374546226625" lon="10.251175931215384"><ele>255.0</ele><time>2026-04-25T14:18:29.001Z</time></trkpt><trkpt lat="45.93732778495977" lon="10.251258865934968"><ele>255.0</ele><time>2026-04-25T14:19:13.001Z</time></trkpt><trkpt lat="45.93727846724048" lon="10.251330075900835"><ele>255.0</ele><time>2026-04-25T14:19:40.001Z</time></trkpt><trkpt lat="45.937283393528155" lon="10.251152456560366"><ele>255.0</ele><time>2026-04-25T14:22:31Z</time></trkpt><trkpt lat="45.93716738011805" lon="10.251033133182725"><ele>255.0</ele><time>2026-04-25T14:26:08Z</time></trkpt><trkpt lat="45.93713230864629" lon="10.251115515338844"><ele>255.0</ele><time>2026-04-25T14:26:19Z</time></trkpt><trkpt lat="45.937194867486596" lon="10.2511343946002"><ele>255.0</ele><time>2026-04-25T14:26:57Z</time></trkpt><trkpt lat="45.93712777013696" lon="10.25116714208522"><ele>255.0</ele><time>2026-04-25T14:27:22Z</time></trkpt><trkpt lat="45.93716077794725" lon="10.251254971977094"><ele>255.0</ele><time>2026-04-25T14:27:30Z</time></trkpt><trkpt lat="45.93719149327288" lon="10.251175859933646"><ele>255.0</ele><time>2026-04-25T14:29:38Z</time></trkpt></trkseg></trk></gpx>